<?xml version="1.0" encoding="utf-8"?>
<gpx xmlns:xsi="http://www.w3.org/2001/XMLSchema-instance" xmlns:xsd="http://www.w3.org/2001/XMLSchema" version="1.1" creator="Shapelink.com" xmlns="http://www.topografix.com/GPX/1/1" xmlns:gpxtpx="http://www.garmin.com/xmlschemas/TrackPointExtension/v1">
  <metadata>
    <name>Cykling 12.77 km, 2015-05-05</name>
    <desc></desc>
    <author><name>Alexander Engvall</name></author> 
    <time>2015-05-05T20:04:53Z</time>
  </metadata>
  <trk>
    <name>Cykling 12.77 km, 2015-05-05</name>
    <trkseg>
      <trkpt lat="59.326215" lon="17.878624">
        <ele>10.5</ele>
        <time>2015-05-05T20:04:53Z</time>
      </trkpt>
      <trkpt lat="59.32624" lon="17.878769">
        <ele>10.1</ele>
        <time>2015-05-05T20:05:47Z</time>
      </trkpt>
      <trkpt lat="59.326218" lon="17.87884">
        <ele>10.3</ele>
        <time>2015-05-05T20:05:49Z</time>
      </trkpt>
      <trkpt lat="59.326182" lon="17.878806">
        <ele>10.5</ele>
        <time>2015-05-05T20:05:51Z</time>
      </trkpt>
      <trkpt lat="59.326178" lon="17.878724">
        <ele>10.5</ele>
        <time>2015-05-05T20:05:53Z</time>
      </trkpt>
      <trkpt lat="59.326173" lon="17.878633">
        <ele>10.7</ele>
        <time>2015-05-05T20:05:55Z</time>
      </trkpt>
      <trkpt lat="59.326167" lon="17.878572">
        <ele>10.9</ele>
        <time>2015-05-05T20:05:56Z</time>
      </trkpt>
      <trkpt lat="59.326162" lon="17.878509">
        <ele>11</ele>
        <time>2015-05-05T20:05:57Z</time>
      </trkpt>
      <trkpt lat="59.326157" lon="17.878441">
        <ele>11.2</ele>
        <time>2015-05-05T20:05:58Z</time>
      </trkpt>
      <trkpt lat="59.326153" lon="17.878369">
        <ele>11.4</ele>
        <time>2015-05-05T20:05:59Z</time>
      </trkpt>
      <trkpt lat="59.326148" lon="17.878294">
        <ele>11.6</ele>
        <time>2015-05-05T20:06:00Z</time>
      </trkpt>
      <trkpt lat="59.326143" lon="17.878218">
        <ele>11.8</ele>
        <time>2015-05-05T20:06:01Z</time>
      </trkpt>
      <trkpt lat="59.326139" lon="17.878149">
        <ele>11.9</ele>
        <time>2015-05-05T20:06:02Z</time>
      </trkpt>
      <trkpt lat="59.326139" lon="17.878087">
        <ele>12</ele>
        <time>2015-05-05T20:06:03Z</time>
      </trkpt>
      <trkpt lat="59.326144" lon="17.878033">
        <ele>12.1</ele>
        <time>2015-05-05T20:06:04Z</time>
      </trkpt>
      <trkpt lat="59.32619" lon="17.878007">
        <ele>12</ele>
        <time>2015-05-05T20:06:16Z</time>
      </trkpt>
      <trkpt lat="59.326217" lon="17.878">
        <ele>11.9</ele>
        <time>2015-05-05T20:06:17Z</time>
      </trkpt>
      <trkpt lat="59.326255" lon="17.877999">
        <ele>11.8</ele>
        <time>2015-05-05T20:06:18Z</time>
      </trkpt>
      <trkpt lat="59.326293" lon="17.878022">
        <ele>11.7</ele>
        <time>2015-05-05T20:06:19Z</time>
      </trkpt>
      <trkpt lat="59.326324" lon="17.878075">
        <ele>11.5</ele>
        <time>2015-05-05T20:06:20Z</time>
      </trkpt>
      <trkpt lat="59.326347" lon="17.87815">
        <ele>11.4</ele>
        <time>2015-05-05T20:06:21Z</time>
      </trkpt>
      <trkpt lat="59.326374" lon="17.878306">
        <ele>11</ele>
        <time>2015-05-05T20:06:22Z</time>
      </trkpt>
      <trkpt lat="59.326386" lon="17.878408">
        <ele>10.8</ele>
        <time>2015-05-05T20:06:23Z</time>
      </trkpt>
      <trkpt lat="59.326395" lon="17.878512">
        <ele>10.5</ele>
        <time>2015-05-05T20:06:24Z</time>
      </trkpt>
      <trkpt lat="59.326406" lon="17.878626">
        <ele>10.3</ele>
        <time>2015-05-05T20:06:25Z</time>
      </trkpt>
      <trkpt lat="59.326416" lon="17.878751">
        <ele>10</ele>
        <time>2015-05-05T20:06:26Z</time>
      </trkpt>
      <trkpt lat="59.326435" lon="17.878891">
        <ele>10.1</ele>
        <time>2015-05-05T20:06:27Z</time>
      </trkpt>
      <trkpt lat="59.326453" lon="17.879027">
        <ele>10.3</ele>
        <time>2015-05-05T20:06:28Z</time>
      </trkpt>
      <trkpt lat="59.326467" lon="17.879181">
        <ele>10.4</ele>
        <time>2015-05-05T20:06:29Z</time>
      </trkpt>
      <trkpt lat="59.326479" lon="17.879348">
        <ele>10.5</ele>
        <time>2015-05-05T20:06:30Z</time>
      </trkpt>
      <trkpt lat="59.32649" lon="17.879507">
        <ele>10.6</ele>
        <time>2015-05-05T20:06:31Z</time>
      </trkpt>
      <trkpt lat="59.32649" lon="17.879657">
        <ele>10.8</ele>
        <time>2015-05-05T20:06:32Z</time>
      </trkpt>
      <trkpt lat="59.326484" lon="17.879802">
        <ele>11</ele>
        <time>2015-05-05T20:06:33Z</time>
      </trkpt>
      <trkpt lat="59.32648" lon="17.87996">
        <ele>11.2</ele>
        <time>2015-05-05T20:06:34Z</time>
      </trkpt>
      <trkpt lat="59.326478" lon="17.880131">
        <ele>11.4</ele>
        <time>2015-05-05T20:06:35Z</time>
      </trkpt>
      <trkpt lat="59.326464" lon="17.880288">
        <ele>11.6</ele>
        <time>2015-05-05T20:06:36Z</time>
      </trkpt>
      <trkpt lat="59.326448" lon="17.88044">
        <ele>11.8</ele>
        <time>2015-05-05T20:06:37Z</time>
      </trkpt>
      <trkpt lat="59.326426" lon="17.88059">
        <ele>11.8</ele>
        <time>2015-05-05T20:06:38Z</time>
      </trkpt>
      <trkpt lat="59.326408" lon="17.880752">
        <ele>11.8</ele>
        <time>2015-05-05T20:06:39Z</time>
      </trkpt>
      <trkpt lat="59.32638" lon="17.880904">
        <ele>11.8</ele>
        <time>2015-05-05T20:06:40Z</time>
      </trkpt>
      <trkpt lat="59.326353" lon="17.881054">
        <ele>11.9</ele>
        <time>2015-05-05T20:06:41Z</time>
      </trkpt>
      <trkpt lat="59.326325" lon="17.881207">
        <ele>11.9</ele>
        <time>2015-05-05T20:06:42Z</time>
      </trkpt>
      <trkpt lat="59.326295" lon="17.881345">
        <ele>11.9</ele>
        <time>2015-05-05T20:06:43Z</time>
      </trkpt>
      <trkpt lat="59.326263" lon="17.881484">
        <ele>12</ele>
        <time>2015-05-05T20:06:44Z</time>
      </trkpt>
      <trkpt lat="59.32623" lon="17.881615">
        <ele>12</ele>
        <time>2015-05-05T20:06:45Z</time>
      </trkpt>
      <trkpt lat="59.326197" lon="17.881743">
        <ele>11.9</ele>
        <time>2015-05-05T20:06:46Z</time>
      </trkpt>
      <trkpt lat="59.326159" lon="17.881866">
        <ele>11.9</ele>
        <time>2015-05-05T20:06:47Z</time>
      </trkpt>
      <trkpt lat="59.326127" lon="17.881983">
        <ele>11.9</ele>
        <time>2015-05-05T20:06:48Z</time>
      </trkpt>
      <trkpt lat="59.326095" lon="17.882083">
        <ele>11.8</ele>
        <time>2015-05-05T20:06:49Z</time>
      </trkpt>
      <trkpt lat="59.326058" lon="17.882202">
        <ele>11.8</ele>
        <time>2015-05-05T20:06:50Z</time>
      </trkpt>
      <trkpt lat="59.326017" lon="17.882319">
        <ele>11.7</ele>
        <time>2015-05-05T20:06:51Z</time>
      </trkpt>
      <trkpt lat="59.32599" lon="17.8824">
        <ele>11.7</ele>
        <time>2015-05-05T20:06:52Z</time>
      </trkpt>
      <trkpt lat="59.325961" lon="17.882507">
        <ele>11.7</ele>
        <time>2015-05-05T20:06:53Z</time>
      </trkpt>
      <trkpt lat="59.325931" lon="17.882605">
        <ele>11.6</ele>
        <time>2015-05-05T20:06:54Z</time>
      </trkpt>
      <trkpt lat="59.325894" lon="17.882717">
        <ele>11.6</ele>
        <time>2015-05-05T20:06:55Z</time>
      </trkpt>
      <trkpt lat="59.325852" lon="17.882822">
        <ele>11.5</ele>
        <time>2015-05-05T20:06:56Z</time>
      </trkpt>
      <trkpt lat="59.325819" lon="17.882919">
        <ele>11.5</ele>
        <time>2015-05-05T20:06:57Z</time>
      </trkpt>
      <trkpt lat="59.325791" lon="17.883029">
        <ele>11.6</ele>
        <time>2015-05-05T20:06:58Z</time>
      </trkpt>
      <trkpt lat="59.325753" lon="17.883136">
        <ele>11.7</ele>
        <time>2015-05-05T20:06:59Z</time>
      </trkpt>
      <trkpt lat="59.325723" lon="17.883246">
        <ele>11.8</ele>
        <time>2015-05-05T20:07:00Z</time>
      </trkpt>
      <trkpt lat="59.32569" lon="17.883346">
        <ele>11.8</ele>
        <time>2015-05-05T20:07:01Z</time>
      </trkpt>
      <trkpt lat="59.325661" lon="17.883449">
        <ele>11.9</ele>
        <time>2015-05-05T20:07:02Z</time>
      </trkpt>
      <trkpt lat="59.325637" lon="17.883582">
        <ele>12.1</ele>
        <time>2015-05-05T20:07:03Z</time>
      </trkpt>
      <trkpt lat="59.325608" lon="17.883685">
        <ele>12.2</ele>
        <time>2015-05-05T20:07:04Z</time>
      </trkpt>
      <trkpt lat="59.325593" lon="17.883784">
        <ele>12.3</ele>
        <time>2015-05-05T20:07:05Z</time>
      </trkpt>
      <trkpt lat="59.325567" lon="17.883884">
        <ele>12.4</ele>
        <time>2015-05-05T20:07:06Z</time>
      </trkpt>
      <trkpt lat="59.325538" lon="17.884014">
        <ele>12.6</ele>
        <time>2015-05-05T20:07:07Z</time>
      </trkpt>
      <trkpt lat="59.325508" lon="17.884126">
        <ele>12.7</ele>
        <time>2015-05-05T20:07:08Z</time>
      </trkpt>
      <trkpt lat="59.325477" lon="17.884232">
        <ele>12.8</ele>
        <time>2015-05-05T20:07:09Z</time>
      </trkpt>
      <trkpt lat="59.325443" lon="17.884332">
        <ele>12.8</ele>
        <time>2015-05-05T20:07:10Z</time>
      </trkpt>
      <trkpt lat="59.325405" lon="17.884436">
        <ele>12.8</ele>
        <time>2015-05-05T20:07:11Z</time>
      </trkpt>
      <trkpt lat="59.325379" lon="17.884529">
        <ele>12.9</ele>
        <time>2015-05-05T20:07:12Z</time>
      </trkpt>
      <trkpt lat="59.325349" lon="17.884601">
        <ele>12.9</ele>
        <time>2015-05-05T20:07:13Z</time>
      </trkpt>
      <trkpt lat="59.325312" lon="17.884687">
        <ele>13</ele>
        <time>2015-05-05T20:07:14Z</time>
      </trkpt>
      <trkpt lat="59.325273" lon="17.884797">
        <ele>13.1</ele>
        <time>2015-05-05T20:07:15Z</time>
      </trkpt>
      <trkpt lat="59.325234" lon="17.884898">
        <ele>13.2</ele>
        <time>2015-05-05T20:07:16Z</time>
      </trkpt>
      <trkpt lat="59.325197" lon="17.884991">
        <ele>13.2</ele>
        <time>2015-05-05T20:07:17Z</time>
      </trkpt>
      <trkpt lat="59.325154" lon="17.885039">
        <ele>13.2</ele>
        <time>2015-05-05T20:07:18Z</time>
      </trkpt>
      <trkpt lat="59.325117" lon="17.885132">
        <ele>13.3</ele>
        <time>2015-05-05T20:07:19Z</time>
      </trkpt>
      <trkpt lat="59.325077" lon="17.885215">
        <ele>13.4</ele>
        <time>2015-05-05T20:07:20Z</time>
      </trkpt>
      <trkpt lat="59.325038" lon="17.885311">
        <ele>13.4</ele>
        <time>2015-05-05T20:07:21Z</time>
      </trkpt>
      <trkpt lat="59.324987" lon="17.885388">
        <ele>13.5</ele>
        <time>2015-05-05T20:07:22Z</time>
      </trkpt>
      <trkpt lat="59.324934" lon="17.885466">
        <ele>13.5</ele>
        <time>2015-05-05T20:07:23Z</time>
      </trkpt>
      <trkpt lat="59.324894" lon="17.885553">
        <ele>13.7</ele>
        <time>2015-05-05T20:07:24Z</time>
      </trkpt>
      <trkpt lat="59.324852" lon="17.88564">
        <ele>13.8</ele>
        <time>2015-05-05T20:07:25Z</time>
      </trkpt>
      <trkpt lat="59.324805" lon="17.885728">
        <ele>13.8</ele>
        <time>2015-05-05T20:07:26Z</time>
      </trkpt>
      <trkpt lat="59.324763" lon="17.885832">
        <ele>13.9</ele>
        <time>2015-05-05T20:07:27Z</time>
      </trkpt>
      <trkpt lat="59.324723" lon="17.885933">
        <ele>14</ele>
        <time>2015-05-05T20:07:28Z</time>
      </trkpt>
      <trkpt lat="59.324678" lon="17.886051">
        <ele>14</ele>
        <time>2015-05-05T20:07:29Z</time>
      </trkpt>
      <trkpt lat="59.324639" lon="17.886159">
        <ele>14.1</ele>
        <time>2015-05-05T20:07:30Z</time>
      </trkpt>
      <trkpt lat="59.324608" lon="17.886277">
        <ele>14.2</ele>
        <time>2015-05-05T20:07:31Z</time>
      </trkpt>
      <trkpt lat="59.32458" lon="17.886393">
        <ele>14.3</ele>
        <time>2015-05-05T20:07:32Z</time>
      </trkpt>
      <trkpt lat="59.324559" lon="17.886486">
        <ele>14.5</ele>
        <time>2015-05-05T20:07:33Z</time>
      </trkpt>
      <trkpt lat="59.324549" lon="17.886603">
        <ele>14.8</ele>
        <time>2015-05-05T20:07:34Z</time>
      </trkpt>
      <trkpt lat="59.324522" lon="17.886719">
        <ele>15</ele>
        <time>2015-05-05T20:07:35Z</time>
      </trkpt>
      <trkpt lat="59.324505" lon="17.886848">
        <ele>15.2</ele>
        <time>2015-05-05T20:07:36Z</time>
      </trkpt>
      <trkpt lat="59.324482" lon="17.886973">
        <ele>15.3</ele>
        <time>2015-05-05T20:07:37Z</time>
      </trkpt>
      <trkpt lat="59.324471" lon="17.8871">
        <ele>15.5</ele>
        <time>2015-05-05T20:07:38Z</time>
      </trkpt>
      <trkpt lat="59.324444" lon="17.887222">
        <ele>15.3</ele>
        <time>2015-05-05T20:07:39Z</time>
      </trkpt>
      <trkpt lat="59.324417" lon="17.887364">
        <ele>15.2</ele>
        <time>2015-05-05T20:07:40Z</time>
      </trkpt>
      <trkpt lat="59.324398" lon="17.887488">
        <ele>15.1</ele>
        <time>2015-05-05T20:07:41Z</time>
      </trkpt>
      <trkpt lat="59.324374" lon="17.887617">
        <ele>15</ele>
        <time>2015-05-05T20:07:42Z</time>
      </trkpt>
      <trkpt lat="59.324349" lon="17.887741">
        <ele>14.9</ele>
        <time>2015-05-05T20:07:43Z</time>
      </trkpt>
      <trkpt lat="59.324326" lon="17.887863">
        <ele>14.8</ele>
        <time>2015-05-05T20:07:44Z</time>
      </trkpt>
      <trkpt lat="59.324297" lon="17.887995">
        <ele>14.7</ele>
        <time>2015-05-05T20:07:45Z</time>
      </trkpt>
      <trkpt lat="59.324268" lon="17.888117">
        <ele>14.6</ele>
        <time>2015-05-05T20:07:46Z</time>
      </trkpt>
      <trkpt lat="59.324247" lon="17.888247">
        <ele>14.6</ele>
        <time>2015-05-05T20:07:47Z</time>
      </trkpt>
      <trkpt lat="59.324218" lon="17.888366">
        <ele>14.5</ele>
        <time>2015-05-05T20:07:48Z</time>
      </trkpt>
      <trkpt lat="59.324182" lon="17.88848">
        <ele>14.4</ele>
        <time>2015-05-05T20:07:49Z</time>
      </trkpt>
      <trkpt lat="59.32415" lon="17.888605">
        <ele>14.3</ele>
        <time>2015-05-05T20:07:50Z</time>
      </trkpt>
      <trkpt lat="59.324122" lon="17.888772">
        <ele>14.2</ele>
        <time>2015-05-05T20:07:51Z</time>
      </trkpt>
      <trkpt lat="59.324099" lon="17.888918">
        <ele>14.1</ele>
        <time>2015-05-05T20:07:52Z</time>
      </trkpt>
      <trkpt lat="59.324067" lon="17.889046">
        <ele>13.9</ele>
        <time>2015-05-05T20:07:53Z</time>
      </trkpt>
      <trkpt lat="59.324043" lon="17.88919">
        <ele>13.8</ele>
        <time>2015-05-05T20:07:54Z</time>
      </trkpt>
      <trkpt lat="59.324023" lon="17.889314">
        <ele>13.6</ele>
        <time>2015-05-05T20:07:55Z</time>
      </trkpt>
      <trkpt lat="59.324001" lon="17.88945">
        <ele>13.5</ele>
        <time>2015-05-05T20:07:56Z</time>
      </trkpt>
      <trkpt lat="59.323979" lon="17.889616">
        <ele>13.4</ele>
        <time>2015-05-05T20:07:57Z</time>
      </trkpt>
      <trkpt lat="59.323962" lon="17.889751">
        <ele>13.3</ele>
        <time>2015-05-05T20:07:58Z</time>
      </trkpt>
      <trkpt lat="59.323941" lon="17.88987">
        <ele>13.1</ele>
        <time>2015-05-05T20:07:59Z</time>
      </trkpt>
      <trkpt lat="59.323904" lon="17.889994">
        <ele>12.9</ele>
        <time>2015-05-05T20:08:00Z</time>
      </trkpt>
      <trkpt lat="59.323864" lon="17.890112">
        <ele>12.7</ele>
        <time>2015-05-05T20:08:01Z</time>
      </trkpt>
      <trkpt lat="59.323834" lon="17.890211">
        <ele>12.5</ele>
        <time>2015-05-05T20:08:02Z</time>
      </trkpt>
      <trkpt lat="59.323805" lon="17.890328">
        <ele>12.3</ele>
        <time>2015-05-05T20:08:03Z</time>
      </trkpt>
      <trkpt lat="59.323776" lon="17.890458">
        <ele>12.1</ele>
        <time>2015-05-05T20:08:04Z</time>
      </trkpt>
      <trkpt lat="59.323738" lon="17.890617">
        <ele>11.6</ele>
        <time>2015-05-05T20:08:05Z</time>
      </trkpt>
      <trkpt lat="59.32372" lon="17.890754">
        <ele>11.3</ele>
        <time>2015-05-05T20:08:06Z</time>
      </trkpt>
      <trkpt lat="59.323696" lon="17.890903">
        <ele>10.9</ele>
        <time>2015-05-05T20:08:07Z</time>
      </trkpt>
      <trkpt lat="59.323673" lon="17.891044">
        <ele>10.5</ele>
        <time>2015-05-05T20:08:08Z</time>
      </trkpt>
      <trkpt lat="59.323672" lon="17.891179">
        <ele>10.3</ele>
        <time>2015-05-05T20:08:09Z</time>
      </trkpt>
      <trkpt lat="59.323658" lon="17.89132">
        <ele>10</ele>
        <time>2015-05-05T20:08:10Z</time>
      </trkpt>
      <trkpt lat="59.323649" lon="17.891462">
        <ele>9.6</ele>
        <time>2015-05-05T20:08:11Z</time>
      </trkpt>
      <trkpt lat="59.323651" lon="17.891608">
        <ele>9.3</ele>
        <time>2015-05-05T20:08:12Z</time>
      </trkpt>
      <trkpt lat="59.323646" lon="17.891744">
        <ele>9</ele>
        <time>2015-05-05T20:08:13Z</time>
      </trkpt>
      <trkpt lat="59.323648" lon="17.891874">
        <ele>8.7</ele>
        <time>2015-05-05T20:08:14Z</time>
      </trkpt>
      <trkpt lat="59.323662" lon="17.892025">
        <ele>8.5</ele>
        <time>2015-05-05T20:08:15Z</time>
      </trkpt>
      <trkpt lat="59.323668" lon="17.892155">
        <ele>8.2</ele>
        <time>2015-05-05T20:08:16Z</time>
      </trkpt>
      <trkpt lat="59.32368" lon="17.892276">
        <ele>7.9</ele>
        <time>2015-05-05T20:08:17Z</time>
      </trkpt>
      <trkpt lat="59.323701" lon="17.892392">
        <ele>7.6</ele>
        <time>2015-05-05T20:08:18Z</time>
      </trkpt>
      <trkpt lat="59.323722" lon="17.892508">
        <ele>7.3</ele>
        <time>2015-05-05T20:08:19Z</time>
      </trkpt>
      <trkpt lat="59.323737" lon="17.892638">
        <ele>6.9</ele>
        <time>2015-05-05T20:08:20Z</time>
      </trkpt>
      <trkpt lat="59.323749" lon="17.892759">
        <ele>6.6</ele>
        <time>2015-05-05T20:08:21Z</time>
      </trkpt>
      <trkpt lat="59.323766" lon="17.892918">
        <ele>6.1</ele>
        <time>2015-05-05T20:08:22Z</time>
      </trkpt>
      <trkpt lat="59.323775" lon="17.893056">
        <ele>5.6</ele>
        <time>2015-05-05T20:08:23Z</time>
      </trkpt>
      <trkpt lat="59.323787" lon="17.893189">
        <ele>5.1</ele>
        <time>2015-05-05T20:08:24Z</time>
      </trkpt>
      <trkpt lat="59.323809" lon="17.893329">
        <ele>4.7</ele>
        <time>2015-05-05T20:08:25Z</time>
      </trkpt>
      <trkpt lat="59.323825" lon="17.893468">
        <ele>4.1</ele>
        <time>2015-05-05T20:08:26Z</time>
      </trkpt>
      <trkpt lat="59.323846" lon="17.89361">
        <ele>3.6</ele>
        <time>2015-05-05T20:08:27Z</time>
      </trkpt>
      <trkpt lat="59.323868" lon="17.893756">
        <ele>3</ele>
        <time>2015-05-05T20:08:28Z</time>
      </trkpt>
      <trkpt lat="59.323889" lon="17.8939">
        <ele>3</ele>
        <time>2015-05-05T20:08:29Z</time>
      </trkpt>
      <trkpt lat="59.323901" lon="17.894041">
        <ele>3</ele>
        <time>2015-05-05T20:08:30Z</time>
      </trkpt>
      <trkpt lat="59.323911" lon="17.894171">
        <ele>3</ele>
        <time>2015-05-05T20:08:31Z</time>
      </trkpt>
      <trkpt lat="59.323924" lon="17.894296">
        <ele>3</ele>
        <time>2015-05-05T20:08:32Z</time>
      </trkpt>
      <trkpt lat="59.323945" lon="17.894439">
        <ele>3</ele>
        <time>2015-05-05T20:08:33Z</time>
      </trkpt>
      <trkpt lat="59.323962" lon="17.894581">
        <ele>3</ele>
        <time>2015-05-05T20:08:34Z</time>
      </trkpt>
      <trkpt lat="59.323978" lon="17.894739">
        <ele>3</ele>
        <time>2015-05-05T20:08:35Z</time>
      </trkpt>
      <trkpt lat="59.323995" lon="17.894882">
        <ele>3</ele>
        <time>2015-05-05T20:08:36Z</time>
      </trkpt>
      <trkpt lat="59.324016" lon="17.895019">
        <ele>3</ele>
        <time>2015-05-05T20:08:37Z</time>
      </trkpt>
      <trkpt lat="59.324036" lon="17.895147">
        <ele>3</ele>
        <time>2015-05-05T20:08:38Z</time>
      </trkpt>
      <trkpt lat="59.324052" lon="17.895279">
        <ele>3</ele>
        <time>2015-05-05T20:08:39Z</time>
      </trkpt>
      <trkpt lat="59.324072" lon="17.895426">
        <ele>3.1</ele>
        <time>2015-05-05T20:08:40Z</time>
      </trkpt>
      <trkpt lat="59.324081" lon="17.895577">
        <ele>4.2</ele>
        <time>2015-05-05T20:08:41Z</time>
      </trkpt>
      <trkpt lat="59.324097" lon="17.895712">
        <ele>5.1</ele>
        <time>2015-05-05T20:08:42Z</time>
      </trkpt>
      <trkpt lat="59.324107" lon="17.895854">
        <ele>6.1</ele>
        <time>2015-05-05T20:08:43Z</time>
      </trkpt>
      <trkpt lat="59.324127" lon="17.895987">
        <ele>6.9</ele>
        <time>2015-05-05T20:08:44Z</time>
      </trkpt>
      <trkpt lat="59.324144" lon="17.896133">
        <ele>7.8</ele>
        <time>2015-05-05T20:08:45Z</time>
      </trkpt>
      <trkpt lat="59.324163" lon="17.89628">
        <ele>8.7</ele>
        <time>2015-05-05T20:08:46Z</time>
      </trkpt>
      <trkpt lat="59.32418" lon="17.896424">
        <ele>9.7</ele>
        <time>2015-05-05T20:08:47Z</time>
      </trkpt>
      <trkpt lat="59.32421" lon="17.896565">
        <ele>10.4</ele>
        <time>2015-05-05T20:08:48Z</time>
      </trkpt>
      <trkpt lat="59.324241" lon="17.896686">
        <ele>11</ele>
        <time>2015-05-05T20:08:49Z</time>
      </trkpt>
      <trkpt lat="59.32427" lon="17.896825">
        <ele>11.7</ele>
        <time>2015-05-05T20:08:50Z</time>
      </trkpt>
      <trkpt lat="59.324289" lon="17.896944">
        <ele>12.3</ele>
        <time>2015-05-05T20:08:51Z</time>
      </trkpt>
      <trkpt lat="59.324331" lon="17.897078">
        <ele>12.7</ele>
        <time>2015-05-05T20:08:52Z</time>
      </trkpt>
      <trkpt lat="59.324365" lon="17.897188">
        <ele>12.8</ele>
        <time>2015-05-05T20:08:53Z</time>
      </trkpt>
      <trkpt lat="59.324399" lon="17.897304">
        <ele>13</ele>
        <time>2015-05-05T20:08:54Z</time>
      </trkpt>
      <trkpt lat="59.324439" lon="17.897437">
        <ele>13.2</ele>
        <time>2015-05-05T20:08:55Z</time>
      </trkpt>
      <trkpt lat="59.324485" lon="17.897536">
        <ele>13.2</ele>
        <time>2015-05-05T20:08:56Z</time>
      </trkpt>
      <trkpt lat="59.324518" lon="17.897637">
        <ele>13.3</ele>
        <time>2015-05-05T20:08:57Z</time>
      </trkpt>
      <trkpt lat="59.324547" lon="17.897751">
        <ele>13.6</ele>
        <time>2015-05-05T20:08:58Z</time>
      </trkpt>
      <trkpt lat="59.324579" lon="17.897853">
        <ele>13.7</ele>
        <time>2015-05-05T20:08:59Z</time>
      </trkpt>
      <trkpt lat="59.32461" lon="17.897941">
        <ele>14</ele>
        <time>2015-05-05T20:09:00Z</time>
      </trkpt>
      <trkpt lat="59.324636" lon="17.89805">
        <ele>14.5</ele>
        <time>2015-05-05T20:09:01Z</time>
      </trkpt>
      <trkpt lat="59.324666" lon="17.898156">
        <ele>14.8</ele>
        <time>2015-05-05T20:09:02Z</time>
      </trkpt>
      <trkpt lat="59.324694" lon="17.898266">
        <ele>15.2</ele>
        <time>2015-05-05T20:09:03Z</time>
      </trkpt>
      <trkpt lat="59.32472" lon="17.898372">
        <ele>15.5</ele>
        <time>2015-05-05T20:09:04Z</time>
      </trkpt>
      <trkpt lat="59.32475" lon="17.898485">
        <ele>15.8</ele>
        <time>2015-05-05T20:09:05Z</time>
      </trkpt>
      <trkpt lat="59.324779" lon="17.898565">
        <ele>15.9</ele>
        <time>2015-05-05T20:09:06Z</time>
      </trkpt>
      <trkpt lat="59.324801" lon="17.898664">
        <ele>16.1</ele>
        <time>2015-05-05T20:09:07Z</time>
      </trkpt>
      <trkpt lat="59.324828" lon="17.898761">
        <ele>16.3</ele>
        <time>2015-05-05T20:09:08Z</time>
      </trkpt>
      <trkpt lat="59.324848" lon="17.898865">
        <ele>16.3</ele>
        <time>2015-05-05T20:09:09Z</time>
      </trkpt>
      <trkpt lat="59.324879" lon="17.898968">
        <ele>16.2</ele>
        <time>2015-05-05T20:09:10Z</time>
      </trkpt>
      <trkpt lat="59.324911" lon="17.899076">
        <ele>16.1</ele>
        <time>2015-05-05T20:09:11Z</time>
      </trkpt>
      <trkpt lat="59.324944" lon="17.899171">
        <ele>16</ele>
        <time>2015-05-05T20:09:12Z</time>
      </trkpt>
      <trkpt lat="59.324977" lon="17.899271">
        <ele>15.8</ele>
        <time>2015-05-05T20:09:13Z</time>
      </trkpt>
      <trkpt lat="59.325" lon="17.899368">
        <ele>15.7</ele>
        <time>2015-05-05T20:09:14Z</time>
      </trkpt>
      <trkpt lat="59.325033" lon="17.899488">
        <ele>15.6</ele>
        <time>2015-05-05T20:09:15Z</time>
      </trkpt>
      <trkpt lat="59.325061" lon="17.899598">
        <ele>15.4</ele>
        <time>2015-05-05T20:09:16Z</time>
      </trkpt>
      <trkpt lat="59.32509" lon="17.899689">
        <ele>15.4</ele>
        <time>2015-05-05T20:09:17Z</time>
      </trkpt>
      <trkpt lat="59.325109" lon="17.8998">
        <ele>15.4</ele>
        <time>2015-05-05T20:09:18Z</time>
      </trkpt>
      <trkpt lat="59.325139" lon="17.899898">
        <ele>15.3</ele>
        <time>2015-05-05T20:09:19Z</time>
      </trkpt>
      <trkpt lat="59.32517" lon="17.900002">
        <ele>15.2</ele>
        <time>2015-05-05T20:09:20Z</time>
      </trkpt>
      <trkpt lat="59.32521" lon="17.900103">
        <ele>14.9</ele>
        <time>2015-05-05T20:09:21Z</time>
      </trkpt>
      <trkpt lat="59.325263" lon="17.900188">
        <ele>14.5</ele>
        <time>2015-05-05T20:09:22Z</time>
      </trkpt>
      <trkpt lat="59.325315" lon="17.900307">
        <ele>14.1</ele>
        <time>2015-05-05T20:09:23Z</time>
      </trkpt>
      <trkpt lat="59.325348" lon="17.900407">
        <ele>13.8</ele>
        <time>2015-05-05T20:09:24Z</time>
      </trkpt>
      <trkpt lat="59.325381" lon="17.900527">
        <ele>13.4</ele>
        <time>2015-05-05T20:09:25Z</time>
      </trkpt>
      <trkpt lat="59.325405" lon="17.900649">
        <ele>13.1</ele>
        <time>2015-05-05T20:09:26Z</time>
      </trkpt>
      <trkpt lat="59.325437" lon="17.900748">
        <ele>12.9</ele>
        <time>2015-05-05T20:09:27Z</time>
      </trkpt>
      <trkpt lat="59.325453" lon="17.900905">
        <ele>12.8</ele>
        <time>2015-05-05T20:09:28Z</time>
      </trkpt>
      <trkpt lat="59.325467" lon="17.901024">
        <ele>12.7</ele>
        <time>2015-05-05T20:09:29Z</time>
      </trkpt>
      <trkpt lat="59.325485" lon="17.901147">
        <ele>12.6</ele>
        <time>2015-05-05T20:09:30Z</time>
      </trkpt>
      <trkpt lat="59.325515" lon="17.901263">
        <ele>12.4</ele>
        <time>2015-05-05T20:09:31Z</time>
      </trkpt>
      <trkpt lat="59.325544" lon="17.901405">
        <ele>12.2</ele>
        <time>2015-05-05T20:09:32Z</time>
      </trkpt>
      <trkpt lat="59.325569" lon="17.901512">
        <ele>12</ele>
        <time>2015-05-05T20:09:33Z</time>
      </trkpt>
      <trkpt lat="59.325602" lon="17.901647">
        <ele>11.8</ele>
        <time>2015-05-05T20:09:34Z</time>
      </trkpt>
      <trkpt lat="59.325632" lon="17.901755">
        <ele>11.6</ele>
        <time>2015-05-05T20:09:35Z</time>
      </trkpt>
      <trkpt lat="59.325662" lon="17.901866">
        <ele>11.3</ele>
        <time>2015-05-05T20:09:36Z</time>
      </trkpt>
      <trkpt lat="59.325695" lon="17.901976">
        <ele>11</ele>
        <time>2015-05-05T20:09:37Z</time>
      </trkpt>
      <trkpt lat="59.325722" lon="17.902094">
        <ele>10.8</ele>
        <time>2015-05-05T20:09:38Z</time>
      </trkpt>
      <trkpt lat="59.325754" lon="17.902204">
        <ele>10.6</ele>
        <time>2015-05-05T20:09:39Z</time>
      </trkpt>
      <trkpt lat="59.325777" lon="17.902324">
        <ele>10.4</ele>
        <time>2015-05-05T20:09:40Z</time>
      </trkpt>
      <trkpt lat="59.325804" lon="17.902424">
        <ele>10.2</ele>
        <time>2015-05-05T20:09:41Z</time>
      </trkpt>
      <trkpt lat="59.325828" lon="17.902532">
        <ele>10</ele>
        <time>2015-05-05T20:09:42Z</time>
      </trkpt>
      <trkpt lat="59.325865" lon="17.902634">
        <ele>9.8</ele>
        <time>2015-05-05T20:09:43Z</time>
      </trkpt>
      <trkpt lat="59.325896" lon="17.902766">
        <ele>9.5</ele>
        <time>2015-05-05T20:09:44Z</time>
      </trkpt>
      <trkpt lat="59.325926" lon="17.902876">
        <ele>9.3</ele>
        <time>2015-05-05T20:09:45Z</time>
      </trkpt>
      <trkpt lat="59.325961" lon="17.902988">
        <ele>9.1</ele>
        <time>2015-05-05T20:09:46Z</time>
      </trkpt>
      <trkpt lat="59.326012" lon="17.903118">
        <ele>8.8</ele>
        <time>2015-05-05T20:09:48Z</time>
      </trkpt>
      <trkpt lat="59.32605" lon="17.903219">
        <ele>8.6</ele>
        <time>2015-05-05T20:09:49Z</time>
      </trkpt>
      <trkpt lat="59.326078" lon="17.903317">
        <ele>8.5</ele>
        <time>2015-05-05T20:09:50Z</time>
      </trkpt>
      <trkpt lat="59.326109" lon="17.903431">
        <ele>8.4</ele>
        <time>2015-05-05T20:09:51Z</time>
      </trkpt>
      <trkpt lat="59.326134" lon="17.90354">
        <ele>8.4</ele>
        <time>2015-05-05T20:09:52Z</time>
      </trkpt>
      <trkpt lat="59.326155" lon="17.90366">
        <ele>8.4</ele>
        <time>2015-05-05T20:09:53Z</time>
      </trkpt>
      <trkpt lat="59.326176" lon="17.903771">
        <ele>8.4</ele>
        <time>2015-05-05T20:09:54Z</time>
      </trkpt>
      <trkpt lat="59.32621" lon="17.903914">
        <ele>8.2</ele>
        <time>2015-05-05T20:09:55Z</time>
      </trkpt>
      <trkpt lat="59.32624" lon="17.904015">
        <ele>8</ele>
        <time>2015-05-05T20:09:56Z</time>
      </trkpt>
      <trkpt lat="59.326272" lon="17.904136">
        <ele>7.9</ele>
        <time>2015-05-05T20:09:57Z</time>
      </trkpt>
      <trkpt lat="59.326303" lon="17.904238">
        <ele>7.9</ele>
        <time>2015-05-05T20:09:58Z</time>
      </trkpt>
      <trkpt lat="59.326337" lon="17.904345">
        <ele>7.8</ele>
        <time>2015-05-05T20:09:59Z</time>
      </trkpt>
      <trkpt lat="59.326367" lon="17.904436">
        <ele>7.7</ele>
        <time>2015-05-05T20:10:00Z</time>
      </trkpt>
      <trkpt lat="59.326389" lon="17.904508">
        <ele>7.7</ele>
        <time>2015-05-05T20:10:01Z</time>
      </trkpt>
      <trkpt lat="59.326416" lon="17.9046">
        <ele>7.6</ele>
        <time>2015-05-05T20:10:02Z</time>
      </trkpt>
      <trkpt lat="59.326445" lon="17.904698">
        <ele>7.5</ele>
        <time>2015-05-05T20:10:03Z</time>
      </trkpt>
      <trkpt lat="59.326473" lon="17.904794">
        <ele>7.5</ele>
        <time>2015-05-05T20:10:04Z</time>
      </trkpt>
      <trkpt lat="59.326493" lon="17.904891">
        <ele>7.4</ele>
        <time>2015-05-05T20:10:05Z</time>
      </trkpt>
      <trkpt lat="59.326518" lon="17.90499">
        <ele>7.4</ele>
        <time>2015-05-05T20:10:06Z</time>
      </trkpt>
      <trkpt lat="59.326544" lon="17.90508">
        <ele>7.3</ele>
        <time>2015-05-05T20:10:07Z</time>
      </trkpt>
      <trkpt lat="59.32656" lon="17.905167">
        <ele>7.3</ele>
        <time>2015-05-05T20:10:08Z</time>
      </trkpt>
      <trkpt lat="59.326588" lon="17.905267">
        <ele>7.2</ele>
        <time>2015-05-05T20:10:09Z</time>
      </trkpt>
      <trkpt lat="59.326614" lon="17.905372">
        <ele>7.1</ele>
        <time>2015-05-05T20:10:10Z</time>
      </trkpt>
      <trkpt lat="59.32664" lon="17.905458">
        <ele>7.1</ele>
        <time>2015-05-05T20:10:11Z</time>
      </trkpt>
      <trkpt lat="59.326664" lon="17.905538">
        <ele>7</ele>
        <time>2015-05-05T20:10:12Z</time>
      </trkpt>
      <trkpt lat="59.326693" lon="17.905634">
        <ele>6.9</ele>
        <time>2015-05-05T20:10:13Z</time>
      </trkpt>
      <trkpt lat="59.326719" lon="17.905718">
        <ele>6.9</ele>
        <time>2015-05-05T20:10:14Z</time>
      </trkpt>
      <trkpt lat="59.326743" lon="17.905825">
        <ele>6.8</ele>
        <time>2015-05-05T20:10:15Z</time>
      </trkpt>
      <trkpt lat="59.326766" lon="17.905908">
        <ele>6.8</ele>
        <time>2015-05-05T20:10:16Z</time>
      </trkpt>
      <trkpt lat="59.326783" lon="17.906015">
        <ele>6.7</ele>
        <time>2015-05-05T20:10:17Z</time>
      </trkpt>
      <trkpt lat="59.326812" lon="17.906121">
        <ele>6.7</ele>
        <time>2015-05-05T20:10:18Z</time>
      </trkpt>
      <trkpt lat="59.326837" lon="17.906205">
        <ele>6.6</ele>
        <time>2015-05-05T20:10:19Z</time>
      </trkpt>
      <trkpt lat="59.326853" lon="17.906294">
        <ele>6.5</ele>
        <time>2015-05-05T20:10:20Z</time>
      </trkpt>
      <trkpt lat="59.326878" lon="17.906394">
        <ele>6.4</ele>
        <time>2015-05-05T20:10:21Z</time>
      </trkpt>
      <trkpt lat="59.326898" lon="17.906466">
        <ele>6.2</ele>
        <time>2015-05-05T20:10:22Z</time>
      </trkpt>
      <trkpt lat="59.32692" lon="17.906554">
        <ele>6.1</ele>
        <time>2015-05-05T20:10:23Z</time>
      </trkpt>
      <trkpt lat="59.326944" lon="17.906627">
        <ele>6</ele>
        <time>2015-05-05T20:10:24Z</time>
      </trkpt>
      <trkpt lat="59.326966" lon="17.906713">
        <ele>5.8</ele>
        <time>2015-05-05T20:10:25Z</time>
      </trkpt>
      <trkpt lat="59.326989" lon="17.906818">
        <ele>5.6</ele>
        <time>2015-05-05T20:10:26Z</time>
      </trkpt>
      <trkpt lat="59.327011" lon="17.906896">
        <ele>5.5</ele>
        <time>2015-05-05T20:10:27Z</time>
      </trkpt>
      <trkpt lat="59.327034" lon="17.90697">
        <ele>5.3</ele>
        <time>2015-05-05T20:10:28Z</time>
      </trkpt>
      <trkpt lat="59.327057" lon="17.907046">
        <ele>5.1</ele>
        <time>2015-05-05T20:10:29Z</time>
      </trkpt>
      <trkpt lat="59.327077" lon="17.907114">
        <ele>5</ele>
        <time>2015-05-05T20:10:30Z</time>
      </trkpt>
      <trkpt lat="59.3271" lon="17.9072">
        <ele>4.8</ele>
        <time>2015-05-05T20:10:31Z</time>
      </trkpt>
      <trkpt lat="59.327123" lon="17.907289">
        <ele>4.7</ele>
        <time>2015-05-05T20:10:32Z</time>
      </trkpt>
      <trkpt lat="59.327147" lon="17.907365">
        <ele>4.5</ele>
        <time>2015-05-05T20:10:33Z</time>
      </trkpt>
      <trkpt lat="59.327176" lon="17.907495">
        <ele>4.3</ele>
        <time>2015-05-05T20:10:34Z</time>
      </trkpt>
      <trkpt lat="59.327196" lon="17.90758">
        <ele>4.2</ele>
        <time>2015-05-05T20:10:35Z</time>
      </trkpt>
      <trkpt lat="59.32722" lon="17.90767">
        <ele>4.1</ele>
        <time>2015-05-05T20:10:36Z</time>
      </trkpt>
      <trkpt lat="59.327239" lon="17.907768">
        <ele>4</ele>
        <time>2015-05-05T20:10:37Z</time>
      </trkpt>
      <trkpt lat="59.327267" lon="17.907854">
        <ele>3.8</ele>
        <time>2015-05-05T20:10:38Z</time>
      </trkpt>
      <trkpt lat="59.327286" lon="17.907942">
        <ele>3.7</ele>
        <time>2015-05-05T20:10:39Z</time>
      </trkpt>
      <trkpt lat="59.32731" lon="17.908024">
        <ele>3.6</ele>
        <time>2015-05-05T20:10:40Z</time>
      </trkpt>
      <trkpt lat="59.327323" lon="17.908119">
        <ele>3.5</ele>
        <time>2015-05-05T20:10:41Z</time>
      </trkpt>
      <trkpt lat="59.327354" lon="17.908217">
        <ele>3.4</ele>
        <time>2015-05-05T20:10:42Z</time>
      </trkpt>
      <trkpt lat="59.32738" lon="17.908299">
        <ele>3.3</ele>
        <time>2015-05-05T20:10:43Z</time>
      </trkpt>
      <trkpt lat="59.327395" lon="17.908374">
        <ele>3.3</ele>
        <time>2015-05-05T20:10:44Z</time>
      </trkpt>
      <trkpt lat="59.327421" lon="17.908435">
        <ele>3.2</ele>
        <time>2015-05-05T20:10:45Z</time>
      </trkpt>
      <trkpt lat="59.327444" lon="17.908514">
        <ele>3.2</ele>
        <time>2015-05-05T20:10:46Z</time>
      </trkpt>
      <trkpt lat="59.327462" lon="17.908592">
        <ele>3.1</ele>
        <time>2015-05-05T20:10:47Z</time>
      </trkpt>
      <trkpt lat="59.327487" lon="17.908677">
        <ele>3</ele>
        <time>2015-05-05T20:10:48Z</time>
      </trkpt>
      <trkpt lat="59.327509" lon="17.90876">
        <ele>3</ele>
        <time>2015-05-05T20:10:49Z</time>
      </trkpt>
      <trkpt lat="59.327531" lon="17.908832">
        <ele>3</ele>
        <time>2015-05-05T20:10:50Z</time>
      </trkpt>
      <trkpt lat="59.327555" lon="17.908929">
        <ele>3</ele>
        <time>2015-05-05T20:10:51Z</time>
      </trkpt>
      <trkpt lat="59.327568" lon="17.909024">
        <ele>3</ele>
        <time>2015-05-05T20:10:52Z</time>
      </trkpt>
      <trkpt lat="59.327583" lon="17.909121">
        <ele>3</ele>
        <time>2015-05-05T20:10:53Z</time>
      </trkpt>
      <trkpt lat="59.327606" lon="17.909193">
        <ele>3</ele>
        <time>2015-05-05T20:10:54Z</time>
      </trkpt>
      <trkpt lat="59.327628" lon="17.909262">
        <ele>3</ele>
        <time>2015-05-05T20:10:55Z</time>
      </trkpt>
      <trkpt lat="59.327646" lon="17.909316">
        <ele>3</ele>
        <time>2015-05-05T20:10:56Z</time>
      </trkpt>
      <trkpt lat="59.327668" lon="17.909397">
        <ele>3</ele>
        <time>2015-05-05T20:10:57Z</time>
      </trkpt>
      <trkpt lat="59.327695" lon="17.909516">
        <ele>3</ele>
        <time>2015-05-05T20:10:58Z</time>
      </trkpt>
      <trkpt lat="59.327713" lon="17.909579">
        <ele>3</ele>
        <time>2015-05-05T20:10:59Z</time>
      </trkpt>
      <trkpt lat="59.327742" lon="17.909658">
        <ele>3</ele>
        <time>2015-05-05T20:11:00Z</time>
      </trkpt>
      <trkpt lat="59.327769" lon="17.909764">
        <ele>3</ele>
        <time>2015-05-05T20:11:01Z</time>
      </trkpt>
      <trkpt lat="59.327788" lon="17.909828">
        <ele>3</ele>
        <time>2015-05-05T20:11:02Z</time>
      </trkpt>
      <trkpt lat="59.327826" lon="17.909901">
        <ele>3</ele>
        <time>2015-05-05T20:11:03Z</time>
      </trkpt>
      <trkpt lat="59.32785" lon="17.909989">
        <ele>3</ele>
        <time>2015-05-05T20:11:04Z</time>
      </trkpt>
      <trkpt lat="59.327862" lon="17.910058">
        <ele>3</ele>
        <time>2015-05-05T20:11:05Z</time>
      </trkpt>
      <trkpt lat="59.327879" lon="17.910141">
        <ele>3</ele>
        <time>2015-05-05T20:11:06Z</time>
      </trkpt>
      <trkpt lat="59.327905" lon="17.910258">
        <ele>3</ele>
        <time>2015-05-05T20:11:07Z</time>
      </trkpt>
      <trkpt lat="59.327933" lon="17.91033">
        <ele>3</ele>
        <time>2015-05-05T20:11:08Z</time>
      </trkpt>
      <trkpt lat="59.327952" lon="17.910407">
        <ele>2.9</ele>
        <time>2015-05-05T20:11:09Z</time>
      </trkpt>
      <trkpt lat="59.327979" lon="17.910498">
        <ele>2.9</ele>
        <time>2015-05-05T20:11:10Z</time>
      </trkpt>
      <trkpt lat="59.327991" lon="17.910619">
        <ele>2.9</ele>
        <time>2015-05-05T20:11:11Z</time>
      </trkpt>
      <trkpt lat="59.328014" lon="17.910725">
        <ele>2.9</ele>
        <time>2015-05-05T20:11:12Z</time>
      </trkpt>
      <trkpt lat="59.32804" lon="17.910792">
        <ele>2.9</ele>
        <time>2015-05-05T20:11:13Z</time>
      </trkpt>
      <trkpt lat="59.328067" lon="17.910887">
        <ele>2.9</ele>
        <time>2015-05-05T20:11:14Z</time>
      </trkpt>
      <trkpt lat="59.328087" lon="17.910964">
        <ele>3</ele>
        <time>2015-05-05T20:11:15Z</time>
      </trkpt>
      <trkpt lat="59.328109" lon="17.911067">
        <ele>3.1</ele>
        <time>2015-05-05T20:11:16Z</time>
      </trkpt>
      <trkpt lat="59.328126" lon="17.911164">
        <ele>3.2</ele>
        <time>2015-05-05T20:11:17Z</time>
      </trkpt>
      <trkpt lat="59.328153" lon="17.911237">
        <ele>3.3</ele>
        <time>2015-05-05T20:11:18Z</time>
      </trkpt>
      <trkpt lat="59.328174" lon="17.911315">
        <ele>3.4</ele>
        <time>2015-05-05T20:11:19Z</time>
      </trkpt>
      <trkpt lat="59.328206" lon="17.911392">
        <ele>3.5</ele>
        <time>2015-05-05T20:11:20Z</time>
      </trkpt>
      <trkpt lat="59.328232" lon="17.911478">
        <ele>3.7</ele>
        <time>2015-05-05T20:11:21Z</time>
      </trkpt>
      <trkpt lat="59.328267" lon="17.911575">
        <ele>3.9</ele>
        <time>2015-05-05T20:11:22Z</time>
      </trkpt>
      <trkpt lat="59.328298" lon="17.911675">
        <ele>4.2</ele>
        <time>2015-05-05T20:11:23Z</time>
      </trkpt>
      <trkpt lat="59.328314" lon="17.911762">
        <ele>4.4</ele>
        <time>2015-05-05T20:11:24Z</time>
      </trkpt>
      <trkpt lat="59.328357" lon="17.911867">
        <ele>4.7</ele>
        <time>2015-05-05T20:11:25Z</time>
      </trkpt>
      <trkpt lat="59.328381" lon="17.912001">
        <ele>5.1</ele>
        <time>2015-05-05T20:11:26Z</time>
      </trkpt>
      <trkpt lat="59.328408" lon="17.91209">
        <ele>5.4</ele>
        <time>2015-05-05T20:11:27Z</time>
      </trkpt>
      <trkpt lat="59.328435" lon="17.912169">
        <ele>5.7</ele>
        <time>2015-05-05T20:11:28Z</time>
      </trkpt>
      <trkpt lat="59.328461" lon="17.912245">
        <ele>6</ele>
        <time>2015-05-05T20:11:29Z</time>
      </trkpt>
      <trkpt lat="59.328491" lon="17.912338">
        <ele>6.4</ele>
        <time>2015-05-05T20:11:30Z</time>
      </trkpt>
      <trkpt lat="59.328518" lon="17.912444">
        <ele>6.8</ele>
        <time>2015-05-05T20:11:31Z</time>
      </trkpt>
      <trkpt lat="59.328541" lon="17.912585">
        <ele>7.3</ele>
        <time>2015-05-05T20:11:32Z</time>
      </trkpt>
      <trkpt lat="59.328575" lon="17.912693">
        <ele>7.9</ele>
        <time>2015-05-05T20:11:33Z</time>
      </trkpt>
      <trkpt lat="59.328605" lon="17.912793">
        <ele>8.4</ele>
        <time>2015-05-05T20:11:34Z</time>
      </trkpt>
      <trkpt lat="59.328642" lon="17.912907">
        <ele>9.1</ele>
        <time>2015-05-05T20:11:35Z</time>
      </trkpt>
      <trkpt lat="59.328676" lon="17.913013">
        <ele>9.8</ele>
        <time>2015-05-05T20:11:36Z</time>
      </trkpt>
      <trkpt lat="59.328705" lon="17.913106">
        <ele>10.5</ele>
        <time>2015-05-05T20:11:37Z</time>
      </trkpt>
      <trkpt lat="59.328737" lon="17.913208">
        <ele>11.3</ele>
        <time>2015-05-05T20:11:38Z</time>
      </trkpt>
      <trkpt lat="59.328767" lon="17.91331">
        <ele>12</ele>
        <time>2015-05-05T20:11:39Z</time>
      </trkpt>
      <trkpt lat="59.328798" lon="17.913435">
        <ele>12.9</ele>
        <time>2015-05-05T20:11:40Z</time>
      </trkpt>
      <trkpt lat="59.328825" lon="17.913555">
        <ele>13.7</ele>
        <time>2015-05-05T20:11:41Z</time>
      </trkpt>
      <trkpt lat="59.328851" lon="17.913663">
        <ele>14.4</ele>
        <time>2015-05-05T20:11:42Z</time>
      </trkpt>
      <trkpt lat="59.328884" lon="17.913784">
        <ele>15.3</ele>
        <time>2015-05-05T20:11:43Z</time>
      </trkpt>
      <trkpt lat="59.328918" lon="17.913898">
        <ele>16.2</ele>
        <time>2015-05-05T20:11:44Z</time>
      </trkpt>
      <trkpt lat="59.328951" lon="17.914004">
        <ele>17.1</ele>
        <time>2015-05-05T20:11:45Z</time>
      </trkpt>
      <trkpt lat="59.328981" lon="17.914131">
        <ele>18</ele>
        <time>2015-05-05T20:11:46Z</time>
      </trkpt>
      <trkpt lat="59.329008" lon="17.914248">
        <ele>18.8</ele>
        <time>2015-05-05T20:11:47Z</time>
      </trkpt>
      <trkpt lat="59.329035" lon="17.914356">
        <ele>19.5</ele>
        <time>2015-05-05T20:11:48Z</time>
      </trkpt>
      <trkpt lat="59.329061" lon="17.914461">
        <ele>20.2</ele>
        <time>2015-05-05T20:11:49Z</time>
      </trkpt>
      <trkpt lat="59.329091" lon="17.914573">
        <ele>21</ele>
        <time>2015-05-05T20:11:50Z</time>
      </trkpt>
      <trkpt lat="59.329111" lon="17.914684">
        <ele>21.8</ele>
        <time>2015-05-05T20:11:51Z</time>
      </trkpt>
      <trkpt lat="59.329142" lon="17.914791">
        <ele>22.6</ele>
        <time>2015-05-05T20:11:52Z</time>
      </trkpt>
      <trkpt lat="59.329167" lon="17.914902">
        <ele>23.4</ele>
        <time>2015-05-05T20:11:53Z</time>
      </trkpt>
      <trkpt lat="59.329201" lon="17.915012">
        <ele>24.2</ele>
        <time>2015-05-05T20:11:54Z</time>
      </trkpt>
      <trkpt lat="59.329236" lon="17.915109">
        <ele>25</ele>
        <time>2015-05-05T20:11:55Z</time>
      </trkpt>
      <trkpt lat="59.32927" lon="17.915207">
        <ele>25.7</ele>
        <time>2015-05-05T20:11:56Z</time>
      </trkpt>
      <trkpt lat="59.329296" lon="17.915298">
        <ele>26.3</ele>
        <time>2015-05-05T20:11:57Z</time>
      </trkpt>
      <trkpt lat="59.32933" lon="17.915405">
        <ele>27</ele>
        <time>2015-05-05T20:11:58Z</time>
      </trkpt>
      <trkpt lat="59.329362" lon="17.915512">
        <ele>27.4</ele>
        <time>2015-05-05T20:11:59Z</time>
      </trkpt>
      <trkpt lat="59.329396" lon="17.915607">
        <ele>27.8</ele>
        <time>2015-05-05T20:12:00Z</time>
      </trkpt>
      <trkpt lat="59.32943" lon="17.915663">
        <ele>28</ele>
        <time>2015-05-05T20:12:01Z</time>
      </trkpt>
      <trkpt lat="59.329464" lon="17.915739">
        <ele>28.3</ele>
        <time>2015-05-05T20:12:02Z</time>
      </trkpt>
      <trkpt lat="59.329507" lon="17.915836">
        <ele>28.7</ele>
        <time>2015-05-05T20:12:03Z</time>
      </trkpt>
      <trkpt lat="59.329549" lon="17.915915">
        <ele>29.1</ele>
        <time>2015-05-05T20:12:04Z</time>
      </trkpt>
      <trkpt lat="59.329595" lon="17.915992">
        <ele>29.5</ele>
        <time>2015-05-05T20:12:05Z</time>
      </trkpt>
      <trkpt lat="59.329638" lon="17.91607">
        <ele>29.9</ele>
        <time>2015-05-05T20:12:06Z</time>
      </trkpt>
      <trkpt lat="59.329676" lon="17.916156">
        <ele>30.3</ele>
        <time>2015-05-05T20:12:07Z</time>
      </trkpt>
      <trkpt lat="59.329712" lon="17.916241">
        <ele>30.6</ele>
        <time>2015-05-05T20:12:08Z</time>
      </trkpt>
      <trkpt lat="59.329741" lon="17.916338">
        <ele>31</ele>
        <time>2015-05-05T20:12:09Z</time>
      </trkpt>
      <trkpt lat="59.329791" lon="17.916447">
        <ele>31.4</ele>
        <time>2015-05-05T20:12:10Z</time>
      </trkpt>
      <trkpt lat="59.329817" lon="17.916549">
        <ele>31.6</ele>
        <time>2015-05-05T20:12:11Z</time>
      </trkpt>
      <trkpt lat="59.329842" lon="17.916641">
        <ele>31.8</ele>
        <time>2015-05-05T20:12:12Z</time>
      </trkpt>
      <trkpt lat="59.32988" lon="17.916758">
        <ele>32</ele>
        <time>2015-05-05T20:12:13Z</time>
      </trkpt>
      <trkpt lat="59.329918" lon="17.916866">
        <ele>32</ele>
        <time>2015-05-05T20:12:14Z</time>
      </trkpt>
      <trkpt lat="59.329939" lon="17.916905">
        <ele>32.1</ele>
        <time>2015-05-05T20:12:15Z</time>
      </trkpt>
      <trkpt lat="59.329955" lon="17.917008">
        <ele>32.1</ele>
        <time>2015-05-05T20:12:16Z</time>
      </trkpt>
      <trkpt lat="59.329993" lon="17.917092">
        <ele>32</ele>
        <time>2015-05-05T20:12:17Z</time>
      </trkpt>
      <trkpt lat="59.330029" lon="17.917191">
        <ele>32</ele>
        <time>2015-05-05T20:12:18Z</time>
      </trkpt>
      <trkpt lat="59.330072" lon="17.917294">
        <ele>31.9</ele>
        <time>2015-05-05T20:12:19Z</time>
      </trkpt>
      <trkpt lat="59.330106" lon="17.917377">
        <ele>31.9</ele>
        <time>2015-05-05T20:12:20Z</time>
      </trkpt>
      <trkpt lat="59.33014" lon="17.917452">
        <ele>31.8</ele>
        <time>2015-05-05T20:12:21Z</time>
      </trkpt>
      <trkpt lat="59.330182" lon="17.917536">
        <ele>31.7</ele>
        <time>2015-05-05T20:12:22Z</time>
      </trkpt>
      <trkpt lat="59.330227" lon="17.91762">
        <ele>31.6</ele>
        <time>2015-05-05T20:12:23Z</time>
      </trkpt>
      <trkpt lat="59.330267" lon="17.917716">
        <ele>31.5</ele>
        <time>2015-05-05T20:12:24Z</time>
      </trkpt>
      <trkpt lat="59.330308" lon="17.917801">
        <ele>31.4</ele>
        <time>2015-05-05T20:12:25Z</time>
      </trkpt>
      <trkpt lat="59.330353" lon="17.917878">
        <ele>31.2</ele>
        <time>2015-05-05T20:12:26Z</time>
      </trkpt>
      <trkpt lat="59.330399" lon="17.917968">
        <ele>31.1</ele>
        <time>2015-05-05T20:12:27Z</time>
      </trkpt>
      <trkpt lat="59.330441" lon="17.918044">
        <ele>31.2</ele>
        <time>2015-05-05T20:12:28Z</time>
      </trkpt>
      <trkpt lat="59.330483" lon="17.918114">
        <ele>31.2</ele>
        <time>2015-05-05T20:12:29Z</time>
      </trkpt>
      <trkpt lat="59.330532" lon="17.91819">
        <ele>31.2</ele>
        <time>2015-05-05T20:12:30Z</time>
      </trkpt>
      <trkpt lat="59.330579" lon="17.918256">
        <ele>31.1</ele>
        <time>2015-05-05T20:12:31Z</time>
      </trkpt>
      <trkpt lat="59.330632" lon="17.918326">
        <ele>31</ele>
        <time>2015-05-05T20:12:32Z</time>
      </trkpt>
      <trkpt lat="59.330689" lon="17.918376">
        <ele>30.8</ele>
        <time>2015-05-05T20:12:33Z</time>
      </trkpt>
      <trkpt lat="59.330747" lon="17.918428">
        <ele>30.6</ele>
        <time>2015-05-05T20:12:34Z</time>
      </trkpt>
      <trkpt lat="59.330807" lon="17.91847">
        <ele>30.3</ele>
        <time>2015-05-05T20:12:35Z</time>
      </trkpt>
      <trkpt lat="59.33085" lon="17.918517">
        <ele>30</ele>
        <time>2015-05-05T20:12:36Z</time>
      </trkpt>
      <trkpt lat="59.330892" lon="17.918561">
        <ele>29.7</ele>
        <time>2015-05-05T20:12:37Z</time>
      </trkpt>
      <trkpt lat="59.330928" lon="17.918593">
        <ele>29.4</ele>
        <time>2015-05-05T20:12:38Z</time>
      </trkpt>
      <trkpt lat="59.330952" lon="17.918618">
        <ele>29.2</ele>
        <time>2015-05-05T20:12:39Z</time>
      </trkpt>
      <trkpt lat="59.330984" lon="17.918646">
        <ele>29</ele>
        <time>2015-05-05T20:12:40Z</time>
      </trkpt>
      <trkpt lat="59.331007" lon="17.918682">
        <ele>28.7</ele>
        <time>2015-05-05T20:12:41Z</time>
      </trkpt>
      <trkpt lat="59.331041" lon="17.918743">
        <ele>28.3</ele>
        <time>2015-05-05T20:12:42Z</time>
      </trkpt>
      <trkpt lat="59.331072" lon="17.918804">
        <ele>28.1</ele>
        <time>2015-05-05T20:12:43Z</time>
      </trkpt>
      <trkpt lat="59.331103" lon="17.918864">
        <ele>27.9</ele>
        <time>2015-05-05T20:12:44Z</time>
      </trkpt>
      <trkpt lat="59.331073" lon="17.918974">
        <ele>28.2</ele>
        <time>2015-05-05T20:12:45Z</time>
      </trkpt>
      <trkpt lat="59.331064" lon="17.919081">
        <ele>28.3</ele>
        <time>2015-05-05T20:12:46Z</time>
      </trkpt>
      <trkpt lat="59.331005" lon="17.919175">
        <ele>28.8</ele>
        <time>2015-05-05T20:12:47Z</time>
      </trkpt>
      <trkpt lat="59.330957" lon="17.919272">
        <ele>29.2</ele>
        <time>2015-05-05T20:12:48Z</time>
      </trkpt>
      <trkpt lat="59.330923" lon="17.919385">
        <ele>29.6</ele>
        <time>2015-05-05T20:12:49Z</time>
      </trkpt>
      <trkpt lat="59.330971" lon="17.91953">
        <ele>29.3</ele>
        <time>2015-05-05T20:12:50Z</time>
      </trkpt>
      <trkpt lat="59.331012" lon="17.919621">
        <ele>29</ele>
        <time>2015-05-05T20:12:51Z</time>
      </trkpt>
      <trkpt lat="59.331056" lon="17.919733">
        <ele>28.8</ele>
        <time>2015-05-05T20:12:52Z</time>
      </trkpt>
      <trkpt lat="59.33111" lon="17.919843">
        <ele>28.3</ele>
        <time>2015-05-05T20:12:53Z</time>
      </trkpt>
      <trkpt lat="59.331154" lon="17.919954">
        <ele>28</ele>
        <time>2015-05-05T20:12:54Z</time>
      </trkpt>
      <trkpt lat="59.331206" lon="17.920073">
        <ele>27.5</ele>
        <time>2015-05-05T20:12:55Z</time>
      </trkpt>
      <trkpt lat="59.331249" lon="17.920179">
        <ele>27</ele>
        <time>2015-05-05T20:12:56Z</time>
      </trkpt>
      <trkpt lat="59.331302" lon="17.920307">
        <ele>26.7</ele>
        <time>2015-05-05T20:12:57Z</time>
      </trkpt>
      <trkpt lat="59.331353" lon="17.920428">
        <ele>26.3</ele>
        <time>2015-05-05T20:12:58Z</time>
      </trkpt>
      <trkpt lat="59.33141" lon="17.920547">
        <ele>26.2</ele>
        <time>2015-05-05T20:12:59Z</time>
      </trkpt>
      <trkpt lat="59.331464" lon="17.920675">
        <ele>26.2</ele>
        <time>2015-05-05T20:13:00Z</time>
      </trkpt>
      <trkpt lat="59.331526" lon="17.920788">
        <ele>25.9</ele>
        <time>2015-05-05T20:13:01Z</time>
      </trkpt>
      <trkpt lat="59.33158" lon="17.920913">
        <ele>25.7</ele>
        <time>2015-05-05T20:13:02Z</time>
      </trkpt>
      <trkpt lat="59.331638" lon="17.921036">
        <ele>25.4</ele>
        <time>2015-05-05T20:13:03Z</time>
      </trkpt>
      <trkpt lat="59.331698" lon="17.921134">
        <ele>25</ele>
        <time>2015-05-05T20:13:04Z</time>
      </trkpt>
      <trkpt lat="59.331748" lon="17.92124">
        <ele>24.6</ele>
        <time>2015-05-05T20:13:05Z</time>
      </trkpt>
      <trkpt lat="59.331803" lon="17.921363">
        <ele>24.2</ele>
        <time>2015-05-05T20:13:06Z</time>
      </trkpt>
      <trkpt lat="59.33186" lon="17.92147">
        <ele>23.6</ele>
        <time>2015-05-05T20:13:07Z</time>
      </trkpt>
      <trkpt lat="59.331905" lon="17.921592">
        <ele>23.2</ele>
        <time>2015-05-05T20:13:08Z</time>
      </trkpt>
      <trkpt lat="59.331962" lon="17.921704">
        <ele>22.5</ele>
        <time>2015-05-05T20:13:09Z</time>
      </trkpt>
      <trkpt lat="59.332012" lon="17.92182">
        <ele>21.9</ele>
        <time>2015-05-05T20:13:10Z</time>
      </trkpt>
      <trkpt lat="59.332064" lon="17.921925">
        <ele>21.3</ele>
        <time>2015-05-05T20:13:11Z</time>
      </trkpt>
      <trkpt lat="59.332113" lon="17.922036">
        <ele>20.9</ele>
        <time>2015-05-05T20:13:12Z</time>
      </trkpt>
      <trkpt lat="59.332162" lon="17.922155">
        <ele>21.3</ele>
        <time>2015-05-05T20:13:13Z</time>
      </trkpt>
      <trkpt lat="59.33221" lon="17.922263">
        <ele>21.8</ele>
        <time>2015-05-05T20:13:14Z</time>
      </trkpt>
      <trkpt lat="59.332263" lon="17.922378">
        <ele>22.2</ele>
        <time>2015-05-05T20:13:15Z</time>
      </trkpt>
      <trkpt lat="59.332311" lon="17.922493">
        <ele>22.6</ele>
        <time>2015-05-05T20:13:16Z</time>
      </trkpt>
      <trkpt lat="59.332352" lon="17.922613">
        <ele>22.9</ele>
        <time>2015-05-05T20:13:17Z</time>
      </trkpt>
      <trkpt lat="59.332402" lon="17.922731">
        <ele>23.1</ele>
        <time>2015-05-05T20:13:18Z</time>
      </trkpt>
      <trkpt lat="59.332451" lon="17.922845">
        <ele>23.2</ele>
        <time>2015-05-05T20:13:19Z</time>
      </trkpt>
      <trkpt lat="59.332509" lon="17.922969">
        <ele>23.1</ele>
        <time>2015-05-05T20:13:20Z</time>
      </trkpt>
      <trkpt lat="59.332559" lon="17.923073">
        <ele>23</ele>
        <time>2015-05-05T20:13:21Z</time>
      </trkpt>
      <trkpt lat="59.332611" lon="17.923194">
        <ele>22.9</ele>
        <time>2015-05-05T20:13:22Z</time>
      </trkpt>
      <trkpt lat="59.332664" lon="17.923313">
        <ele>22.6</ele>
        <time>2015-05-05T20:13:23Z</time>
      </trkpt>
      <trkpt lat="59.332714" lon="17.923427">
        <ele>22.3</ele>
        <time>2015-05-05T20:13:24Z</time>
      </trkpt>
      <trkpt lat="59.332774" lon="17.923536">
        <ele>21.7</ele>
        <time>2015-05-05T20:13:25Z</time>
      </trkpt>
      <trkpt lat="59.332831" lon="17.923645">
        <ele>21.1</ele>
        <time>2015-05-05T20:13:26Z</time>
      </trkpt>
      <trkpt lat="59.332885" lon="17.923764">
        <ele>20.5</ele>
        <time>2015-05-05T20:13:27Z</time>
      </trkpt>
      <trkpt lat="59.332937" lon="17.923872">
        <ele>20.4</ele>
        <time>2015-05-05T20:13:28Z</time>
      </trkpt>
      <trkpt lat="59.332984" lon="17.923995">
        <ele>20.8</ele>
        <time>2015-05-05T20:13:29Z</time>
      </trkpt>
      <trkpt lat="59.333036" lon="17.924109">
        <ele>21</ele>
        <time>2015-05-05T20:13:30Z</time>
      </trkpt>
      <trkpt lat="59.333094" lon="17.924233">
        <ele>21.2</ele>
        <time>2015-05-05T20:13:31Z</time>
      </trkpt>
      <trkpt lat="59.333145" lon="17.924355">
        <ele>21.4</ele>
        <time>2015-05-05T20:13:32Z</time>
      </trkpt>
      <trkpt lat="59.333188" lon="17.924483">
        <ele>21.5</ele>
        <time>2015-05-05T20:13:33Z</time>
      </trkpt>
      <trkpt lat="59.33324" lon="17.924599">
        <ele>21.5</ele>
        <time>2015-05-05T20:13:34Z</time>
      </trkpt>
      <trkpt lat="59.333292" lon="17.924694">
        <ele>21.3</ele>
        <time>2015-05-05T20:13:35Z</time>
      </trkpt>
      <trkpt lat="59.333334" lon="17.924807">
        <ele>21.1</ele>
        <time>2015-05-05T20:13:36Z</time>
      </trkpt>
      <trkpt lat="59.333378" lon="17.924913">
        <ele>20.9</ele>
        <time>2015-05-05T20:13:37Z</time>
      </trkpt>
      <trkpt lat="59.333422" lon="17.925021">
        <ele>20.6</ele>
        <time>2015-05-05T20:13:38Z</time>
      </trkpt>
      <trkpt lat="59.333472" lon="17.925114">
        <ele>20.1</ele>
        <time>2015-05-05T20:13:39Z</time>
      </trkpt>
      <trkpt lat="59.333506" lon="17.925206">
        <ele>19.8</ele>
        <time>2015-05-05T20:13:40Z</time>
      </trkpt>
      <trkpt lat="59.33355" lon="17.925308">
        <ele>19.3</ele>
        <time>2015-05-05T20:13:41Z</time>
      </trkpt>
      <trkpt lat="59.333607" lon="17.925433">
        <ele>18.6</ele>
        <time>2015-05-05T20:13:42Z</time>
      </trkpt>
      <trkpt lat="59.333658" lon="17.92554">
        <ele>18.2</ele>
        <time>2015-05-05T20:13:43Z</time>
      </trkpt>
      <trkpt lat="59.333718" lon="17.92565">
        <ele>17.6</ele>
        <time>2015-05-05T20:13:44Z</time>
      </trkpt>
      <trkpt lat="59.333772" lon="17.925756">
        <ele>17.4</ele>
        <time>2015-05-05T20:13:45Z</time>
      </trkpt>
      <trkpt lat="59.333821" lon="17.925876">
        <ele>17.5</ele>
        <time>2015-05-05T20:13:46Z</time>
      </trkpt>
      <trkpt lat="59.333875" lon="17.925993">
        <ele>17.6</ele>
        <time>2015-05-05T20:13:47Z</time>
      </trkpt>
      <trkpt lat="59.333921" lon="17.926113">
        <ele>17.7</ele>
        <time>2015-05-05T20:13:48Z</time>
      </trkpt>
      <trkpt lat="59.333968" lon="17.92621">
        <ele>17.7</ele>
        <time>2015-05-05T20:13:49Z</time>
      </trkpt>
      <trkpt lat="59.334019" lon="17.92632">
        <ele>17.7</ele>
        <time>2015-05-05T20:13:50Z</time>
      </trkpt>
      <trkpt lat="59.334072" lon="17.926415">
        <ele>17.6</ele>
        <time>2015-05-05T20:13:51Z</time>
      </trkpt>
      <trkpt lat="59.334117" lon="17.926529">
        <ele>17.5</ele>
        <time>2015-05-05T20:13:52Z</time>
      </trkpt>
      <trkpt lat="59.334164" lon="17.926643">
        <ele>17.3</ele>
        <time>2015-05-05T20:13:53Z</time>
      </trkpt>
      <trkpt lat="59.334214" lon="17.926748">
        <ele>17</ele>
        <time>2015-05-05T20:13:54Z</time>
      </trkpt>
      <trkpt lat="59.334266" lon="17.926856">
        <ele>16.8</ele>
        <time>2015-05-05T20:13:55Z</time>
      </trkpt>
      <trkpt lat="59.334311" lon="17.92699">
        <ele>16.4</ele>
        <time>2015-05-05T20:13:56Z</time>
      </trkpt>
      <trkpt lat="59.334361" lon="17.92711">
        <ele>16.1</ele>
        <time>2015-05-05T20:13:57Z</time>
      </trkpt>
      <trkpt lat="59.334428" lon="17.92723">
        <ele>15.7</ele>
        <time>2015-05-05T20:13:58Z</time>
      </trkpt>
      <trkpt lat="59.334485" lon="17.927344">
        <ele>15.5</ele>
        <time>2015-05-05T20:13:59Z</time>
      </trkpt>
      <trkpt lat="59.33454" lon="17.927449">
        <ele>15.2</ele>
        <time>2015-05-05T20:14:00Z</time>
      </trkpt>
      <trkpt lat="59.334585" lon="17.927557">
        <ele>15</ele>
        <time>2015-05-05T20:14:01Z</time>
      </trkpt>
      <trkpt lat="59.334636" lon="17.927678">
        <ele>15</ele>
        <time>2015-05-05T20:14:02Z</time>
      </trkpt>
      <trkpt lat="59.334687" lon="17.9278">
        <ele>14.9</ele>
        <time>2015-05-05T20:14:03Z</time>
      </trkpt>
      <trkpt lat="59.334719" lon="17.927954">
        <ele>14.8</ele>
        <time>2015-05-05T20:14:04Z</time>
      </trkpt>
      <trkpt lat="59.334778" lon="17.928072">
        <ele>14.7</ele>
        <time>2015-05-05T20:14:05Z</time>
      </trkpt>
      <trkpt lat="59.334829" lon="17.928186">
        <ele>14.6</ele>
        <time>2015-05-05T20:14:06Z</time>
      </trkpt>
      <trkpt lat="59.334871" lon="17.928321">
        <ele>14.5</ele>
        <time>2015-05-05T20:14:07Z</time>
      </trkpt>
      <trkpt lat="59.334926" lon="17.928416">
        <ele>14.3</ele>
        <time>2015-05-05T20:14:08Z</time>
      </trkpt>
      <trkpt lat="59.334977" lon="17.928527">
        <ele>14.2</ele>
        <time>2015-05-05T20:14:09Z</time>
      </trkpt>
      <trkpt lat="59.33503" lon="17.928622">
        <ele>14</ele>
        <time>2015-05-05T20:14:10Z</time>
      </trkpt>
      <trkpt lat="59.335078" lon="17.928733">
        <ele>13.8</ele>
        <time>2015-05-05T20:14:11Z</time>
      </trkpt>
      <trkpt lat="59.335128" lon="17.928834">
        <ele>13.7</ele>
        <time>2015-05-05T20:14:12Z</time>
      </trkpt>
      <trkpt lat="59.335176" lon="17.928943">
        <ele>13.6</ele>
        <time>2015-05-05T20:14:13Z</time>
      </trkpt>
      <trkpt lat="59.335226" lon="17.929044">
        <ele>13.5</ele>
        <time>2015-05-05T20:14:14Z</time>
      </trkpt>
      <trkpt lat="59.335275" lon="17.929154">
        <ele>13.3</ele>
        <time>2015-05-05T20:14:15Z</time>
      </trkpt>
      <trkpt lat="59.335322" lon="17.929254">
        <ele>13.2</ele>
        <time>2015-05-05T20:14:16Z</time>
      </trkpt>
      <trkpt lat="59.335368" lon="17.92936">
        <ele>13.1</ele>
        <time>2015-05-05T20:14:17Z</time>
      </trkpt>
      <trkpt lat="59.335411" lon="17.929451">
        <ele>13</ele>
        <time>2015-05-05T20:14:18Z</time>
      </trkpt>
      <trkpt lat="59.335455" lon="17.92955">
        <ele>13</ele>
        <time>2015-05-05T20:14:19Z</time>
      </trkpt>
      <trkpt lat="59.335475" lon="17.929607">
        <ele>13</ele>
        <time>2015-05-05T20:14:20Z</time>
      </trkpt>
      <trkpt lat="59.335516" lon="17.929681">
        <ele>13</ele>
        <time>2015-05-05T20:14:21Z</time>
      </trkpt>
      <trkpt lat="59.335555" lon="17.929753">
        <ele>13</ele>
        <time>2015-05-05T20:14:22Z</time>
      </trkpt>
      <trkpt lat="59.335586" lon="17.929805">
        <ele>13.1</ele>
        <time>2015-05-05T20:14:23Z</time>
      </trkpt>
      <trkpt lat="59.335615" lon="17.92984">
        <ele>13.1</ele>
        <time>2015-05-05T20:14:24Z</time>
      </trkpt>
      <trkpt lat="59.335644" lon="17.92991">
        <ele>13.1</ele>
        <time>2015-05-05T20:14:26Z</time>
      </trkpt>
      <trkpt lat="59.335662" lon="17.929967">
        <ele>13.1</ele>
        <time>2015-05-05T20:14:38Z</time>
      </trkpt>
      <trkpt lat="59.335687" lon="17.930012">
        <ele>13.2</ele>
        <time>2015-05-05T20:14:39Z</time>
      </trkpt>
      <trkpt lat="59.335709" lon="17.930056">
        <ele>13.2</ele>
        <time>2015-05-05T20:14:40Z</time>
      </trkpt>
      <trkpt lat="59.335736" lon="17.930126">
        <ele>13.2</ele>
        <time>2015-05-05T20:14:41Z</time>
      </trkpt>
      <trkpt lat="59.335761" lon="17.930195">
        <ele>13.3</ele>
        <time>2015-05-05T20:14:42Z</time>
      </trkpt>
      <trkpt lat="59.335805" lon="17.930318">
        <ele>13.4</ele>
        <time>2015-05-05T20:14:43Z</time>
      </trkpt>
      <trkpt lat="59.335852" lon="17.930428">
        <ele>13.5</ele>
        <time>2015-05-05T20:14:44Z</time>
      </trkpt>
      <trkpt lat="59.335888" lon="17.930502">
        <ele>13.6</ele>
        <time>2015-05-05T20:14:45Z</time>
      </trkpt>
      <trkpt lat="59.335927" lon="17.930598">
        <ele>13.7</ele>
        <time>2015-05-05T20:14:46Z</time>
      </trkpt>
      <trkpt lat="59.335967" lon="17.930713">
        <ele>13.9</ele>
        <time>2015-05-05T20:14:47Z</time>
      </trkpt>
      <trkpt lat="59.336006" lon="17.930822">
        <ele>14.1</ele>
        <time>2015-05-05T20:14:48Z</time>
      </trkpt>
      <trkpt lat="59.33605" lon="17.930916">
        <ele>14.2</ele>
        <time>2015-05-05T20:14:49Z</time>
      </trkpt>
      <trkpt lat="59.336096" lon="17.931013">
        <ele>14.4</ele>
        <time>2015-05-05T20:14:50Z</time>
      </trkpt>
      <trkpt lat="59.336169" lon="17.931045">
        <ele>14.6</ele>
        <time>2015-05-05T20:14:51Z</time>
      </trkpt>
      <trkpt lat="59.336206" lon="17.93113">
        <ele>14.8</ele>
        <time>2015-05-05T20:14:52Z</time>
      </trkpt>
      <trkpt lat="59.336247" lon="17.931219">
        <ele>15</ele>
        <time>2015-05-05T20:14:53Z</time>
      </trkpt>
      <trkpt lat="59.3363" lon="17.931334">
        <ele>15.1</ele>
        <time>2015-05-05T20:14:54Z</time>
      </trkpt>
      <trkpt lat="59.336344" lon="17.931447">
        <ele>15.3</ele>
        <time>2015-05-05T20:14:55Z</time>
      </trkpt>
      <trkpt lat="59.336387" lon="17.931531">
        <ele>15.3</ele>
        <time>2015-05-05T20:14:56Z</time>
      </trkpt>
      <trkpt lat="59.336435" lon="17.931642">
        <ele>15.3</ele>
        <time>2015-05-05T20:14:57Z</time>
      </trkpt>
      <trkpt lat="59.33649" lon="17.931749">
        <ele>15.2</ele>
        <time>2015-05-05T20:14:58Z</time>
      </trkpt>
      <trkpt lat="59.336542" lon="17.931868">
        <ele>15.1</ele>
        <time>2015-05-05T20:14:59Z</time>
      </trkpt>
      <trkpt lat="59.336585" lon="17.931992">
        <ele>14.9</ele>
        <time>2015-05-05T20:15:00Z</time>
      </trkpt>
      <trkpt lat="59.336631" lon="17.932109">
        <ele>14.7</ele>
        <time>2015-05-05T20:15:01Z</time>
      </trkpt>
      <trkpt lat="59.336685" lon="17.932238">
        <ele>14.5</ele>
        <time>2015-05-05T20:15:02Z</time>
      </trkpt>
      <trkpt lat="59.336735" lon="17.932362">
        <ele>14.2</ele>
        <time>2015-05-05T20:15:03Z</time>
      </trkpt>
      <trkpt lat="59.336785" lon="17.932499">
        <ele>14</ele>
        <time>2015-05-05T20:15:04Z</time>
      </trkpt>
      <trkpt lat="59.336834" lon="17.932623">
        <ele>13.7</ele>
        <time>2015-05-05T20:15:05Z</time>
      </trkpt>
      <trkpt lat="59.33688" lon="17.932791">
        <ele>13.4</ele>
        <time>2015-05-05T20:15:06Z</time>
      </trkpt>
      <trkpt lat="59.336937" lon="17.9329">
        <ele>13.1</ele>
        <time>2015-05-05T20:15:07Z</time>
      </trkpt>
      <trkpt lat="59.33699" lon="17.933022">
        <ele>12.8</ele>
        <time>2015-05-05T20:15:08Z</time>
      </trkpt>
      <trkpt lat="59.337049" lon="17.933122">
        <ele>12.5</ele>
        <time>2015-05-05T20:15:09Z</time>
      </trkpt>
      <trkpt lat="59.337103" lon="17.933217">
        <ele>12.3</ele>
        <time>2015-05-05T20:15:10Z</time>
      </trkpt>
      <trkpt lat="59.337158" lon="17.933321">
        <ele>12.2</ele>
        <time>2015-05-05T20:15:11Z</time>
      </trkpt>
      <trkpt lat="59.33719" lon="17.933467">
        <ele>12.2</ele>
        <time>2015-05-05T20:15:12Z</time>
      </trkpt>
      <trkpt lat="59.337246" lon="17.93357">
        <ele>12.1</ele>
        <time>2015-05-05T20:15:13Z</time>
      </trkpt>
      <trkpt lat="59.337303" lon="17.933685">
        <ele>11.9</ele>
        <time>2015-05-05T20:15:14Z</time>
      </trkpt>
      <trkpt lat="59.337354" lon="17.933827">
        <ele>11.7</ele>
        <time>2015-05-05T20:15:15Z</time>
      </trkpt>
      <trkpt lat="59.337404" lon="17.933928">
        <ele>11.5</ele>
        <time>2015-05-05T20:15:16Z</time>
      </trkpt>
      <trkpt lat="59.337454" lon="17.934029">
        <ele>11.2</ele>
        <time>2015-05-05T20:15:17Z</time>
      </trkpt>
      <trkpt lat="59.337502" lon="17.934093">
        <ele>11</ele>
        <time>2015-05-05T20:15:18Z</time>
      </trkpt>
      <trkpt lat="59.337539" lon="17.934251">
        <ele>10.8</ele>
        <time>2015-05-05T20:15:19Z</time>
      </trkpt>
      <trkpt lat="59.337585" lon="17.934363">
        <ele>10.6</ele>
        <time>2015-05-05T20:15:20Z</time>
      </trkpt>
      <trkpt lat="59.337632" lon="17.934475">
        <ele>10.4</ele>
        <time>2015-05-05T20:15:21Z</time>
      </trkpt>
      <trkpt lat="59.337658" lon="17.934552">
        <ele>10.2</ele>
        <time>2015-05-05T20:15:22Z</time>
      </trkpt>
      <trkpt lat="59.337702" lon="17.934678">
        <ele>10.1</ele>
        <time>2015-05-05T20:15:23Z</time>
      </trkpt>
      <trkpt lat="59.337754" lon="17.934788">
        <ele>9.9</ele>
        <time>2015-05-05T20:15:24Z</time>
      </trkpt>
      <trkpt lat="59.337787" lon="17.93489">
        <ele>9.9</ele>
        <time>2015-05-05T20:15:25Z</time>
      </trkpt>
      <trkpt lat="59.337836" lon="17.934986">
        <ele>9.8</ele>
        <time>2015-05-05T20:15:27Z</time>
      </trkpt>
      <trkpt lat="59.337896" lon="17.935095">
        <ele>9.7</ele>
        <time>2015-05-05T20:15:28Z</time>
      </trkpt>
      <trkpt lat="59.337955" lon="17.935217">
        <ele>10.1</ele>
        <time>2015-05-05T20:15:29Z</time>
      </trkpt>
      <trkpt lat="59.338003" lon="17.9353">
        <ele>10.6</ele>
        <time>2015-05-05T20:15:30Z</time>
      </trkpt>
      <trkpt lat="59.338065" lon="17.935449">
        <ele>11.2</ele>
        <time>2015-05-05T20:15:31Z</time>
      </trkpt>
      <trkpt lat="59.338103" lon="17.935555">
        <ele>11.5</ele>
        <time>2015-05-05T20:15:32Z</time>
      </trkpt>
      <trkpt lat="59.338143" lon="17.935656">
        <ele>11.7</ele>
        <time>2015-05-05T20:15:33Z</time>
      </trkpt>
      <trkpt lat="59.338182" lon="17.935728">
        <ele>12</ele>
        <time>2015-05-05T20:15:34Z</time>
      </trkpt>
      <trkpt lat="59.338229" lon="17.935833">
        <ele>12.2</ele>
        <time>2015-05-05T20:15:35Z</time>
      </trkpt>
      <trkpt lat="59.33827" lon="17.93594">
        <ele>12.4</ele>
        <time>2015-05-05T20:15:36Z</time>
      </trkpt>
      <trkpt lat="59.338303" lon="17.93602">
        <ele>12.6</ele>
        <time>2015-05-05T20:15:37Z</time>
      </trkpt>
      <trkpt lat="59.338353" lon="17.936115">
        <ele>12.8</ele>
        <time>2015-05-05T20:15:38Z</time>
      </trkpt>
      <trkpt lat="59.338405" lon="17.936209">
        <ele>13</ele>
        <time>2015-05-05T20:15:39Z</time>
      </trkpt>
      <trkpt lat="59.338446" lon="17.936317">
        <ele>13.1</ele>
        <time>2015-05-05T20:15:40Z</time>
      </trkpt>
      <trkpt lat="59.338496" lon="17.936451">
        <ele>13</ele>
        <time>2015-05-05T20:15:41Z</time>
      </trkpt>
      <trkpt lat="59.338535" lon="17.936549">
        <ele>13</ele>
        <time>2015-05-05T20:15:42Z</time>
      </trkpt>
      <trkpt lat="59.33858" lon="17.936637">
        <ele>13</ele>
        <time>2015-05-05T20:15:43Z</time>
      </trkpt>
      <trkpt lat="59.338633" lon="17.936724">
        <ele>12.9</ele>
        <time>2015-05-05T20:15:44Z</time>
      </trkpt>
      <trkpt lat="59.338673" lon="17.936812">
        <ele>12.8</ele>
        <time>2015-05-05T20:15:45Z</time>
      </trkpt>
      <trkpt lat="59.33871" lon="17.936885">
        <ele>12.6</ele>
        <time>2015-05-05T20:15:46Z</time>
      </trkpt>
      <trkpt lat="59.338736" lon="17.936942">
        <ele>12.5</ele>
        <time>2015-05-05T20:15:47Z</time>
      </trkpt>
      <trkpt lat="59.338767" lon="17.937026">
        <ele>12.3</ele>
        <time>2015-05-05T20:15:48Z</time>
      </trkpt>
      <trkpt lat="59.338795" lon="17.937069">
        <ele>12.2</ele>
        <time>2015-05-05T20:15:49Z</time>
      </trkpt>
      <trkpt lat="59.338817" lon="17.93715">
        <ele>12.2</ele>
        <time>2015-05-05T20:15:50Z</time>
      </trkpt>
      <trkpt lat="59.338849" lon="17.937227">
        <ele>12.2</ele>
        <time>2015-05-05T20:15:51Z</time>
      </trkpt>
      <trkpt lat="59.338898" lon="17.937325">
        <ele>12.3</ele>
        <time>2015-05-05T20:15:52Z</time>
      </trkpt>
      <trkpt lat="59.338936" lon="17.93739">
        <ele>12.4</ele>
        <time>2015-05-05T20:15:53Z</time>
      </trkpt>
      <trkpt lat="59.338967" lon="17.937471">
        <ele>12.4</ele>
        <time>2015-05-05T20:15:54Z</time>
      </trkpt>
      <trkpt lat="59.338998" lon="17.937553">
        <ele>12.4</ele>
        <time>2015-05-05T20:15:55Z</time>
      </trkpt>
      <trkpt lat="59.339024" lon="17.937612">
        <ele>12.4</ele>
        <time>2015-05-05T20:15:56Z</time>
      </trkpt>
      <trkpt lat="59.339076" lon="17.937736">
        <ele>12.5</ele>
        <time>2015-05-05T20:15:58Z</time>
      </trkpt>
      <trkpt lat="59.339081" lon="17.937805">
        <ele>12.5</ele>
        <time>2015-05-05T20:15:59Z</time>
      </trkpt>
      <trkpt lat="59.339072" lon="17.937942">
        <ele>12.4</ele>
        <time>2015-05-05T20:16:01Z</time>
      </trkpt>
      <trkpt lat="59.339071" lon="17.938039">
        <ele>12.3</ele>
        <time>2015-05-05T20:16:02Z</time>
      </trkpt>
      <trkpt lat="59.339058" lon="17.93812">
        <ele>12.2</ele>
        <time>2015-05-05T20:16:03Z</time>
      </trkpt>
      <trkpt lat="59.33904" lon="17.93821">
        <ele>12.1</ele>
        <time>2015-05-05T20:16:04Z</time>
      </trkpt>
      <trkpt lat="59.339035" lon="17.938293">
        <ele>12</ele>
        <time>2015-05-05T20:16:05Z</time>
      </trkpt>
      <trkpt lat="59.339057" lon="17.938355">
        <ele>12</ele>
        <time>2015-05-05T20:16:06Z</time>
      </trkpt>
      <trkpt lat="59.339096" lon="17.938382">
        <ele>12</ele>
        <time>2015-05-05T20:16:07Z</time>
      </trkpt>
      <trkpt lat="59.33913" lon="17.938429">
        <ele>11.9</ele>
        <time>2015-05-05T20:16:08Z</time>
      </trkpt>
      <trkpt lat="59.339168" lon="17.93846">
        <ele>11.8</ele>
        <time>2015-05-05T20:16:09Z</time>
      </trkpt>
      <trkpt lat="59.339203" lon="17.938482">
        <ele>11.8</ele>
        <time>2015-05-05T20:16:10Z</time>
      </trkpt>
      <trkpt lat="59.339235" lon="17.938497">
        <ele>11.8</ele>
        <time>2015-05-05T20:16:11Z</time>
      </trkpt>
      <trkpt lat="59.339258" lon="17.938557">
        <ele>11.7</ele>
        <time>2015-05-05T20:16:12Z</time>
      </trkpt>
      <trkpt lat="59.339224" lon="17.938784">
        <ele>11.5</ele>
        <time>2015-05-05T20:16:13Z</time>
      </trkpt>
      <trkpt lat="59.339194" lon="17.938886">
        <ele>11.7</ele>
        <time>2015-05-05T20:16:14Z</time>
      </trkpt>
      <trkpt lat="59.339174" lon="17.939006">
        <ele>11.9</ele>
        <time>2015-05-05T20:16:15Z</time>
      </trkpt>
      <trkpt lat="59.339152" lon="17.939109">
        <ele>12.2</ele>
        <time>2015-05-05T20:16:16Z</time>
      </trkpt>
      <trkpt lat="59.339136" lon="17.939223">
        <ele>12.5</ele>
        <time>2015-05-05T20:16:17Z</time>
      </trkpt>
      <trkpt lat="59.339121" lon="17.939339">
        <ele>12.7</ele>
        <time>2015-05-05T20:16:18Z</time>
      </trkpt>
      <trkpt lat="59.339108" lon="17.939447">
        <ele>13</ele>
        <time>2015-05-05T20:16:19Z</time>
      </trkpt>
      <trkpt lat="59.339107" lon="17.939544">
        <ele>13.2</ele>
        <time>2015-05-05T20:16:20Z</time>
      </trkpt>
      <trkpt lat="59.339106" lon="17.939636">
        <ele>13.4</ele>
        <time>2015-05-05T20:16:21Z</time>
      </trkpt>
      <trkpt lat="59.339114" lon="17.939717">
        <ele>13.6</ele>
        <time>2015-05-05T20:16:22Z</time>
      </trkpt>
      <trkpt lat="59.33912" lon="17.939795">
        <ele>13.8</ele>
        <time>2015-05-05T20:16:23Z</time>
      </trkpt>
      <trkpt lat="59.339142" lon="17.939832">
        <ele>13.8</ele>
        <time>2015-05-05T20:16:24Z</time>
      </trkpt>
      <trkpt lat="59.339169" lon="17.939871">
        <ele>13.7</ele>
        <time>2015-05-05T20:16:25Z</time>
      </trkpt>
      <trkpt lat="59.339218" lon="17.93986">
        <ele>13.3</ele>
        <time>2015-05-05T20:16:26Z</time>
      </trkpt>
      <trkpt lat="59.339263" lon="17.939852">
        <ele>13</ele>
        <time>2015-05-05T20:16:27Z</time>
      </trkpt>
      <trkpt lat="59.339308" lon="17.939846">
        <ele>12.7</ele>
        <time>2015-05-05T20:16:28Z</time>
      </trkpt>
      <trkpt lat="59.339342" lon="17.939871">
        <ele>12.6</ele>
        <time>2015-05-05T20:16:29Z</time>
      </trkpt>
      <trkpt lat="59.339383" lon="17.939924">
        <ele>12.4</ele>
        <time>2015-05-05T20:16:30Z</time>
      </trkpt>
      <trkpt lat="59.339429" lon="17.939983">
        <ele>12.1</ele>
        <time>2015-05-05T20:16:31Z</time>
      </trkpt>
      <trkpt lat="59.33945" lon="17.940073">
        <ele>12</ele>
        <time>2015-05-05T20:16:32Z</time>
      </trkpt>
      <trkpt lat="59.339448" lon="17.940209">
        <ele>12.1</ele>
        <time>2015-05-05T20:16:33Z</time>
      </trkpt>
      <trkpt lat="59.339446" lon="17.940304">
        <ele>12.2</ele>
        <time>2015-05-05T20:16:34Z</time>
      </trkpt>
      <trkpt lat="59.339402" lon="17.940436">
        <ele>12.8</ele>
        <time>2015-05-05T20:16:35Z</time>
      </trkpt>
      <trkpt lat="59.339376" lon="17.940561">
        <ele>13.1</ele>
        <time>2015-05-05T20:16:36Z</time>
      </trkpt>
      <trkpt lat="59.339352" lon="17.940692">
        <ele>13.5</ele>
        <time>2015-05-05T20:16:37Z</time>
      </trkpt>
      <trkpt lat="59.339329" lon="17.940816">
        <ele>13.8</ele>
        <time>2015-05-05T20:16:38Z</time>
      </trkpt>
      <trkpt lat="59.33931" lon="17.940951">
        <ele>14.1</ele>
        <time>2015-05-05T20:16:39Z</time>
      </trkpt>
      <trkpt lat="59.339287" lon="17.941061">
        <ele>14.3</ele>
        <time>2015-05-05T20:16:40Z</time>
      </trkpt>
      <trkpt lat="59.339263" lon="17.941179">
        <ele>14.6</ele>
        <time>2015-05-05T20:16:41Z</time>
      </trkpt>
      <trkpt lat="59.339249" lon="17.941305">
        <ele>14.8</ele>
        <time>2015-05-05T20:16:42Z</time>
      </trkpt>
      <trkpt lat="59.339237" lon="17.941448">
        <ele>14.9</ele>
        <time>2015-05-05T20:16:43Z</time>
      </trkpt>
      <trkpt lat="59.33921" lon="17.941549">
        <ele>15.2</ele>
        <time>2015-05-05T20:16:44Z</time>
      </trkpt>
      <trkpt lat="59.339193" lon="17.941652">
        <ele>15.3</ele>
        <time>2015-05-05T20:16:45Z</time>
      </trkpt>
      <trkpt lat="59.339175" lon="17.941809">
        <ele>15.4</ele>
        <time>2015-05-05T20:16:46Z</time>
      </trkpt>
      <trkpt lat="59.339149" lon="17.941971">
        <ele>15.6</ele>
        <time>2015-05-05T20:16:47Z</time>
      </trkpt>
      <trkpt lat="59.339121" lon="17.942112">
        <ele>15.8</ele>
        <time>2015-05-05T20:16:48Z</time>
      </trkpt>
      <trkpt lat="59.339106" lon="17.942257">
        <ele>15.9</ele>
        <time>2015-05-05T20:16:49Z</time>
      </trkpt>
      <trkpt lat="59.339088" lon="17.942434">
        <ele>16</ele>
        <time>2015-05-05T20:16:50Z</time>
      </trkpt>
      <trkpt lat="59.339066" lon="17.942584">
        <ele>16.1</ele>
        <time>2015-05-05T20:16:51Z</time>
      </trkpt>
      <trkpt lat="59.339035" lon="17.942713">
        <ele>16.3</ele>
        <time>2015-05-05T20:16:52Z</time>
      </trkpt>
      <trkpt lat="59.33901" lon="17.942844">
        <ele>16.4</ele>
        <time>2015-05-05T20:16:53Z</time>
      </trkpt>
      <trkpt lat="59.338983" lon="17.942984">
        <ele>16.6</ele>
        <time>2015-05-05T20:16:54Z</time>
      </trkpt>
      <trkpt lat="59.338961" lon="17.943125">
        <ele>16.6</ele>
        <time>2015-05-05T20:16:55Z</time>
      </trkpt>
      <trkpt lat="59.338934" lon="17.943259">
        <ele>16.7</ele>
        <time>2015-05-05T20:16:56Z</time>
      </trkpt>
      <trkpt lat="59.338924" lon="17.943393">
        <ele>16.6</ele>
        <time>2015-05-05T20:16:57Z</time>
      </trkpt>
      <trkpt lat="59.338898" lon="17.943537">
        <ele>16.6</ele>
        <time>2015-05-05T20:16:58Z</time>
      </trkpt>
      <trkpt lat="59.338869" lon="17.943695">
        <ele>16.6</ele>
        <time>2015-05-05T20:16:59Z</time>
      </trkpt>
      <trkpt lat="59.338831" lon="17.94383">
        <ele>16.7</ele>
        <time>2015-05-05T20:17:00Z</time>
      </trkpt>
      <trkpt lat="59.338805" lon="17.943967">
        <ele>16.8</ele>
        <time>2015-05-05T20:17:01Z</time>
      </trkpt>
      <trkpt lat="59.338773" lon="17.944103">
        <ele>16.9</ele>
        <time>2015-05-05T20:17:02Z</time>
      </trkpt>
      <trkpt lat="59.338749" lon="17.944243">
        <ele>17</ele>
        <time>2015-05-05T20:17:03Z</time>
      </trkpt>
      <trkpt lat="59.338721" lon="17.944363">
        <ele>17.6</ele>
        <time>2015-05-05T20:17:04Z</time>
      </trkpt>
      <trkpt lat="59.338699" lon="17.944492">
        <ele>18</ele>
        <time>2015-05-05T20:17:05Z</time>
      </trkpt>
      <trkpt lat="59.338677" lon="17.944653">
        <ele>18.4</ele>
        <time>2015-05-05T20:17:06Z</time>
      </trkpt>
      <trkpt lat="59.338643" lon="17.944775">
        <ele>19</ele>
        <time>2015-05-05T20:17:07Z</time>
      </trkpt>
      <trkpt lat="59.33862" lon="17.9449">
        <ele>19.4</ele>
        <time>2015-05-05T20:17:08Z</time>
      </trkpt>
      <trkpt lat="59.338597" lon="17.945064">
        <ele>19.8</ele>
        <time>2015-05-05T20:17:09Z</time>
      </trkpt>
      <trkpt lat="59.338567" lon="17.945201">
        <ele>20.3</ele>
        <time>2015-05-05T20:17:10Z</time>
      </trkpt>
      <trkpt lat="59.338545" lon="17.945334">
        <ele>20.7</ele>
        <time>2015-05-05T20:17:11Z</time>
      </trkpt>
      <trkpt lat="59.338519" lon="17.945475">
        <ele>21.2</ele>
        <time>2015-05-05T20:17:12Z</time>
      </trkpt>
      <trkpt lat="59.338497" lon="17.945623">
        <ele>21.7</ele>
        <time>2015-05-05T20:17:13Z</time>
      </trkpt>
      <trkpt lat="59.338472" lon="17.945761">
        <ele>22.2</ele>
        <time>2015-05-05T20:17:14Z</time>
      </trkpt>
      <trkpt lat="59.338426" lon="17.945889">
        <ele>23.2</ele>
        <time>2015-05-05T20:17:15Z</time>
      </trkpt>
      <trkpt lat="59.338403" lon="17.94603">
        <ele>23.6</ele>
        <time>2015-05-05T20:17:16Z</time>
      </trkpt>
      <trkpt lat="59.338383" lon="17.946161">
        <ele>24</ele>
        <time>2015-05-05T20:17:17Z</time>
      </trkpt>
      <trkpt lat="59.338353" lon="17.946296">
        <ele>24.5</ele>
        <time>2015-05-05T20:17:18Z</time>
      </trkpt>
      <trkpt lat="59.338324" lon="17.946436">
        <ele>24.9</ele>
        <time>2015-05-05T20:17:19Z</time>
      </trkpt>
      <trkpt lat="59.338309" lon="17.946539">
        <ele>25</ele>
        <time>2015-05-05T20:17:20Z</time>
      </trkpt>
      <trkpt lat="59.338287" lon="17.946661">
        <ele>25.2</ele>
        <time>2015-05-05T20:17:21Z</time>
      </trkpt>
      <trkpt lat="59.338274" lon="17.94679">
        <ele>25.3</ele>
        <time>2015-05-05T20:17:22Z</time>
      </trkpt>
      <trkpt lat="59.338246" lon="17.946936">
        <ele>25.6</ele>
        <time>2015-05-05T20:17:23Z</time>
      </trkpt>
      <trkpt lat="59.338224" lon="17.947061">
        <ele>25.8</ele>
        <time>2015-05-05T20:17:24Z</time>
      </trkpt>
      <trkpt lat="59.3382" lon="17.947163">
        <ele>25.9</ele>
        <time>2015-05-05T20:17:25Z</time>
      </trkpt>
      <trkpt lat="59.338163" lon="17.947272">
        <ele>26.1</ele>
        <time>2015-05-05T20:17:26Z</time>
      </trkpt>
      <trkpt lat="59.338117" lon="17.947391">
        <ele>26.4</ele>
        <time>2015-05-05T20:17:27Z</time>
      </trkpt>
      <trkpt lat="59.338087" lon="17.947505">
        <ele>26.4</ele>
        <time>2015-05-05T20:17:28Z</time>
      </trkpt>
      <trkpt lat="59.338062" lon="17.947619">
        <ele>26.3</ele>
        <time>2015-05-05T20:17:29Z</time>
      </trkpt>
      <trkpt lat="59.33805" lon="17.947747">
        <ele>25.8</ele>
        <time>2015-05-05T20:17:30Z</time>
      </trkpt>
      <trkpt lat="59.338032" lon="17.947878">
        <ele>25.4</ele>
        <time>2015-05-05T20:17:31Z</time>
      </trkpt>
      <trkpt lat="59.338022" lon="17.948006">
        <ele>24.8</ele>
        <time>2015-05-05T20:17:32Z</time>
      </trkpt>
      <trkpt lat="59.338003" lon="17.94813">
        <ele>24.2</ele>
        <time>2015-05-05T20:17:33Z</time>
      </trkpt>
      <trkpt lat="59.337978" lon="17.948256">
        <ele>23.7</ele>
        <time>2015-05-05T20:17:34Z</time>
      </trkpt>
      <trkpt lat="59.337964" lon="17.948388">
        <ele>23</ele>
        <time>2015-05-05T20:17:35Z</time>
      </trkpt>
      <trkpt lat="59.337928" lon="17.948524">
        <ele>22.5</ele>
        <time>2015-05-05T20:17:36Z</time>
      </trkpt>
      <trkpt lat="59.337909" lon="17.948662">
        <ele>21.7</ele>
        <time>2015-05-05T20:17:37Z</time>
      </trkpt>
      <trkpt lat="59.337885" lon="17.948771">
        <ele>21.2</ele>
        <time>2015-05-05T20:17:38Z</time>
      </trkpt>
      <trkpt lat="59.337864" lon="17.948907">
        <ele>20.8</ele>
        <time>2015-05-05T20:17:39Z</time>
      </trkpt>
      <trkpt lat="59.33784" lon="17.949026">
        <ele>20.5</ele>
        <time>2015-05-05T20:17:40Z</time>
      </trkpt>
      <trkpt lat="59.337826" lon="17.949208">
        <ele>19.7</ele>
        <time>2015-05-05T20:17:41Z</time>
      </trkpt>
      <trkpt lat="59.337816" lon="17.949322">
        <ele>19.3</ele>
        <time>2015-05-05T20:17:42Z</time>
      </trkpt>
      <trkpt lat="59.337802" lon="17.949435">
        <ele>18.8</ele>
        <time>2015-05-05T20:17:43Z</time>
      </trkpt>
      <trkpt lat="59.33778" lon="17.949557">
        <ele>18.4</ele>
        <time>2015-05-05T20:17:44Z</time>
      </trkpt>
      <trkpt lat="59.337757" lon="17.949662">
        <ele>18</ele>
        <time>2015-05-05T20:17:45Z</time>
      </trkpt>
      <trkpt lat="59.337733" lon="17.949783">
        <ele>17.5</ele>
        <time>2015-05-05T20:17:46Z</time>
      </trkpt>
      <trkpt lat="59.337718" lon="17.949944">
        <ele>16.6</ele>
        <time>2015-05-05T20:17:47Z</time>
      </trkpt>
      <trkpt lat="59.337689" lon="17.950056">
        <ele>16.2</ele>
        <time>2015-05-05T20:17:48Z</time>
      </trkpt>
      <trkpt lat="59.337664" lon="17.950168">
        <ele>15.7</ele>
        <time>2015-05-05T20:17:49Z</time>
      </trkpt>
      <trkpt lat="59.337637" lon="17.950293">
        <ele>15.1</ele>
        <time>2015-05-05T20:17:50Z</time>
      </trkpt>
      <trkpt lat="59.337617" lon="17.950404">
        <ele>14.6</ele>
        <time>2015-05-05T20:17:51Z</time>
      </trkpt>
      <trkpt lat="59.337595" lon="17.950523">
        <ele>14.6</ele>
        <time>2015-05-05T20:17:52Z</time>
      </trkpt>
      <trkpt lat="59.337578" lon="17.950627">
        <ele>14.6</ele>
        <time>2015-05-05T20:17:53Z</time>
      </trkpt>
      <trkpt lat="59.337551" lon="17.950768">
        <ele>14.7</ele>
        <time>2015-05-05T20:17:54Z</time>
      </trkpt>
      <trkpt lat="59.337546" lon="17.95091">
        <ele>14.6</ele>
        <time>2015-05-05T20:17:55Z</time>
      </trkpt>
      <trkpt lat="59.337495" lon="17.95102">
        <ele>14.8</ele>
        <time>2015-05-05T20:17:56Z</time>
      </trkpt>
      <trkpt lat="59.337469" lon="17.951157">
        <ele>14.8</ele>
        <time>2015-05-05T20:17:57Z</time>
      </trkpt>
      <trkpt lat="59.337424" lon="17.951304">
        <ele>14.9</ele>
        <time>2015-05-05T20:17:58Z</time>
      </trkpt>
      <trkpt lat="59.337399" lon="17.951404">
        <ele>14.9</ele>
        <time>2015-05-05T20:17:59Z</time>
      </trkpt>
      <trkpt lat="59.337377" lon="17.951516">
        <ele>14.8</ele>
        <time>2015-05-05T20:18:00Z</time>
      </trkpt>
      <trkpt lat="59.337349" lon="17.951599">
        <ele>14.8</ele>
        <time>2015-05-05T20:18:01Z</time>
      </trkpt>
      <trkpt lat="59.337327" lon="17.951694">
        <ele>14.8</ele>
        <time>2015-05-05T20:18:02Z</time>
      </trkpt>
      <trkpt lat="59.33731" lon="17.951792">
        <ele>14.7</ele>
        <time>2015-05-05T20:18:03Z</time>
      </trkpt>
      <trkpt lat="59.337283" lon="17.95189">
        <ele>14.6</ele>
        <time>2015-05-05T20:18:04Z</time>
      </trkpt>
      <trkpt lat="59.33727" lon="17.951998">
        <ele>14.5</ele>
        <time>2015-05-05T20:18:05Z</time>
      </trkpt>
      <trkpt lat="59.337263" lon="17.952093">
        <ele>14.3</ele>
        <time>2015-05-05T20:18:06Z</time>
      </trkpt>
      <trkpt lat="59.337225" lon="17.952154">
        <ele>14.4</ele>
        <time>2015-05-05T20:18:07Z</time>
      </trkpt>
      <trkpt lat="59.337209" lon="17.952242">
        <ele>14.4</ele>
        <time>2015-05-05T20:18:08Z</time>
      </trkpt>
      <trkpt lat="59.337191" lon="17.952311">
        <ele>14.4</ele>
        <time>2015-05-05T20:18:09Z</time>
      </trkpt>
      <trkpt lat="59.337165" lon="17.952385">
        <ele>14.4</ele>
        <time>2015-05-05T20:18:10Z</time>
      </trkpt>
      <trkpt lat="59.337143" lon="17.952428">
        <ele>14.4</ele>
        <time>2015-05-05T20:18:11Z</time>
      </trkpt>
      <trkpt lat="59.337121" lon="17.952478">
        <ele>14.4</ele>
        <time>2015-05-05T20:18:13Z</time>
      </trkpt>
      <trkpt lat="59.337093" lon="17.95255">
        <ele>14.4</ele>
        <time>2015-05-05T20:18:15Z</time>
      </trkpt>
      <trkpt lat="59.337081" lon="17.952601">
        <ele>14.4</ele>
        <time>2015-05-05T20:18:17Z</time>
      </trkpt>
      <trkpt lat="59.337069" lon="17.952685">
        <ele>14.4</ele>
        <time>2015-05-05T20:18:19Z</time>
      </trkpt>
      <trkpt lat="59.337051" lon="17.95279">
        <ele>14.4</ele>
        <time>2015-05-05T20:18:21Z</time>
      </trkpt>
      <trkpt lat="59.337042" lon="17.952844">
        <ele>14.5</ele>
        <time>2015-05-05T20:18:22Z</time>
      </trkpt>
      <trkpt lat="59.337032" lon="17.952914">
        <ele>14.5</ele>
        <time>2015-05-05T20:18:23Z</time>
      </trkpt>
      <trkpt lat="59.337026" lon="17.95299">
        <ele>14.5</ele>
        <time>2015-05-05T20:18:24Z</time>
      </trkpt>
      <trkpt lat="59.337024" lon="17.953078">
        <ele>14.4</ele>
        <time>2015-05-05T20:18:25Z</time>
      </trkpt>
      <trkpt lat="59.337017" lon="17.95324">
        <ele>14.4</ele>
        <time>2015-05-05T20:18:26Z</time>
      </trkpt>
      <trkpt lat="59.337" lon="17.953343">
        <ele>14.5</ele>
        <time>2015-05-05T20:18:27Z</time>
      </trkpt>
      <trkpt lat="59.336984" lon="17.953444">
        <ele>14.7</ele>
        <time>2015-05-05T20:18:28Z</time>
      </trkpt>
      <trkpt lat="59.336961" lon="17.953569">
        <ele>15</ele>
        <time>2015-05-05T20:18:29Z</time>
      </trkpt>
      <trkpt lat="59.336933" lon="17.953659">
        <ele>15.4</ele>
        <time>2015-05-05T20:18:30Z</time>
      </trkpt>
      <trkpt lat="59.336912" lon="17.953762">
        <ele>15.7</ele>
        <time>2015-05-05T20:18:31Z</time>
      </trkpt>
      <trkpt lat="59.336886" lon="17.953896">
        <ele>16.3</ele>
        <time>2015-05-05T20:18:32Z</time>
      </trkpt>
      <trkpt lat="59.336859" lon="17.954021">
        <ele>16.9</ele>
        <time>2015-05-05T20:18:33Z</time>
      </trkpt>
      <trkpt lat="59.336836" lon="17.954141">
        <ele>17.5</ele>
        <time>2015-05-05T20:18:34Z</time>
      </trkpt>
      <trkpt lat="59.336812" lon="17.954271">
        <ele>18.1</ele>
        <time>2015-05-05T20:18:35Z</time>
      </trkpt>
      <trkpt lat="59.336772" lon="17.954417">
        <ele>19</ele>
        <time>2015-05-05T20:18:36Z</time>
      </trkpt>
      <trkpt lat="59.33674" lon="17.954541">
        <ele>19.7</ele>
        <time>2015-05-05T20:18:37Z</time>
      </trkpt>
      <trkpt lat="59.336688" lon="17.954659">
        <ele>20.8</ele>
        <time>2015-05-05T20:18:38Z</time>
      </trkpt>
      <trkpt lat="59.33667" lon="17.954794">
        <ele>21.3</ele>
        <time>2015-05-05T20:18:39Z</time>
      </trkpt>
      <trkpt lat="59.336663" lon="17.954927">
        <ele>21.7</ele>
        <time>2015-05-05T20:18:40Z</time>
      </trkpt>
      <trkpt lat="59.336648" lon="17.955053">
        <ele>22.2</ele>
        <time>2015-05-05T20:18:41Z</time>
      </trkpt>
      <trkpt lat="59.336636" lon="17.955196">
        <ele>22.6</ele>
        <time>2015-05-05T20:18:42Z</time>
      </trkpt>
      <trkpt lat="59.336626" lon="17.955329">
        <ele>23.1</ele>
        <time>2015-05-05T20:18:43Z</time>
      </trkpt>
      <trkpt lat="59.336613" lon="17.95549">
        <ele>23.5</ele>
        <time>2015-05-05T20:18:44Z</time>
      </trkpt>
      <trkpt lat="59.33659" lon="17.955614">
        <ele>24</ele>
        <time>2015-05-05T20:18:45Z</time>
      </trkpt>
      <trkpt lat="59.336567" lon="17.955728">
        <ele>24.4</ele>
        <time>2015-05-05T20:18:46Z</time>
      </trkpt>
      <trkpt lat="59.336544" lon="17.955853">
        <ele>24.9</ele>
        <time>2015-05-05T20:18:47Z</time>
      </trkpt>
      <trkpt lat="59.336522" lon="17.955944">
        <ele>25.3</ele>
        <time>2015-05-05T20:18:48Z</time>
      </trkpt>
      <trkpt lat="59.336501" lon="17.956083">
        <ele>25.7</ele>
        <time>2015-05-05T20:18:49Z</time>
      </trkpt>
      <trkpt lat="59.336478" lon="17.956212">
        <ele>26.2</ele>
        <time>2015-05-05T20:18:50Z</time>
      </trkpt>
      <trkpt lat="59.336438" lon="17.956336">
        <ele>26.8</ele>
        <time>2015-05-05T20:18:51Z</time>
      </trkpt>
      <trkpt lat="59.336415" lon="17.956457">
        <ele>27.1</ele>
        <time>2015-05-05T20:18:52Z</time>
      </trkpt>
      <trkpt lat="59.336398" lon="17.956591">
        <ele>27.2</ele>
        <time>2015-05-05T20:18:53Z</time>
      </trkpt>
      <trkpt lat="59.33637" lon="17.956733">
        <ele>27.6</ele>
        <time>2015-05-05T20:18:54Z</time>
      </trkpt>
      <trkpt lat="59.336355" lon="17.956843">
        <ele>27.7</ele>
        <time>2015-05-05T20:18:55Z</time>
      </trkpt>
      <trkpt lat="59.336335" lon="17.956966">
        <ele>27.9</ele>
        <time>2015-05-05T20:18:56Z</time>
      </trkpt>
      <trkpt lat="59.336306" lon="17.957108">
        <ele>28.2</ele>
        <time>2015-05-05T20:18:57Z</time>
      </trkpt>
      <trkpt lat="59.336285" lon="17.957228">
        <ele>28.3</ele>
        <time>2015-05-05T20:18:58Z</time>
      </trkpt>
      <trkpt lat="59.33626" lon="17.957345">
        <ele>28.6</ele>
        <time>2015-05-05T20:18:59Z</time>
      </trkpt>
      <trkpt lat="59.336226" lon="17.957474">
        <ele>28.8</ele>
        <time>2015-05-05T20:19:00Z</time>
      </trkpt>
      <trkpt lat="59.33621" lon="17.957595">
        <ele>28.9</ele>
        <time>2015-05-05T20:19:01Z</time>
      </trkpt>
      <trkpt lat="59.336172" lon="17.957694">
        <ele>29.2</ele>
        <time>2015-05-05T20:19:02Z</time>
      </trkpt>
      <trkpt lat="59.336151" lon="17.957818">
        <ele>29.3</ele>
        <time>2015-05-05T20:19:03Z</time>
      </trkpt>
      <trkpt lat="59.336129" lon="17.957921">
        <ele>29.4</ele>
        <time>2015-05-05T20:19:04Z</time>
      </trkpt>
      <trkpt lat="59.336129" lon="17.958022">
        <ele>29.3</ele>
        <time>2015-05-05T20:19:05Z</time>
      </trkpt>
      <trkpt lat="59.336105" lon="17.958142">
        <ele>29.5</ele>
        <time>2015-05-05T20:19:06Z</time>
      </trkpt>
      <trkpt lat="59.336081" lon="17.958306">
        <ele>29.6</ele>
        <time>2015-05-05T20:19:07Z</time>
      </trkpt>
      <trkpt lat="59.336061" lon="17.958418">
        <ele>29.7</ele>
        <time>2015-05-05T20:19:08Z</time>
      </trkpt>
      <trkpt lat="59.336046" lon="17.958548">
        <ele>29.7</ele>
        <time>2015-05-05T20:19:09Z</time>
      </trkpt>
      <trkpt lat="59.336006" lon="17.958661">
        <ele>30</ele>
        <time>2015-05-05T20:19:10Z</time>
      </trkpt>
      <trkpt lat="59.33598" lon="17.958779">
        <ele>30.2</ele>
        <time>2015-05-05T20:19:11Z</time>
      </trkpt>
      <trkpt lat="59.335955" lon="17.958895">
        <ele>30.4</ele>
        <time>2015-05-05T20:19:12Z</time>
      </trkpt>
      <trkpt lat="59.335944" lon="17.959061">
        <ele>30.4</ele>
        <time>2015-05-05T20:19:13Z</time>
      </trkpt>
      <trkpt lat="59.335924" lon="17.959146">
        <ele>30.6</ele>
        <time>2015-05-05T20:19:14Z</time>
      </trkpt>
      <trkpt lat="59.335909" lon="17.959317">
        <ele>30.7</ele>
        <time>2015-05-05T20:19:15Z</time>
      </trkpt>
      <trkpt lat="59.33588" lon="17.95943">
        <ele>31</ele>
        <time>2015-05-05T20:19:16Z</time>
      </trkpt>
      <trkpt lat="59.335856" lon="17.959534">
        <ele>31.2</ele>
        <time>2015-05-05T20:19:17Z</time>
      </trkpt>
      <trkpt lat="59.335836" lon="17.95968">
        <ele>31.3</ele>
        <time>2015-05-05T20:19:18Z</time>
      </trkpt>
      <trkpt lat="59.335817" lon="17.959783">
        <ele>31.5</ele>
        <time>2015-05-05T20:19:19Z</time>
      </trkpt>
      <trkpt lat="59.335791" lon="17.959886">
        <ele>31.7</ele>
        <time>2015-05-05T20:19:20Z</time>
      </trkpt>
      <trkpt lat="59.33577" lon="17.960001">
        <ele>31.9</ele>
        <time>2015-05-05T20:19:21Z</time>
      </trkpt>
      <trkpt lat="59.335751" lon="17.960093">
        <ele>32.1</ele>
        <time>2015-05-05T20:19:22Z</time>
      </trkpt>
      <trkpt lat="59.335724" lon="17.960206">
        <ele>32.4</ele>
        <time>2015-05-05T20:19:23Z</time>
      </trkpt>
      <trkpt lat="59.335692" lon="17.960329">
        <ele>32.8</ele>
        <time>2015-05-05T20:19:24Z</time>
      </trkpt>
      <trkpt lat="59.33568" lon="17.960419">
        <ele>32.9</ele>
        <time>2015-05-05T20:19:25Z</time>
      </trkpt>
      <trkpt lat="59.335661" lon="17.96052">
        <ele>33</ele>
        <time>2015-05-05T20:19:26Z</time>
      </trkpt>
      <trkpt lat="59.335622" lon="17.960677">
        <ele>33.3</ele>
        <time>2015-05-05T20:19:27Z</time>
      </trkpt>
      <trkpt lat="59.335601" lon="17.960769">
        <ele>33.5</ele>
        <time>2015-05-05T20:19:28Z</time>
      </trkpt>
      <trkpt lat="59.335584" lon="17.960916">
        <ele>33.4</ele>
        <time>2015-05-05T20:19:29Z</time>
      </trkpt>
      <trkpt lat="59.33557" lon="17.961053">
        <ele>33.4</ele>
        <time>2015-05-05T20:19:30Z</time>
      </trkpt>
      <trkpt lat="59.335559" lon="17.961213">
        <ele>33.2</ele>
        <time>2015-05-05T20:19:31Z</time>
      </trkpt>
      <trkpt lat="59.335538" lon="17.961328">
        <ele>33.2</ele>
        <time>2015-05-05T20:19:32Z</time>
      </trkpt>
      <trkpt lat="59.335514" lon="17.961425">
        <ele>33.2</ele>
        <time>2015-05-05T20:19:33Z</time>
      </trkpt>
      <trkpt lat="59.335494" lon="17.961536">
        <ele>33</ele>
        <time>2015-05-05T20:19:34Z</time>
      </trkpt>
      <trkpt lat="59.335459" lon="17.961639">
        <ele>33.1</ele>
        <time>2015-05-05T20:19:35Z</time>
      </trkpt>
      <trkpt lat="59.335431" lon="17.961721">
        <ele>33.1</ele>
        <time>2015-05-05T20:19:36Z</time>
      </trkpt>
      <trkpt lat="59.335393" lon="17.961874">
        <ele>33</ele>
        <time>2015-05-05T20:19:37Z</time>
      </trkpt>
      <trkpt lat="59.335369" lon="17.961999">
        <ele>32.7</ele>
        <time>2015-05-05T20:19:38Z</time>
      </trkpt>
      <trkpt lat="59.335369" lon="17.962109">
        <ele>32.3</ele>
        <time>2015-05-05T20:19:39Z</time>
      </trkpt>
      <trkpt lat="59.335349" lon="17.962225">
        <ele>32</ele>
        <time>2015-05-05T20:19:40Z</time>
      </trkpt>
      <trkpt lat="59.335325" lon="17.962354">
        <ele>31.7</ele>
        <time>2015-05-05T20:19:41Z</time>
      </trkpt>
      <trkpt lat="59.335307" lon="17.962471">
        <ele>31.3</ele>
        <time>2015-05-05T20:19:42Z</time>
      </trkpt>
      <trkpt lat="59.335276" lon="17.962593">
        <ele>31.1</ele>
        <time>2015-05-05T20:19:43Z</time>
      </trkpt>
      <trkpt lat="59.335256" lon="17.962728">
        <ele>30.7</ele>
        <time>2015-05-05T20:19:44Z</time>
      </trkpt>
      <trkpt lat="59.335234" lon="17.962872">
        <ele>30.4</ele>
        <time>2015-05-05T20:19:45Z</time>
      </trkpt>
      <trkpt lat="59.335204" lon="17.963005">
        <ele>30.2</ele>
        <time>2015-05-05T20:19:46Z</time>
      </trkpt>
      <trkpt lat="59.335183" lon="17.963139">
        <ele>29.8</ele>
        <time>2015-05-05T20:19:47Z</time>
      </trkpt>
      <trkpt lat="59.335161" lon="17.963268">
        <ele>29.5</ele>
        <time>2015-05-05T20:19:48Z</time>
      </trkpt>
      <trkpt lat="59.33514" lon="17.963402">
        <ele>29.2</ele>
        <time>2015-05-05T20:19:49Z</time>
      </trkpt>
      <trkpt lat="59.335115" lon="17.963537">
        <ele>28.9</ele>
        <time>2015-05-05T20:19:50Z</time>
      </trkpt>
      <trkpt lat="59.335074" lon="17.96363">
        <ele>29</ele>
        <time>2015-05-05T20:19:51Z</time>
      </trkpt>
      <trkpt lat="59.335053" lon="17.963759">
        <ele>28.8</ele>
        <time>2015-05-05T20:19:52Z</time>
      </trkpt>
      <trkpt lat="59.335039" lon="17.963924">
        <ele>28.8</ele>
        <time>2015-05-05T20:19:53Z</time>
      </trkpt>
      <trkpt lat="59.335022" lon="17.964053">
        <ele>28.8</ele>
        <time>2015-05-05T20:19:54Z</time>
      </trkpt>
      <trkpt lat="59.335004" lon="17.964235">
        <ele>28.9</ele>
        <time>2015-05-05T20:19:55Z</time>
      </trkpt>
      <trkpt lat="59.334986" lon="17.964387">
        <ele>28.9</ele>
        <time>2015-05-05T20:19:56Z</time>
      </trkpt>
      <trkpt lat="59.334966" lon="17.96453">
        <ele>29</ele>
        <time>2015-05-05T20:19:57Z</time>
      </trkpt>
      <trkpt lat="59.33494" lon="17.964691">
        <ele>29</ele>
        <time>2015-05-05T20:19:58Z</time>
      </trkpt>
      <trkpt lat="59.33492" lon="17.964836">
        <ele>28.9</ele>
        <time>2015-05-05T20:19:59Z</time>
      </trkpt>
      <trkpt lat="59.334889" lon="17.964983">
        <ele>29</ele>
        <time>2015-05-05T20:20:00Z</time>
      </trkpt>
      <trkpt lat="59.334873" lon="17.965134">
        <ele>28.9</ele>
        <time>2015-05-05T20:20:01Z</time>
      </trkpt>
      <trkpt lat="59.334854" lon="17.965262">
        <ele>28.8</ele>
        <time>2015-05-05T20:20:02Z</time>
      </trkpt>
      <trkpt lat="59.334818" lon="17.965387">
        <ele>29</ele>
        <time>2015-05-05T20:20:03Z</time>
      </trkpt>
      <trkpt lat="59.334819" lon="17.965534">
        <ele>28.6</ele>
        <time>2015-05-05T20:20:04Z</time>
      </trkpt>
      <trkpt lat="59.334815" lon="17.965668">
        <ele>28.4</ele>
        <time>2015-05-05T20:20:05Z</time>
      </trkpt>
      <trkpt lat="59.334817" lon="17.965799">
        <ele>28.1</ele>
        <time>2015-05-05T20:20:06Z</time>
      </trkpt>
      <trkpt lat="59.334822" lon="17.965952">
        <ele>27.7</ele>
        <time>2015-05-05T20:20:07Z</time>
      </trkpt>
      <trkpt lat="59.334809" lon="17.966091">
        <ele>27.6</ele>
        <time>2015-05-05T20:20:08Z</time>
      </trkpt>
      <trkpt lat="59.334799" lon="17.966206">
        <ele>27.5</ele>
        <time>2015-05-05T20:20:09Z</time>
      </trkpt>
      <trkpt lat="59.334794" lon="17.966318">
        <ele>27.3</ele>
        <time>2015-05-05T20:20:10Z</time>
      </trkpt>
      <trkpt lat="59.334781" lon="17.966466">
        <ele>27</ele>
        <time>2015-05-05T20:20:11Z</time>
      </trkpt>
      <trkpt lat="59.334754" lon="17.96663">
        <ele>26.8</ele>
        <time>2015-05-05T20:20:12Z</time>
      </trkpt>
      <trkpt lat="59.334737" lon="17.966767">
        <ele>26.5</ele>
        <time>2015-05-05T20:20:13Z</time>
      </trkpt>
      <trkpt lat="59.334715" lon="17.966852">
        <ele>26.5</ele>
        <time>2015-05-05T20:20:14Z</time>
      </trkpt>
      <trkpt lat="59.334698" lon="17.966956">
        <ele>26.3</ele>
        <time>2015-05-05T20:20:15Z</time>
      </trkpt>
      <trkpt lat="59.334664" lon="17.967069">
        <ele>26.3</ele>
        <time>2015-05-05T20:20:16Z</time>
      </trkpt>
      <trkpt lat="59.334643" lon="17.967192">
        <ele>26.2</ele>
        <time>2015-05-05T20:20:17Z</time>
      </trkpt>
      <trkpt lat="59.334642" lon="17.967397">
        <ele>25.7</ele>
        <time>2015-05-05T20:20:18Z</time>
      </trkpt>
      <trkpt lat="59.334625" lon="17.967553">
        <ele>25.5</ele>
        <time>2015-05-05T20:20:19Z</time>
      </trkpt>
      <trkpt lat="59.334591" lon="17.967718">
        <ele>25.4</ele>
        <time>2015-05-05T20:20:20Z</time>
      </trkpt>
      <trkpt lat="59.334568" lon="17.96787">
        <ele>25.4</ele>
        <time>2015-05-05T20:20:21Z</time>
      </trkpt>
      <trkpt lat="59.334523" lon="17.967991">
        <ele>25.8</ele>
        <time>2015-05-05T20:20:22Z</time>
      </trkpt>
      <trkpt lat="59.334493" lon="17.968099">
        <ele>26.1</ele>
        <time>2015-05-05T20:20:23Z</time>
      </trkpt>
      <trkpt lat="59.334444" lon="17.968191">
        <ele>26.7</ele>
        <time>2015-05-05T20:20:24Z</time>
      </trkpt>
      <trkpt lat="59.334403" lon="17.968325">
        <ele>27.2</ele>
        <time>2015-05-05T20:20:25Z</time>
      </trkpt>
      <trkpt lat="59.334391" lon="17.968446">
        <ele>27.1</ele>
        <time>2015-05-05T20:20:26Z</time>
      </trkpt>
      <trkpt lat="59.334385" lon="17.968582">
        <ele>26.9</ele>
        <time>2015-05-05T20:20:27Z</time>
      </trkpt>
      <trkpt lat="59.334375" lon="17.968709">
        <ele>26.8</ele>
        <time>2015-05-05T20:20:28Z</time>
      </trkpt>
      <trkpt lat="59.334364" lon="17.968841">
        <ele>26.8</ele>
        <time>2015-05-05T20:20:29Z</time>
      </trkpt>
      <trkpt lat="59.33436" lon="17.968973">
        <ele>26.6</ele>
        <time>2015-05-05T20:20:30Z</time>
      </trkpt>
      <trkpt lat="59.334327" lon="17.969118">
        <ele>27</ele>
        <time>2015-05-05T20:20:31Z</time>
      </trkpt>
      <trkpt lat="59.334314" lon="17.969254">
        <ele>27</ele>
        <time>2015-05-05T20:20:32Z</time>
      </trkpt>
      <trkpt lat="59.334291" lon="17.969378">
        <ele>27.3</ele>
        <time>2015-05-05T20:20:33Z</time>
      </trkpt>
      <trkpt lat="59.334279" lon="17.969542">
        <ele>27.3</ele>
        <time>2015-05-05T20:20:34Z</time>
      </trkpt>
      <trkpt lat="59.33426" lon="17.969667">
        <ele>27.4</ele>
        <time>2015-05-05T20:20:35Z</time>
      </trkpt>
      <trkpt lat="59.334249" lon="17.969787">
        <ele>27.4</ele>
        <time>2015-05-05T20:20:36Z</time>
      </trkpt>
      <trkpt lat="59.334243" lon="17.969925">
        <ele>27.3</ele>
        <time>2015-05-05T20:20:37Z</time>
      </trkpt>
      <trkpt lat="59.33423" lon="17.970074">
        <ele>27.3</ele>
        <time>2015-05-05T20:20:38Z</time>
      </trkpt>
      <trkpt lat="59.334205" lon="17.970204">
        <ele>27.6</ele>
        <time>2015-05-05T20:20:39Z</time>
      </trkpt>
      <trkpt lat="59.334181" lon="17.970336">
        <ele>27.8</ele>
        <time>2015-05-05T20:20:40Z</time>
      </trkpt>
      <trkpt lat="59.334175" lon="17.970523">
        <ele>27.4</ele>
        <time>2015-05-05T20:20:41Z</time>
      </trkpt>
      <trkpt lat="59.334135" lon="17.970647">
        <ele>27.7</ele>
        <time>2015-05-05T20:20:42Z</time>
      </trkpt>
      <trkpt lat="59.334096" lon="17.970792">
        <ele>27.8</ele>
        <time>2015-05-05T20:20:43Z</time>
      </trkpt>
      <trkpt lat="59.334076" lon="17.970917">
        <ele>27.5</ele>
        <time>2015-05-05T20:20:44Z</time>
      </trkpt>
      <trkpt lat="59.334054" lon="17.971043">
        <ele>27.3</ele>
        <time>2015-05-05T20:20:45Z</time>
      </trkpt>
      <trkpt lat="59.334029" lon="17.971184">
        <ele>27</ele>
        <time>2015-05-05T20:20:46Z</time>
      </trkpt>
      <trkpt lat="59.333998" lon="17.971318">
        <ele>26.7</ele>
        <time>2015-05-05T20:20:47Z</time>
      </trkpt>
      <trkpt lat="59.333969" lon="17.971444">
        <ele>26.3</ele>
        <time>2015-05-05T20:20:48Z</time>
      </trkpt>
      <trkpt lat="59.33394" lon="17.971596">
        <ele>25.6</ele>
        <time>2015-05-05T20:20:49Z</time>
      </trkpt>
      <trkpt lat="59.333912" lon="17.971727">
        <ele>25</ele>
        <time>2015-05-05T20:20:50Z</time>
      </trkpt>
      <trkpt lat="59.333887" lon="17.971858">
        <ele>24.4</ele>
        <time>2015-05-05T20:20:51Z</time>
      </trkpt>
      <trkpt lat="59.333855" lon="17.971973">
        <ele>23.8</ele>
        <time>2015-05-05T20:20:52Z</time>
      </trkpt>
      <trkpt lat="59.333827" lon="17.972101">
        <ele>23.2</ele>
        <time>2015-05-05T20:20:53Z</time>
      </trkpt>
      <trkpt lat="59.333799" lon="17.972222">
        <ele>23.1</ele>
        <time>2015-05-05T20:20:54Z</time>
      </trkpt>
      <trkpt lat="59.333774" lon="17.972349">
        <ele>22.8</ele>
        <time>2015-05-05T20:20:55Z</time>
      </trkpt>
      <trkpt lat="59.333741" lon="17.972475">
        <ele>22.7</ele>
        <time>2015-05-05T20:20:56Z</time>
      </trkpt>
      <trkpt lat="59.333711" lon="17.972617">
        <ele>22.6</ele>
        <time>2015-05-05T20:20:57Z</time>
      </trkpt>
      <trkpt lat="59.333705" lon="17.972746">
        <ele>22.2</ele>
        <time>2015-05-05T20:20:58Z</time>
      </trkpt>
      <trkpt lat="59.333673" lon="17.972869">
        <ele>22</ele>
        <time>2015-05-05T20:20:59Z</time>
      </trkpt>
      <trkpt lat="59.33365" lon="17.972999">
        <ele>21.7</ele>
        <time>2015-05-05T20:21:00Z</time>
      </trkpt>
      <trkpt lat="59.333631" lon="17.973139">
        <ele>21.3</ele>
        <time>2015-05-05T20:21:01Z</time>
      </trkpt>
      <trkpt lat="59.33361" lon="17.97328">
        <ele>20.8</ele>
        <time>2015-05-05T20:21:02Z</time>
      </trkpt>
      <trkpt lat="59.333573" lon="17.973415">
        <ele>20.5</ele>
        <time>2015-05-05T20:21:03Z</time>
      </trkpt>
      <trkpt lat="59.333534" lon="17.973539">
        <ele>20.1</ele>
        <time>2015-05-05T20:21:04Z</time>
      </trkpt>
      <trkpt lat="59.33351" lon="17.973652">
        <ele>19.7</ele>
        <time>2015-05-05T20:21:05Z</time>
      </trkpt>
      <trkpt lat="59.333476" lon="17.973745">
        <ele>19.3</ele>
        <time>2015-05-05T20:21:06Z</time>
      </trkpt>
      <trkpt lat="59.333453" lon="17.973847">
        <ele>19.4</ele>
        <time>2015-05-05T20:21:07Z</time>
      </trkpt>
      <trkpt lat="59.33343" lon="17.973957">
        <ele>19.5</ele>
        <time>2015-05-05T20:21:08Z</time>
      </trkpt>
      <trkpt lat="59.333414" lon="17.974017">
        <ele>19.6</ele>
        <time>2015-05-05T20:21:09Z</time>
      </trkpt>
      <trkpt lat="59.333429" lon="17.974165">
        <ele>19.5</ele>
        <time>2015-05-05T20:21:10Z</time>
      </trkpt>
      <trkpt lat="59.333397" lon="17.974294">
        <ele>19.7</ele>
        <time>2015-05-05T20:21:11Z</time>
      </trkpt>
      <trkpt lat="59.333369" lon="17.974406">
        <ele>19.8</ele>
        <time>2015-05-05T20:21:12Z</time>
      </trkpt>
      <trkpt lat="59.333342" lon="17.974497">
        <ele>20</ele>
        <time>2015-05-05T20:21:13Z</time>
      </trkpt>
      <trkpt lat="59.333331" lon="17.97464">
        <ele>20</ele>
        <time>2015-05-05T20:21:14Z</time>
      </trkpt>
      <trkpt lat="59.333313" lon="17.974757">
        <ele>20</ele>
        <time>2015-05-05T20:21:15Z</time>
      </trkpt>
      <trkpt lat="59.333294" lon="17.974873">
        <ele>20</ele>
        <time>2015-05-05T20:21:16Z</time>
      </trkpt>
      <trkpt lat="59.333258" lon="17.974989">
        <ele>20.2</ele>
        <time>2015-05-05T20:21:17Z</time>
      </trkpt>
      <trkpt lat="59.333249" lon="17.975147">
        <ele>20.1</ele>
        <time>2015-05-05T20:21:18Z</time>
      </trkpt>
      <trkpt lat="59.333227" lon="17.975266">
        <ele>20.2</ele>
        <time>2015-05-05T20:21:19Z</time>
      </trkpt>
      <trkpt lat="59.333212" lon="17.9754">
        <ele>20.2</ele>
        <time>2015-05-05T20:21:20Z</time>
      </trkpt>
      <trkpt lat="59.333194" lon="17.975517">
        <ele>20.4</ele>
        <time>2015-05-05T20:21:21Z</time>
      </trkpt>
      <trkpt lat="59.333168" lon="17.975563">
        <ele>20.6</ele>
        <time>2015-05-05T20:21:22Z</time>
      </trkpt>
      <trkpt lat="59.333146" lon="17.97566">
        <ele>20.8</ele>
        <time>2015-05-05T20:21:23Z</time>
      </trkpt>
      <trkpt lat="59.333133" lon="17.975741">
        <ele>21</ele>
        <time>2015-05-05T20:21:24Z</time>
      </trkpt>
      <trkpt lat="59.333115" lon="17.975805">
        <ele>21.2</ele>
        <time>2015-05-05T20:21:25Z</time>
      </trkpt>
      <trkpt lat="59.333103" lon="17.975858">
        <ele>21.3</ele>
        <time>2015-05-05T20:21:26Z</time>
      </trkpt>
      <trkpt lat="59.333086" lon="17.975911">
        <ele>21.5</ele>
        <time>2015-05-05T20:21:28Z</time>
      </trkpt>
      <trkpt lat="59.333072" lon="17.975967">
        <ele>21.6</ele>
        <time>2015-05-05T20:21:30Z</time>
      </trkpt>
      <trkpt lat="59.333062" lon="17.976033">
        <ele>21.7</ele>
        <time>2015-05-05T20:21:31Z</time>
      </trkpt>
      <trkpt lat="59.333052" lon="17.976106">
        <ele>21.9</ele>
        <time>2015-05-05T20:21:32Z</time>
      </trkpt>
      <trkpt lat="59.333028" lon="17.976183">
        <ele>22.1</ele>
        <time>2015-05-05T20:21:33Z</time>
      </trkpt>
      <trkpt lat="59.333013" lon="17.976254">
        <ele>22.3</ele>
        <time>2015-05-05T20:21:34Z</time>
      </trkpt>
      <trkpt lat="59.333005" lon="17.976339">
        <ele>22.5</ele>
        <time>2015-05-05T20:21:35Z</time>
      </trkpt>
      <trkpt lat="59.332997" lon="17.976423">
        <ele>22.6</ele>
        <time>2015-05-05T20:21:36Z</time>
      </trkpt>
      <trkpt lat="59.332987" lon="17.976496">
        <ele>22.8</ele>
        <time>2015-05-05T20:21:37Z</time>
      </trkpt>
      <trkpt lat="59.332986" lon="17.976584">
        <ele>22.9</ele>
        <time>2015-05-05T20:21:38Z</time>
      </trkpt>
      <trkpt lat="59.333022" lon="17.976684">
        <ele>22.7</ele>
        <time>2015-05-05T20:21:39Z</time>
      </trkpt>
      <trkpt lat="59.333044" lon="17.976753">
        <ele>22.6</ele>
        <time>2015-05-05T20:21:40Z</time>
      </trkpt>
      <trkpt lat="59.333076" lon="17.97682">
        <ele>22.4</ele>
        <time>2015-05-05T20:21:41Z</time>
      </trkpt>
      <trkpt lat="59.333134" lon="17.976891">
        <ele>22</ele>
        <time>2015-05-05T20:21:42Z</time>
      </trkpt>
      <trkpt lat="59.333193" lon="17.977012">
        <ele>21.6</ele>
        <time>2015-05-05T20:21:43Z</time>
      </trkpt>
      <trkpt lat="59.333256" lon="17.977104">
        <ele>21.1</ele>
        <time>2015-05-05T20:21:44Z</time>
      </trkpt>
      <trkpt lat="59.333309" lon="17.977173">
        <ele>20.6</ele>
        <time>2015-05-05T20:21:45Z</time>
      </trkpt>
      <trkpt lat="59.333348" lon="17.977255">
        <ele>20.2</ele>
        <time>2015-05-05T20:21:46Z</time>
      </trkpt>
      <trkpt lat="59.333399" lon="17.977323">
        <ele>19.7</ele>
        <time>2015-05-05T20:21:47Z</time>
      </trkpt>
      <trkpt lat="59.333449" lon="17.977392">
        <ele>19.2</ele>
        <time>2015-05-05T20:21:48Z</time>
      </trkpt>
      <trkpt lat="59.33348" lon="17.977518">
        <ele>18.7</ele>
        <time>2015-05-05T20:21:49Z</time>
      </trkpt>
      <trkpt lat="59.333502" lon="17.977677">
        <ele>18.4</ele>
        <time>2015-05-05T20:21:50Z</time>
      </trkpt>
      <trkpt lat="59.333508" lon="17.97781">
        <ele>18.2</ele>
        <time>2015-05-05T20:21:51Z</time>
      </trkpt>
      <trkpt lat="59.333502" lon="17.97794">
        <ele>18</ele>
        <time>2015-05-05T20:21:52Z</time>
      </trkpt>
      <trkpt lat="59.333498" lon="17.978101">
        <ele>17.7</ele>
        <time>2015-05-05T20:21:53Z</time>
      </trkpt>
      <trkpt lat="59.33349" lon="17.978222">
        <ele>17.6</ele>
        <time>2015-05-05T20:21:54Z</time>
      </trkpt>
      <trkpt lat="59.333476" lon="17.978355">
        <ele>17.4</ele>
        <time>2015-05-05T20:21:55Z</time>
      </trkpt>
      <trkpt lat="59.333464" lon="17.978483">
        <ele>17.3</ele>
        <time>2015-05-05T20:21:56Z</time>
      </trkpt>
      <trkpt lat="59.333452" lon="17.978609">
        <ele>17.1</ele>
        <time>2015-05-05T20:21:57Z</time>
      </trkpt>
      <trkpt lat="59.333442" lon="17.978738">
        <ele>17</ele>
        <time>2015-05-05T20:21:58Z</time>
      </trkpt>
      <trkpt lat="59.333429" lon="17.978877">
        <ele>16.9</ele>
        <time>2015-05-05T20:21:59Z</time>
      </trkpt>
      <trkpt lat="59.333415" lon="17.979013">
        <ele>16.8</ele>
        <time>2015-05-05T20:22:00Z</time>
      </trkpt>
      <trkpt lat="59.333394" lon="17.979153">
        <ele>16.8</ele>
        <time>2015-05-05T20:22:01Z</time>
      </trkpt>
      <trkpt lat="59.333374" lon="17.979285">
        <ele>16.7</ele>
        <time>2015-05-05T20:22:02Z</time>
      </trkpt>
      <trkpt lat="59.33336" lon="17.97944">
        <ele>16.6</ele>
        <time>2015-05-05T20:22:03Z</time>
      </trkpt>
      <trkpt lat="59.333354" lon="17.979558">
        <ele>16.4</ele>
        <time>2015-05-05T20:22:04Z</time>
      </trkpt>
      <trkpt lat="59.333347" lon="17.979696">
        <ele>16.1</ele>
        <time>2015-05-05T20:22:05Z</time>
      </trkpt>
      <trkpt lat="59.333321" lon="17.979839">
        <ele>15.8</ele>
        <time>2015-05-05T20:22:06Z</time>
      </trkpt>
      <trkpt lat="59.333296" lon="17.979957">
        <ele>15.5</ele>
        <time>2015-05-05T20:22:07Z</time>
      </trkpt>
      <trkpt lat="59.333284" lon="17.980094">
        <ele>15.2</ele>
        <time>2015-05-05T20:22:08Z</time>
      </trkpt>
      <trkpt lat="59.333263" lon="17.980213">
        <ele>14.8</ele>
        <time>2015-05-05T20:22:09Z</time>
      </trkpt>
      <trkpt lat="59.333248" lon="17.980353">
        <ele>14.4</ele>
        <time>2015-05-05T20:22:10Z</time>
      </trkpt>
      <trkpt lat="59.333228" lon="17.980505">
        <ele>14.2</ele>
        <time>2015-05-05T20:22:11Z</time>
      </trkpt>
      <trkpt lat="59.33321" lon="17.980647">
        <ele>14.2</ele>
        <time>2015-05-05T20:22:12Z</time>
      </trkpt>
      <trkpt lat="59.33319" lon="17.98077">
        <ele>14.2</ele>
        <time>2015-05-05T20:22:13Z</time>
      </trkpt>
      <trkpt lat="59.333177" lon="17.980899">
        <ele>14.2</ele>
        <time>2015-05-05T20:22:14Z</time>
      </trkpt>
      <trkpt lat="59.33316" lon="17.981053">
        <ele>14.1</ele>
        <time>2015-05-05T20:22:15Z</time>
      </trkpt>
      <trkpt lat="59.333143" lon="17.981206">
        <ele>14</ele>
        <time>2015-05-05T20:22:16Z</time>
      </trkpt>
      <trkpt lat="59.333122" lon="17.981356">
        <ele>13.9</ele>
        <time>2015-05-05T20:22:17Z</time>
      </trkpt>
      <trkpt lat="59.333108" lon="17.981508">
        <ele>13.7</ele>
        <time>2015-05-05T20:22:18Z</time>
      </trkpt>
      <trkpt lat="59.333094" lon="17.981671">
        <ele>13.4</ele>
        <time>2015-05-05T20:22:19Z</time>
      </trkpt>
      <trkpt lat="59.333078" lon="17.981821">
        <ele>13.2</ele>
        <time>2015-05-05T20:22:20Z</time>
      </trkpt>
      <trkpt lat="59.333053" lon="17.981982">
        <ele>12.8</ele>
        <time>2015-05-05T20:22:21Z</time>
      </trkpt>
      <trkpt lat="59.333059" lon="17.982137">
        <ele>12.7</ele>
        <time>2015-05-05T20:22:22Z</time>
      </trkpt>
      <trkpt lat="59.333042" lon="17.982283">
        <ele>12.7</ele>
        <time>2015-05-05T20:22:23Z</time>
      </trkpt>
      <trkpt lat="59.333037" lon="17.982427">
        <ele>12.7</ele>
        <time>2015-05-05T20:22:24Z</time>
      </trkpt>
      <trkpt lat="59.333023" lon="17.982558">
        <ele>12.7</ele>
        <time>2015-05-05T20:22:25Z</time>
      </trkpt>
      <trkpt lat="59.333004" lon="17.982703">
        <ele>12.6</ele>
        <time>2015-05-05T20:22:26Z</time>
      </trkpt>
      <trkpt lat="59.332987" lon="17.982842">
        <ele>12.5</ele>
        <time>2015-05-05T20:22:27Z</time>
      </trkpt>
      <trkpt lat="59.332975" lon="17.982979">
        <ele>12.4</ele>
        <time>2015-05-05T20:22:28Z</time>
      </trkpt>
      <trkpt lat="59.332964" lon="17.983115">
        <ele>12.4</ele>
        <time>2015-05-05T20:22:29Z</time>
      </trkpt>
      <trkpt lat="59.332957" lon="17.983262">
        <ele>12.4</ele>
        <time>2015-05-05T20:22:30Z</time>
      </trkpt>
      <trkpt lat="59.332943" lon="17.983384">
        <ele>12.2</ele>
        <time>2015-05-05T20:22:31Z</time>
      </trkpt>
      <trkpt lat="59.332944" lon="17.98351">
        <ele>12.3</ele>
        <time>2015-05-05T20:22:32Z</time>
      </trkpt>
      <trkpt lat="59.332933" lon="17.983636">
        <ele>12.2</ele>
        <time>2015-05-05T20:22:33Z</time>
      </trkpt>
      <trkpt lat="59.332906" lon="17.983751">
        <ele>12</ele>
        <time>2015-05-05T20:22:34Z</time>
      </trkpt>
      <trkpt lat="59.332899" lon="17.983868">
        <ele>12.3</ele>
        <time>2015-05-05T20:22:35Z</time>
      </trkpt>
      <trkpt lat="59.332897" lon="17.983997">
        <ele>12.6</ele>
        <time>2015-05-05T20:22:36Z</time>
      </trkpt>
      <trkpt lat="59.332889" lon="17.984113">
        <ele>12.9</ele>
        <time>2015-05-05T20:22:37Z</time>
      </trkpt>
      <trkpt lat="59.332881" lon="17.984233">
        <ele>13.2</ele>
        <time>2015-05-05T20:22:38Z</time>
      </trkpt>
      <trkpt lat="59.332875" lon="17.984352">
        <ele>13.5</ele>
        <time>2015-05-05T20:22:39Z</time>
      </trkpt>
      <trkpt lat="59.332869" lon="17.984469">
        <ele>13.7</ele>
        <time>2015-05-05T20:22:40Z</time>
      </trkpt>
      <trkpt lat="59.332861" lon="17.984568">
        <ele>13.9</ele>
        <time>2015-05-05T20:22:41Z</time>
      </trkpt>
      <trkpt lat="59.332854" lon="17.984686">
        <ele>14.1</ele>
        <time>2015-05-05T20:22:42Z</time>
      </trkpt>
      <trkpt lat="59.332845" lon="17.984801">
        <ele>14.3</ele>
        <time>2015-05-05T20:22:43Z</time>
      </trkpt>
      <trkpt lat="59.332831" lon="17.98491">
        <ele>14.5</ele>
        <time>2015-05-05T20:22:44Z</time>
      </trkpt>
      <trkpt lat="59.332825" lon="17.985016">
        <ele>14.6</ele>
        <time>2015-05-05T20:22:45Z</time>
      </trkpt>
      <trkpt lat="59.332816" lon="17.985134">
        <ele>14.8</ele>
        <time>2015-05-05T20:22:46Z</time>
      </trkpt>
      <trkpt lat="59.332818" lon="17.985242">
        <ele>15</ele>
        <time>2015-05-05T20:22:47Z</time>
      </trkpt>
      <trkpt lat="59.332808" lon="17.985344">
        <ele>15.1</ele>
        <time>2015-05-05T20:22:48Z</time>
      </trkpt>
      <trkpt lat="59.332809" lon="17.985458">
        <ele>15.3</ele>
        <time>2015-05-05T20:22:49Z</time>
      </trkpt>
      <trkpt lat="59.332796" lon="17.985558">
        <ele>15.3</ele>
        <time>2015-05-05T20:22:50Z</time>
      </trkpt>
      <trkpt lat="59.332793" lon="17.985663">
        <ele>15.4</ele>
        <time>2015-05-05T20:22:51Z</time>
      </trkpt>
      <trkpt lat="59.332796" lon="17.985789">
        <ele>15.5</ele>
        <time>2015-05-05T20:22:52Z</time>
      </trkpt>
      <trkpt lat="59.332794" lon="17.98591">
        <ele>15.6</ele>
        <time>2015-05-05T20:22:53Z</time>
      </trkpt>
      <trkpt lat="59.332785" lon="17.986032">
        <ele>15.7</ele>
        <time>2015-05-05T20:22:54Z</time>
      </trkpt>
      <trkpt lat="59.332776" lon="17.986138">
        <ele>15.7</ele>
        <time>2015-05-05T20:22:55Z</time>
      </trkpt>
      <trkpt lat="59.332769" lon="17.986248">
        <ele>15.8</ele>
        <time>2015-05-05T20:22:56Z</time>
      </trkpt>
      <trkpt lat="59.332764" lon="17.986358">
        <ele>15.8</ele>
        <time>2015-05-05T20:22:57Z</time>
      </trkpt>
      <trkpt lat="59.33277" lon="17.986446">
        <ele>16</ele>
        <time>2015-05-05T20:22:58Z</time>
      </trkpt>
      <trkpt lat="59.332768" lon="17.986541">
        <ele>16</ele>
        <time>2015-05-05T20:22:59Z</time>
      </trkpt>
      <trkpt lat="59.332773" lon="17.986631">
        <ele>16.2</ele>
        <time>2015-05-05T20:23:00Z</time>
      </trkpt>
      <trkpt lat="59.332787" lon="17.986709">
        <ele>16.4</ele>
        <time>2015-05-05T20:23:01Z</time>
      </trkpt>
      <trkpt lat="59.332802" lon="17.986806">
        <ele>16.6</ele>
        <time>2015-05-05T20:23:02Z</time>
      </trkpt>
      <trkpt lat="59.3328" lon="17.986905">
        <ele>16.7</ele>
        <time>2015-05-05T20:23:03Z</time>
      </trkpt>
      <trkpt lat="59.332804" lon="17.987006">
        <ele>16.8</ele>
        <time>2015-05-05T20:23:04Z</time>
      </trkpt>
      <trkpt lat="59.3328" lon="17.987094">
        <ele>16.9</ele>
        <time>2015-05-05T20:23:05Z</time>
      </trkpt>
      <trkpt lat="59.332814" lon="17.98721">
        <ele>16.9</ele>
        <time>2015-05-05T20:23:06Z</time>
      </trkpt>
      <trkpt lat="59.332822" lon="17.987305">
        <ele>16.9</ele>
        <time>2015-05-05T20:23:07Z</time>
      </trkpt>
      <trkpt lat="59.332838" lon="17.987423">
        <ele>16.9</ele>
        <time>2015-05-05T20:23:08Z</time>
      </trkpt>
      <trkpt lat="59.332853" lon="17.987522">
        <ele>16.9</ele>
        <time>2015-05-05T20:23:09Z</time>
      </trkpt>
      <trkpt lat="59.332861" lon="17.987632">
        <ele>16.9</ele>
        <time>2015-05-05T20:23:10Z</time>
      </trkpt>
      <trkpt lat="59.332879" lon="17.987728">
        <ele>16.9</ele>
        <time>2015-05-05T20:23:11Z</time>
      </trkpt>
      <trkpt lat="59.332892" lon="17.987848">
        <ele>16.9</ele>
        <time>2015-05-05T20:23:12Z</time>
      </trkpt>
      <trkpt lat="59.332903" lon="17.987965">
        <ele>16.8</ele>
        <time>2015-05-05T20:23:13Z</time>
      </trkpt>
      <trkpt lat="59.332924" lon="17.988077">
        <ele>16.7</ele>
        <time>2015-05-05T20:23:14Z</time>
      </trkpt>
      <trkpt lat="59.332935" lon="17.98816">
        <ele>16.7</ele>
        <time>2015-05-05T20:23:15Z</time>
      </trkpt>
      <trkpt lat="59.332949" lon="17.988268">
        <ele>16.6</ele>
        <time>2015-05-05T20:23:16Z</time>
      </trkpt>
      <trkpt lat="59.332949" lon="17.988341">
        <ele>16.4</ele>
        <time>2015-05-05T20:23:17Z</time>
      </trkpt>
      <trkpt lat="59.332949" lon="17.988465">
        <ele>16.1</ele>
        <time>2015-05-05T20:23:18Z</time>
      </trkpt>
      <trkpt lat="59.332927" lon="17.988601">
        <ele>15.5</ele>
        <time>2015-05-05T20:23:19Z</time>
      </trkpt>
      <trkpt lat="59.332902" lon="17.988717">
        <ele>15</ele>
        <time>2015-05-05T20:23:20Z</time>
      </trkpt>
      <trkpt lat="59.332876" lon="17.988837">
        <ele>14.7</ele>
        <time>2015-05-05T20:23:21Z</time>
      </trkpt>
      <trkpt lat="59.332837" lon="17.988937">
        <ele>14.3</ele>
        <time>2015-05-05T20:23:22Z</time>
      </trkpt>
      <trkpt lat="59.332802" lon="17.989032">
        <ele>14</ele>
        <time>2015-05-05T20:23:23Z</time>
      </trkpt>
      <trkpt lat="59.332772" lon="17.989134">
        <ele>13.8</ele>
        <time>2015-05-05T20:23:24Z</time>
      </trkpt>
      <trkpt lat="59.332745" lon="17.989244">
        <ele>13.5</ele>
        <time>2015-05-05T20:23:25Z</time>
      </trkpt>
      <trkpt lat="59.332737" lon="17.989357">
        <ele>13.4</ele>
        <time>2015-05-05T20:23:26Z</time>
      </trkpt>
      <trkpt lat="59.332733" lon="17.98946">
        <ele>13.2</ele>
        <time>2015-05-05T20:23:27Z</time>
      </trkpt>
      <trkpt lat="59.332731" lon="17.989548">
        <ele>13.1</ele>
        <time>2015-05-05T20:23:28Z</time>
      </trkpt>
      <trkpt lat="59.332735" lon="17.98963">
        <ele>13.1</ele>
        <time>2015-05-05T20:23:29Z</time>
      </trkpt>
      <trkpt lat="59.332745" lon="17.989703">
        <ele>13.1</ele>
        <time>2015-05-05T20:23:30Z</time>
      </trkpt>
      <trkpt lat="59.332766" lon="17.989768">
        <ele>13.1</ele>
        <time>2015-05-05T20:23:31Z</time>
      </trkpt>
      <trkpt lat="59.33279" lon="17.989857">
        <ele>13.2</ele>
        <time>2015-05-05T20:23:32Z</time>
      </trkpt>
      <trkpt lat="59.332818" lon="17.989943">
        <ele>13.2</ele>
        <time>2015-05-05T20:23:33Z</time>
      </trkpt>
      <trkpt lat="59.332852" lon="17.990029">
        <ele>13.2</ele>
        <time>2015-05-05T20:23:34Z</time>
      </trkpt>
      <trkpt lat="59.332894" lon="17.990083">
        <ele>13.3</ele>
        <time>2015-05-05T20:23:35Z</time>
      </trkpt>
      <trkpt lat="59.332934" lon="17.990127">
        <ele>13.6</ele>
        <time>2015-05-05T20:23:36Z</time>
      </trkpt>
      <trkpt lat="59.332984" lon="17.990174">
        <ele>14.1</ele>
        <time>2015-05-05T20:23:37Z</time>
      </trkpt>
      <trkpt lat="59.333037" lon="17.990216">
        <ele>14.7</ele>
        <time>2015-05-05T20:23:38Z</time>
      </trkpt>
      <trkpt lat="59.33308" lon="17.99026">
        <ele>15.2</ele>
        <time>2015-05-05T20:23:39Z</time>
      </trkpt>
      <trkpt lat="59.333124" lon="17.990298">
        <ele>15.7</ele>
        <time>2015-05-05T20:23:40Z</time>
      </trkpt>
      <trkpt lat="59.333168" lon="17.99035">
        <ele>16.1</ele>
        <time>2015-05-05T20:23:41Z</time>
      </trkpt>
      <trkpt lat="59.333212" lon="17.990403">
        <ele>16.6</ele>
        <time>2015-05-05T20:23:42Z</time>
      </trkpt>
      <trkpt lat="59.333249" lon="17.990459">
        <ele>17</ele>
        <time>2015-05-05T20:23:43Z</time>
      </trkpt>
      <trkpt lat="59.333285" lon="17.990536">
        <ele>17.4</ele>
        <time>2015-05-05T20:23:44Z</time>
      </trkpt>
      <trkpt lat="59.333309" lon="17.990622">
        <ele>17.6</ele>
        <time>2015-05-05T20:23:45Z</time>
      </trkpt>
      <trkpt lat="59.333329" lon="17.990721">
        <ele>17.8</ele>
        <time>2015-05-05T20:23:46Z</time>
      </trkpt>
      <trkpt lat="59.33335" lon="17.990816">
        <ele>18</ele>
        <time>2015-05-05T20:23:47Z</time>
      </trkpt>
      <trkpt lat="59.333367" lon="17.990915">
        <ele>18.1</ele>
        <time>2015-05-05T20:23:48Z</time>
      </trkpt>
      <trkpt lat="59.333384" lon="17.991005">
        <ele>18.2</ele>
        <time>2015-05-05T20:23:49Z</time>
      </trkpt>
      <trkpt lat="59.333399" lon="17.991141">
        <ele>18.3</ele>
        <time>2015-05-05T20:23:50Z</time>
      </trkpt>
      <trkpt lat="59.33342" lon="17.991246">
        <ele>18.4</ele>
        <time>2015-05-05T20:23:51Z</time>
      </trkpt>
      <trkpt lat="59.333429" lon="17.991346">
        <ele>18.4</ele>
        <time>2015-05-05T20:23:52Z</time>
      </trkpt>
      <trkpt lat="59.333446" lon="17.99144">
        <ele>18.5</ele>
        <time>2015-05-05T20:23:53Z</time>
      </trkpt>
      <trkpt lat="59.333459" lon="17.991539">
        <ele>18.5</ele>
        <time>2015-05-05T20:23:54Z</time>
      </trkpt>
      <trkpt lat="59.333464" lon="17.991635">
        <ele>18.5</ele>
        <time>2015-05-05T20:23:55Z</time>
      </trkpt>
      <trkpt lat="59.333473" lon="17.991733">
        <ele>18.4</ele>
        <time>2015-05-05T20:23:56Z</time>
      </trkpt>
      <trkpt lat="59.333475" lon="17.991844">
        <ele>18.3</ele>
        <time>2015-05-05T20:23:57Z</time>
      </trkpt>
      <trkpt lat="59.333481" lon="17.991938">
        <ele>18.2</ele>
        <time>2015-05-05T20:23:58Z</time>
      </trkpt>
      <trkpt lat="59.333487" lon="17.992033">
        <ele>18.2</ele>
        <time>2015-05-05T20:23:59Z</time>
      </trkpt>
      <trkpt lat="59.333493" lon="17.992134">
        <ele>17.9</ele>
        <time>2015-05-05T20:24:00Z</time>
      </trkpt>
      <trkpt lat="59.333499" lon="17.99223">
        <ele>17.6</ele>
        <time>2015-05-05T20:24:01Z</time>
      </trkpt>
      <trkpt lat="59.333504" lon="17.992332">
        <ele>17.2</ele>
        <time>2015-05-05T20:24:02Z</time>
      </trkpt>
      <trkpt lat="59.333498" lon="17.992436">
        <ele>16.7</ele>
        <time>2015-05-05T20:24:03Z</time>
      </trkpt>
      <trkpt lat="59.333504" lon="17.99255">
        <ele>16.2</ele>
        <time>2015-05-05T20:24:04Z</time>
      </trkpt>
      <trkpt lat="59.333498" lon="17.992652">
        <ele>15.7</ele>
        <time>2015-05-05T20:24:05Z</time>
      </trkpt>
      <trkpt lat="59.333501" lon="17.992756">
        <ele>15.3</ele>
        <time>2015-05-05T20:24:06Z</time>
      </trkpt>
      <trkpt lat="59.333495" lon="17.992846">
        <ele>14.9</ele>
        <time>2015-05-05T20:24:07Z</time>
      </trkpt>
      <trkpt lat="59.333494" lon="17.992933">
        <ele>14.5</ele>
        <time>2015-05-05T20:24:08Z</time>
      </trkpt>
      <trkpt lat="59.333482" lon="17.993035">
        <ele>13.8</ele>
        <time>2015-05-05T20:24:09Z</time>
      </trkpt>
      <trkpt lat="59.333477" lon="17.993132">
        <ele>13.2</ele>
        <time>2015-05-05T20:24:10Z</time>
      </trkpt>
      <trkpt lat="59.333478" lon="17.993237">
        <ele>12.6</ele>
        <time>2015-05-05T20:24:11Z</time>
      </trkpt>
      <trkpt lat="59.333482" lon="17.99333">
        <ele>12.1</ele>
        <time>2015-05-05T20:24:12Z</time>
      </trkpt>
      <trkpt lat="59.333475" lon="17.993452">
        <ele>11.4</ele>
        <time>2015-05-05T20:24:13Z</time>
      </trkpt>
      <trkpt lat="59.333472" lon="17.993545">
        <ele>10.8</ele>
        <time>2015-05-05T20:24:14Z</time>
      </trkpt>
      <trkpt lat="59.333469" lon="17.99363">
        <ele>10.3</ele>
        <time>2015-05-05T20:24:15Z</time>
      </trkpt>
      <trkpt lat="59.333463" lon="17.993729">
        <ele>9.7</ele>
        <time>2015-05-05T20:24:16Z</time>
      </trkpt>
      <trkpt lat="59.333444" lon="17.993827">
        <ele>9</ele>
        <time>2015-05-05T20:24:17Z</time>
      </trkpt>
      <trkpt lat="59.333442" lon="17.993953">
        <ele>8.5</ele>
        <time>2015-05-05T20:24:18Z</time>
      </trkpt>
      <trkpt lat="59.333441" lon="17.994075">
        <ele>8.1</ele>
        <time>2015-05-05T20:24:19Z</time>
      </trkpt>
      <trkpt lat="59.333437" lon="17.994178">
        <ele>7.6</ele>
        <time>2015-05-05T20:24:20Z</time>
      </trkpt>
      <trkpt lat="59.333428" lon="17.994292">
        <ele>7.1</ele>
        <time>2015-05-05T20:24:21Z</time>
      </trkpt>
      <trkpt lat="59.333431" lon="17.994401">
        <ele>6.8</ele>
        <time>2015-05-05T20:24:22Z</time>
      </trkpt>
      <trkpt lat="59.333433" lon="17.994504">
        <ele>6.4</ele>
        <time>2015-05-05T20:24:23Z</time>
      </trkpt>
      <trkpt lat="59.333435" lon="17.994594">
        <ele>6.1</ele>
        <time>2015-05-05T20:24:24Z</time>
      </trkpt>
      <trkpt lat="59.333433" lon="17.99472">
        <ele>5.6</ele>
        <time>2015-05-05T20:24:25Z</time>
      </trkpt>
      <trkpt lat="59.333436" lon="17.994831">
        <ele>5.2</ele>
        <time>2015-05-05T20:24:26Z</time>
      </trkpt>
      <trkpt lat="59.333437" lon="17.994937">
        <ele>4.8</ele>
        <time>2015-05-05T20:24:27Z</time>
      </trkpt>
      <trkpt lat="59.333432" lon="17.995039">
        <ele>4.4</ele>
        <time>2015-05-05T20:24:28Z</time>
      </trkpt>
      <trkpt lat="59.333427" lon="17.995143">
        <ele>4</ele>
        <time>2015-05-05T20:24:29Z</time>
      </trkpt>
      <trkpt lat="59.333424" lon="17.995259">
        <ele>3.6</ele>
        <time>2015-05-05T20:24:30Z</time>
      </trkpt>
      <trkpt lat="59.33342" lon="17.995385">
        <ele>3.1</ele>
        <time>2015-05-05T20:24:31Z</time>
      </trkpt>
      <trkpt lat="59.333411" lon="17.995528">
        <ele>3.3</ele>
        <time>2015-05-05T20:24:32Z</time>
      </trkpt>
      <trkpt lat="59.333407" lon="17.995634">
        <ele>3.6</ele>
        <time>2015-05-05T20:24:33Z</time>
      </trkpt>
      <trkpt lat="59.333401" lon="17.995741">
        <ele>3.9</ele>
        <time>2015-05-05T20:24:34Z</time>
      </trkpt>
      <trkpt lat="59.333398" lon="17.99585">
        <ele>4.2</ele>
        <time>2015-05-05T20:24:35Z</time>
      </trkpt>
      <trkpt lat="59.333398" lon="17.995958">
        <ele>4.5</ele>
        <time>2015-05-05T20:24:36Z</time>
      </trkpt>
      <trkpt lat="59.333389" lon="17.996057">
        <ele>4.7</ele>
        <time>2015-05-05T20:24:37Z</time>
      </trkpt>
      <trkpt lat="59.333389" lon="17.99619">
        <ele>5.1</ele>
        <time>2015-05-05T20:24:38Z</time>
      </trkpt>
      <trkpt lat="59.333388" lon="17.996324">
        <ele>5.5</ele>
        <time>2015-05-05T20:24:39Z</time>
      </trkpt>
      <trkpt lat="59.333387" lon="17.996455">
        <ele>6</ele>
        <time>2015-05-05T20:24:40Z</time>
      </trkpt>
      <trkpt lat="59.333385" lon="17.99658">
        <ele>6.4</ele>
        <time>2015-05-05T20:24:41Z</time>
      </trkpt>
      <trkpt lat="59.333374" lon="17.996684">
        <ele>6.6</ele>
        <time>2015-05-05T20:24:42Z</time>
      </trkpt>
      <trkpt lat="59.333368" lon="17.996793">
        <ele>6.9</ele>
        <time>2015-05-05T20:24:43Z</time>
      </trkpt>
      <trkpt lat="59.333363" lon="17.996902">
        <ele>7.2</ele>
        <time>2015-05-05T20:24:44Z</time>
      </trkpt>
      <trkpt lat="59.333351" lon="17.997016">
        <ele>7.5</ele>
        <time>2015-05-05T20:24:45Z</time>
      </trkpt>
      <trkpt lat="59.333345" lon="17.997117">
        <ele>7.8</ele>
        <time>2015-05-05T20:24:46Z</time>
      </trkpt>
      <trkpt lat="59.333339" lon="17.997247">
        <ele>8.3</ele>
        <time>2015-05-05T20:24:47Z</time>
      </trkpt>
      <trkpt lat="59.333335" lon="17.997384">
        <ele>9</ele>
        <time>2015-05-05T20:24:48Z</time>
      </trkpt>
      <trkpt lat="59.333332" lon="17.997533">
        <ele>9.6</ele>
        <time>2015-05-05T20:24:49Z</time>
      </trkpt>
      <trkpt lat="59.333316" lon="17.997687">
        <ele>10.2</ele>
        <time>2015-05-05T20:24:50Z</time>
      </trkpt>
      <trkpt lat="59.333292" lon="17.997837">
        <ele>10.8</ele>
        <time>2015-05-05T20:24:51Z</time>
      </trkpt>
      <trkpt lat="59.33327" lon="17.997984">
        <ele>11.4</ele>
        <time>2015-05-05T20:24:52Z</time>
      </trkpt>
      <trkpt lat="59.333259" lon="17.998147">
        <ele>12.3</ele>
        <time>2015-05-05T20:24:53Z</time>
      </trkpt>
      <trkpt lat="59.333241" lon="17.998286">
        <ele>13</ele>
        <time>2015-05-05T20:24:54Z</time>
      </trkpt>
      <trkpt lat="59.333224" lon="17.998442">
        <ele>13.9</ele>
        <time>2015-05-05T20:24:55Z</time>
      </trkpt>
      <trkpt lat="59.333201" lon="17.998591">
        <ele>14.7</ele>
        <time>2015-05-05T20:24:56Z</time>
      </trkpt>
      <trkpt lat="59.333179" lon="17.998743">
        <ele>15.5</ele>
        <time>2015-05-05T20:24:57Z</time>
      </trkpt>
      <trkpt lat="59.333154" lon="17.9989">
        <ele>15.7</ele>
        <time>2015-05-05T20:24:58Z</time>
      </trkpt>
      <trkpt lat="59.333134" lon="17.999067">
        <ele>15.9</ele>
        <time>2015-05-05T20:24:59Z</time>
      </trkpt>
      <trkpt lat="59.333112" lon="17.999219">
        <ele>16</ele>
        <time>2015-05-05T20:25:00Z</time>
      </trkpt>
      <trkpt lat="59.333088" lon="17.999368">
        <ele>16.1</ele>
        <time>2015-05-05T20:25:01Z</time>
      </trkpt>
      <trkpt lat="59.333063" lon="17.999518">
        <ele>16.1</ele>
        <time>2015-05-05T20:25:02Z</time>
      </trkpt>
      <trkpt lat="59.333031" lon="17.999699">
        <ele>16.3</ele>
        <time>2015-05-05T20:25:03Z</time>
      </trkpt>
      <trkpt lat="59.333008" lon="17.999856">
        <ele>16.5</ele>
        <time>2015-05-05T20:25:04Z</time>
      </trkpt>
      <trkpt lat="59.332983" lon="18.000002">
        <ele>16.6</ele>
        <time>2015-05-05T20:25:05Z</time>
      </trkpt>
      <trkpt lat="59.332962" lon="18.000159">
        <ele>16.8</ele>
        <time>2015-05-05T20:25:06Z</time>
      </trkpt>
      <trkpt lat="59.332935" lon="18.000321">
        <ele>17</ele>
        <time>2015-05-05T20:25:07Z</time>
      </trkpt>
      <trkpt lat="59.332911" lon="18.000478">
        <ele>17.1</ele>
        <time>2015-05-05T20:25:08Z</time>
      </trkpt>
      <trkpt lat="59.332883" lon="18.000638">
        <ele>17.5</ele>
        <time>2015-05-05T20:25:09Z</time>
      </trkpt>
      <trkpt lat="59.332855" lon="18.000766">
        <ele>17.9</ele>
        <time>2015-05-05T20:25:10Z</time>
      </trkpt>
      <trkpt lat="59.33282" lon="18.000933">
        <ele>18.4</ele>
        <time>2015-05-05T20:25:11Z</time>
      </trkpt>
      <trkpt lat="59.33279" lon="18.001093">
        <ele>18.8</ele>
        <time>2015-05-05T20:25:12Z</time>
      </trkpt>
      <trkpt lat="59.332754" lon="18.00126">
        <ele>19.2</ele>
        <time>2015-05-05T20:25:13Z</time>
      </trkpt>
      <trkpt lat="59.332723" lon="18.001427">
        <ele>19.7</ele>
        <time>2015-05-05T20:25:14Z</time>
      </trkpt>
      <trkpt lat="59.332699" lon="18.001601">
        <ele>20.1</ele>
        <time>2015-05-05T20:25:15Z</time>
      </trkpt>
      <trkpt lat="59.332675" lon="18.001761">
        <ele>20.4</ele>
        <time>2015-05-05T20:25:16Z</time>
      </trkpt>
      <trkpt lat="59.332648" lon="18.001961">
        <ele>20.8</ele>
        <time>2015-05-05T20:25:17Z</time>
      </trkpt>
      <trkpt lat="59.332626" lon="18.002139">
        <ele>21</ele>
        <time>2015-05-05T20:25:18Z</time>
      </trkpt>
      <trkpt lat="59.332594" lon="18.00231">
        <ele>21.1</ele>
        <time>2015-05-05T20:25:19Z</time>
      </trkpt>
      <trkpt lat="59.33256" lon="18.002479">
        <ele>21.1</ele>
        <time>2015-05-05T20:25:20Z</time>
      </trkpt>
      <trkpt lat="59.332525" lon="18.002639">
        <ele>21.1</ele>
        <time>2015-05-05T20:25:21Z</time>
      </trkpt>
      <trkpt lat="59.332488" lon="18.002805">
        <ele>21.1</ele>
        <time>2015-05-05T20:25:22Z</time>
      </trkpt>
      <trkpt lat="59.332462" lon="18.002957">
        <ele>21.1</ele>
        <time>2015-05-05T20:25:23Z</time>
      </trkpt>
      <trkpt lat="59.332438" lon="18.003118">
        <ele>21</ele>
        <time>2015-05-05T20:25:24Z</time>
      </trkpt>
      <trkpt lat="59.332412" lon="18.003281">
        <ele>20.9</ele>
        <time>2015-05-05T20:25:25Z</time>
      </trkpt>
      <trkpt lat="59.332385" lon="18.003447">
        <ele>20.7</ele>
        <time>2015-05-05T20:25:26Z</time>
      </trkpt>
      <trkpt lat="59.332353" lon="18.003628">
        <ele>20.5</ele>
        <time>2015-05-05T20:25:27Z</time>
      </trkpt>
      <trkpt lat="59.332324" lon="18.003787">
        <ele>20.3</ele>
        <time>2015-05-05T20:25:28Z</time>
      </trkpt>
      <trkpt lat="59.332298" lon="18.003952">
        <ele>20.3</ele>
        <time>2015-05-05T20:25:29Z</time>
      </trkpt>
      <trkpt lat="59.332265" lon="18.004121">
        <ele>20.3</ele>
        <time>2015-05-05T20:25:30Z</time>
      </trkpt>
      <trkpt lat="59.332237" lon="18.004284">
        <ele>20.3</ele>
        <time>2015-05-05T20:25:31Z</time>
      </trkpt>
      <trkpt lat="59.332207" lon="18.004459">
        <ele>20.3</ele>
        <time>2015-05-05T20:25:32Z</time>
      </trkpt>
      <trkpt lat="59.332168" lon="18.004572">
        <ele>20.2</ele>
        <time>2015-05-05T20:25:33Z</time>
      </trkpt>
      <trkpt lat="59.332136" lon="18.004714">
        <ele>20</ele>
        <time>2015-05-05T20:25:34Z</time>
      </trkpt>
      <trkpt lat="59.332107" lon="18.004872">
        <ele>19.7</ele>
        <time>2015-05-05T20:25:35Z</time>
      </trkpt>
      <trkpt lat="59.332097" lon="18.005014">
        <ele>19.5</ele>
        <time>2015-05-05T20:25:36Z</time>
      </trkpt>
      <trkpt lat="59.332076" lon="18.005158">
        <ele>19.4</ele>
        <time>2015-05-05T20:25:37Z</time>
      </trkpt>
      <trkpt lat="59.332046" lon="18.00532">
        <ele>19.5</ele>
        <time>2015-05-05T20:25:38Z</time>
      </trkpt>
      <trkpt lat="59.332016" lon="18.005475">
        <ele>19.6</ele>
        <time>2015-05-05T20:25:39Z</time>
      </trkpt>
      <trkpt lat="59.331986" lon="18.005632">
        <ele>19.9</ele>
        <time>2015-05-05T20:25:40Z</time>
      </trkpt>
      <trkpt lat="59.331947" lon="18.005783">
        <ele>20.3</ele>
        <time>2015-05-05T20:25:41Z</time>
      </trkpt>
      <trkpt lat="59.331914" lon="18.005932">
        <ele>20.6</ele>
        <time>2015-05-05T20:25:42Z</time>
      </trkpt>
      <trkpt lat="59.331881" lon="18.006099">
        <ele>20.9</ele>
        <time>2015-05-05T20:25:43Z</time>
      </trkpt>
      <trkpt lat="59.331853" lon="18.006254">
        <ele>21.2</ele>
        <time>2015-05-05T20:25:44Z</time>
      </trkpt>
      <trkpt lat="59.331819" lon="18.006424">
        <ele>21.3</ele>
        <time>2015-05-05T20:25:45Z</time>
      </trkpt>
      <trkpt lat="59.33179" lon="18.006576">
        <ele>21.4</ele>
        <time>2015-05-05T20:25:46Z</time>
      </trkpt>
      <trkpt lat="59.331753" lon="18.006729">
        <ele>21.6</ele>
        <time>2015-05-05T20:25:47Z</time>
      </trkpt>
      <trkpt lat="59.331707" lon="18.006883">
        <ele>21.9</ele>
        <time>2015-05-05T20:25:48Z</time>
      </trkpt>
      <trkpt lat="59.331643" lon="18.00702">
        <ele>22.3</ele>
        <time>2015-05-05T20:25:49Z</time>
      </trkpt>
      <trkpt lat="59.331598" lon="18.007178">
        <ele>22.6</ele>
        <time>2015-05-05T20:25:50Z</time>
      </trkpt>
      <trkpt lat="59.331554" lon="18.007336">
        <ele>22.9</ele>
        <time>2015-05-05T20:25:51Z</time>
      </trkpt>
      <trkpt lat="59.331507" lon="18.007506">
        <ele>23.2</ele>
        <time>2015-05-05T20:25:52Z</time>
      </trkpt>
      <trkpt lat="59.33146" lon="18.007646">
        <ele>23.5</ele>
        <time>2015-05-05T20:25:53Z</time>
      </trkpt>
      <trkpt lat="59.331416" lon="18.007804">
        <ele>23.7</ele>
        <time>2015-05-05T20:25:54Z</time>
      </trkpt>
      <trkpt lat="59.331376" lon="18.007974">
        <ele>23.8</ele>
        <time>2015-05-05T20:25:55Z</time>
      </trkpt>
      <trkpt lat="59.331335" lon="18.00814">
        <ele>23.8</ele>
        <time>2015-05-05T20:25:56Z</time>
      </trkpt>
      <trkpt lat="59.331285" lon="18.008295">
        <ele>23.8</ele>
        <time>2015-05-05T20:25:57Z</time>
      </trkpt>
      <trkpt lat="59.331234" lon="18.008451">
        <ele>23.9</ele>
        <time>2015-05-05T20:25:58Z</time>
      </trkpt>
      <trkpt lat="59.331189" lon="18.008612">
        <ele>23.9</ele>
        <time>2015-05-05T20:25:59Z</time>
      </trkpt>
      <trkpt lat="59.331141" lon="18.008772">
        <ele>24</ele>
        <time>2015-05-05T20:26:00Z</time>
      </trkpt>
      <trkpt lat="59.3311" lon="18.008922">
        <ele>24.4</ele>
        <time>2015-05-05T20:26:01Z</time>
      </trkpt>
      <trkpt lat="59.331067" lon="18.00909">
        <ele>24.6</ele>
        <time>2015-05-05T20:26:02Z</time>
      </trkpt>
      <trkpt lat="59.331032" lon="18.009259">
        <ele>24.8</ele>
        <time>2015-05-05T20:26:03Z</time>
      </trkpt>
      <trkpt lat="59.33104" lon="18.009449">
        <ele>24.6</ele>
        <time>2015-05-05T20:26:04Z</time>
      </trkpt>
      <trkpt lat="59.331025" lon="18.009607">
        <ele>24.6</ele>
        <time>2015-05-05T20:26:05Z</time>
      </trkpt>
      <trkpt lat="59.331018" lon="18.009758">
        <ele>24.4</ele>
        <time>2015-05-05T20:26:06Z</time>
      </trkpt>
      <trkpt lat="59.331016" lon="18.009898">
        <ele>24.2</ele>
        <time>2015-05-05T20:26:07Z</time>
      </trkpt>
      <trkpt lat="59.331015" lon="18.010036">
        <ele>24</ele>
        <time>2015-05-05T20:26:08Z</time>
      </trkpt>
      <trkpt lat="59.331019" lon="18.01016">
        <ele>23.8</ele>
        <time>2015-05-05T20:26:09Z</time>
      </trkpt>
      <trkpt lat="59.330997" lon="18.010343">
        <ele>23.6</ele>
        <time>2015-05-05T20:26:10Z</time>
      </trkpt>
      <trkpt lat="59.330987" lon="18.010515">
        <ele>23.7</ele>
        <time>2015-05-05T20:26:11Z</time>
      </trkpt>
      <trkpt lat="59.330929" lon="18.010666">
        <ele>24.2</ele>
        <time>2015-05-05T20:26:12Z</time>
      </trkpt>
      <trkpt lat="59.330928" lon="18.010804">
        <ele>24.4</ele>
        <time>2015-05-05T20:26:13Z</time>
      </trkpt>
      <trkpt lat="59.330915" lon="18.010931">
        <ele>24.6</ele>
        <time>2015-05-05T20:26:14Z</time>
      </trkpt>
      <trkpt lat="59.330934" lon="18.011107">
        <ele>24.7</ele>
        <time>2015-05-05T20:26:15Z</time>
      </trkpt>
      <trkpt lat="59.330916" lon="18.011233">
        <ele>25</ele>
        <time>2015-05-05T20:26:16Z</time>
      </trkpt>
      <trkpt lat="59.3309" lon="18.011376">
        <ele>25.3</ele>
        <time>2015-05-05T20:26:17Z</time>
      </trkpt>
      <trkpt lat="59.330908" lon="18.011511">
        <ele>25.5</ele>
        <time>2015-05-05T20:26:18Z</time>
      </trkpt>
      <trkpt lat="59.330915" lon="18.011616">
        <ele>25.6</ele>
        <time>2015-05-05T20:26:19Z</time>
      </trkpt>
      <trkpt lat="59.3309" lon="18.011702">
        <ele>25.9</ele>
        <time>2015-05-05T20:26:20Z</time>
      </trkpt>
      <trkpt lat="59.330912" lon="18.011836">
        <ele>26</ele>
        <time>2015-05-05T20:26:21Z</time>
      </trkpt>
      <trkpt lat="59.33091" lon="18.011965">
        <ele>26.2</ele>
        <time>2015-05-05T20:26:22Z</time>
      </trkpt>
      <trkpt lat="59.33092" lon="18.012065">
        <ele>26.3</ele>
        <time>2015-05-05T20:26:23Z</time>
      </trkpt>
      <trkpt lat="59.330945" lon="18.012217">
        <ele>26.2</ele>
        <time>2015-05-05T20:26:24Z</time>
      </trkpt>
      <trkpt lat="59.330951" lon="18.012346">
        <ele>26.2</ele>
        <time>2015-05-05T20:26:25Z</time>
      </trkpt>
      <trkpt lat="59.33097" lon="18.012471">
        <ele>26</ele>
        <time>2015-05-05T20:26:26Z</time>
      </trkpt>
      <trkpt lat="59.330988" lon="18.012595">
        <ele>25.9</ele>
        <time>2015-05-05T20:26:27Z</time>
      </trkpt>
      <trkpt lat="59.330991" lon="18.012739">
        <ele>25.9</ele>
        <time>2015-05-05T20:26:28Z</time>
      </trkpt>
      <trkpt lat="59.330992" lon="18.01287">
        <ele>25.9</ele>
        <time>2015-05-05T20:26:29Z</time>
      </trkpt>
      <trkpt lat="59.330997" lon="18.013012">
        <ele>25.9</ele>
        <time>2015-05-05T20:26:30Z</time>
      </trkpt>
      <trkpt lat="59.331006" lon="18.013165">
        <ele>26</ele>
        <time>2015-05-05T20:26:31Z</time>
      </trkpt>
      <trkpt lat="59.331008" lon="18.013305">
        <ele>26.1</ele>
        <time>2015-05-05T20:26:32Z</time>
      </trkpt>
      <trkpt lat="59.331018" lon="18.013426">
        <ele>26.1</ele>
        <time>2015-05-05T20:26:33Z</time>
      </trkpt>
      <trkpt lat="59.331023" lon="18.013546">
        <ele>26.2</ele>
        <time>2015-05-05T20:26:34Z</time>
      </trkpt>
      <trkpt lat="59.331017" lon="18.013665">
        <ele>26.3</ele>
        <time>2015-05-05T20:26:35Z</time>
      </trkpt>
      <trkpt lat="59.331024" lon="18.013798">
        <ele>26.3</ele>
        <time>2015-05-05T20:26:36Z</time>
      </trkpt>
      <trkpt lat="59.331044" lon="18.013935">
        <ele>26.1</ele>
        <time>2015-05-05T20:26:37Z</time>
      </trkpt>
      <trkpt lat="59.33105" lon="18.014089">
        <ele>25.9</ele>
        <time>2015-05-05T20:26:38Z</time>
      </trkpt>
      <trkpt lat="59.331047" lon="18.014238">
        <ele>25.8</ele>
        <time>2015-05-05T20:26:39Z</time>
      </trkpt>
      <trkpt lat="59.331055" lon="18.014381">
        <ele>25.6</ele>
        <time>2015-05-05T20:26:40Z</time>
      </trkpt>
      <trkpt lat="59.331058" lon="18.014548">
        <ele>25.4</ele>
        <time>2015-05-05T20:26:41Z</time>
      </trkpt>
      <trkpt lat="59.331066" lon="18.014705">
        <ele>25.1</ele>
        <time>2015-05-05T20:26:42Z</time>
      </trkpt>
      <trkpt lat="59.331071" lon="18.014878">
        <ele>24.7</ele>
        <time>2015-05-05T20:26:43Z</time>
      </trkpt>
      <trkpt lat="59.331089" lon="18.015056">
        <ele>24.1</ele>
        <time>2015-05-05T20:26:44Z</time>
      </trkpt>
      <trkpt lat="59.331098" lon="18.015235">
        <ele>23.7</ele>
        <time>2015-05-05T20:26:45Z</time>
      </trkpt>
      <trkpt lat="59.331105" lon="18.015428">
        <ele>23.2</ele>
        <time>2015-05-05T20:26:46Z</time>
      </trkpt>
      <trkpt lat="59.331118" lon="18.015609">
        <ele>22.6</ele>
        <time>2015-05-05T20:26:47Z</time>
      </trkpt>
      <trkpt lat="59.331134" lon="18.015804">
        <ele>22</ele>
        <time>2015-05-05T20:26:48Z</time>
      </trkpt>
      <trkpt lat="59.331145" lon="18.016004">
        <ele>21.5</ele>
        <time>2015-05-05T20:26:49Z</time>
      </trkpt>
      <trkpt lat="59.331158" lon="18.01619">
        <ele>20.9</ele>
        <time>2015-05-05T20:26:50Z</time>
      </trkpt>
      <trkpt lat="59.331171" lon="18.016386">
        <ele>20.3</ele>
        <time>2015-05-05T20:26:51Z</time>
      </trkpt>
      <trkpt lat="59.33119" lon="18.016571">
        <ele>19.7</ele>
        <time>2015-05-05T20:26:52Z</time>
      </trkpt>
      <trkpt lat="59.331202" lon="18.016746">
        <ele>19.2</ele>
        <time>2015-05-05T20:26:53Z</time>
      </trkpt>
      <trkpt lat="59.331221" lon="18.016902">
        <ele>18.7</ele>
        <time>2015-05-05T20:26:54Z</time>
      </trkpt>
      <trkpt lat="59.331237" lon="18.017059">
        <ele>18.2</ele>
        <time>2015-05-05T20:26:55Z</time>
      </trkpt>
      <trkpt lat="59.331251" lon="18.017209">
        <ele>18</ele>
        <time>2015-05-05T20:26:56Z</time>
      </trkpt>
      <trkpt lat="59.331269" lon="18.017372">
        <ele>18</ele>
        <time>2015-05-05T20:26:57Z</time>
      </trkpt>
      <trkpt lat="59.331281" lon="18.017534">
        <ele>18</ele>
        <time>2015-05-05T20:26:58Z</time>
      </trkpt>
      <trkpt lat="59.331295" lon="18.017698">
        <ele>17.9</ele>
        <time>2015-05-05T20:26:59Z</time>
      </trkpt>
      <trkpt lat="59.331307" lon="18.017841">
        <ele>17.9</ele>
        <time>2015-05-05T20:27:00Z</time>
      </trkpt>
      <trkpt lat="59.331321" lon="18.018021">
        <ele>17.8</ele>
        <time>2015-05-05T20:27:01Z</time>
      </trkpt>
      <trkpt lat="59.33132" lon="18.018155">
        <ele>17.6</ele>
        <time>2015-05-05T20:27:02Z</time>
      </trkpt>
      <trkpt lat="59.331324" lon="18.018298">
        <ele>17.5</ele>
        <time>2015-05-05T20:27:03Z</time>
      </trkpt>
      <trkpt lat="59.331297" lon="18.018488">
        <ele>17.3</ele>
        <time>2015-05-05T20:27:04Z</time>
      </trkpt>
      <trkpt lat="59.331268" lon="18.018633">
        <ele>17.1</ele>
        <time>2015-05-05T20:27:05Z</time>
      </trkpt>
      <trkpt lat="59.331243" lon="18.018789">
        <ele>17</ele>
        <time>2015-05-05T20:27:06Z</time>
      </trkpt>
      <trkpt lat="59.331218" lon="18.018915">
        <ele>16.9</ele>
        <time>2015-05-05T20:27:07Z</time>
      </trkpt>
      <trkpt lat="59.331195" lon="18.019066">
        <ele>16.8</ele>
        <time>2015-05-05T20:27:08Z</time>
      </trkpt>
      <trkpt lat="59.331164" lon="18.019237">
        <ele>16.6</ele>
        <time>2015-05-05T20:27:09Z</time>
      </trkpt>
      <trkpt lat="59.331128" lon="18.019389">
        <ele>16.5</ele>
        <time>2015-05-05T20:27:10Z</time>
      </trkpt>
      <trkpt lat="59.331088" lon="18.019516">
        <ele>16.5</ele>
        <time>2015-05-05T20:27:11Z</time>
      </trkpt>
      <trkpt lat="59.331046" lon="18.019637">
        <ele>16.4</ele>
        <time>2015-05-05T20:27:12Z</time>
      </trkpt>
      <trkpt lat="59.331005" lon="18.01976">
        <ele>16.2</ele>
        <time>2015-05-05T20:27:13Z</time>
      </trkpt>
      <trkpt lat="59.33096" lon="18.019871">
        <ele>16</ele>
        <time>2015-05-05T20:27:14Z</time>
      </trkpt>
      <trkpt lat="59.330903" lon="18.020014">
        <ele>15.8</ele>
        <time>2015-05-05T20:27:15Z</time>
      </trkpt>
      <trkpt lat="59.330844" lon="18.020132">
        <ele>15.7</ele>
        <time>2015-05-05T20:27:16Z</time>
      </trkpt>
      <trkpt lat="59.330796" lon="18.02026">
        <ele>15.5</ele>
        <time>2015-05-05T20:27:17Z</time>
      </trkpt>
      <trkpt lat="59.330737" lon="18.020386">
        <ele>15.3</ele>
        <time>2015-05-05T20:27:18Z</time>
      </trkpt>
      <trkpt lat="59.330685" lon="18.020496">
        <ele>15.2</ele>
        <time>2015-05-05T20:27:19Z</time>
      </trkpt>
      <trkpt lat="59.330627" lon="18.020566">
        <ele>15.2</ele>
        <time>2015-05-05T20:27:20Z</time>
      </trkpt>
      <trkpt lat="59.33056" lon="18.020605">
        <ele>15.2</ele>
        <time>2015-05-05T20:27:21Z</time>
      </trkpt>
      <trkpt lat="59.330486" lon="18.020593">
        <ele>15.4</ele>
        <time>2015-05-05T20:27:22Z</time>
      </trkpt>
      <trkpt lat="59.330422" lon="18.020574">
        <ele>15.6</ele>
        <time>2015-05-05T20:27:23Z</time>
      </trkpt>
      <trkpt lat="59.330356" lon="18.02056">
        <ele>16.1</ele>
        <time>2015-05-05T20:27:24Z</time>
      </trkpt>
      <trkpt lat="59.330294" lon="18.020593">
        <ele>16.4</ele>
        <time>2015-05-05T20:27:25Z</time>
      </trkpt>
      <trkpt lat="59.33025" lon="18.020664">
        <ele>16.5</ele>
        <time>2015-05-05T20:27:26Z</time>
      </trkpt>
      <trkpt lat="59.330209" lon="18.020762">
        <ele>16.6</ele>
        <time>2015-05-05T20:27:27Z</time>
      </trkpt>
      <trkpt lat="59.330168" lon="18.020818">
        <ele>16.7</ele>
        <time>2015-05-05T20:27:28Z</time>
      </trkpt>
      <trkpt lat="59.330135" lon="18.02085">
        <ele>16.8</ele>
        <time>2015-05-05T20:27:29Z</time>
      </trkpt>
      <trkpt lat="59.330131" lon="18.021076">
        <ele>16.2</ele>
        <time>2015-05-05T20:27:31Z</time>
      </trkpt>
      <trkpt lat="59.330129" lon="18.02118">
        <ele>15.9</ele>
        <time>2015-05-05T20:27:32Z</time>
      </trkpt>
      <trkpt lat="59.330174" lon="18.021341">
        <ele>15.1</ele>
        <time>2015-05-05T20:27:33Z</time>
      </trkpt>
      <trkpt lat="59.330204" lon="18.021428">
        <ele>14.6</ele>
        <time>2015-05-05T20:27:34Z</time>
      </trkpt>
      <trkpt lat="59.330235" lon="18.021525">
        <ele>14</ele>
        <time>2015-05-05T20:27:35Z</time>
      </trkpt>
      <trkpt lat="59.330271" lon="18.02161">
        <ele>13.5</ele>
        <time>2015-05-05T20:27:36Z</time>
      </trkpt>
      <trkpt lat="59.330308" lon="18.02168">
        <ele>13</ele>
        <time>2015-05-05T20:27:37Z</time>
      </trkpt>
      <trkpt lat="59.330344" lon="18.021772">
        <ele>12.5</ele>
        <time>2015-05-05T20:27:38Z</time>
      </trkpt>
      <trkpt lat="59.330373" lon="18.021864">
        <ele>12</ele>
        <time>2015-05-05T20:27:39Z</time>
      </trkpt>
      <trkpt lat="59.330371" lon="18.021993">
        <ele>11.6</ele>
        <time>2015-05-05T20:27:40Z</time>
      </trkpt>
      <trkpt lat="59.330344" lon="18.022098">
        <ele>11.4</ele>
        <time>2015-05-05T20:27:41Z</time>
      </trkpt>
      <trkpt lat="59.330313" lon="18.022242">
        <ele>11.6</ele>
        <time>2015-05-05T20:27:42Z</time>
      </trkpt>
      <trkpt lat="59.330279" lon="18.02236">
        <ele>11.8</ele>
        <time>2015-05-05T20:27:43Z</time>
      </trkpt>
      <trkpt lat="59.330248" lon="18.022483">
        <ele>12</ele>
        <time>2015-05-05T20:27:44Z</time>
      </trkpt>
      <trkpt lat="59.330226" lon="18.022609">
        <ele>12.1</ele>
        <time>2015-05-05T20:27:45Z</time>
      </trkpt>
      <trkpt lat="59.33021" lon="18.02274">
        <ele>12.2</ele>
        <time>2015-05-05T20:27:46Z</time>
      </trkpt>
      <trkpt lat="59.330201" lon="18.022909">
        <ele>12.3</ele>
        <time>2015-05-05T20:27:47Z</time>
      </trkpt>
      <trkpt lat="59.330161" lon="18.022998">
        <ele>12.4</ele>
        <time>2015-05-05T20:27:48Z</time>
      </trkpt>
      <trkpt lat="59.330125" lon="18.023132">
        <ele>12.5</ele>
        <time>2015-05-05T20:27:49Z</time>
      </trkpt>
      <trkpt lat="59.330095" lon="18.023227">
        <ele>12.6</ele>
        <time>2015-05-05T20:27:50Z</time>
      </trkpt>
      <trkpt lat="59.330047" lon="18.023354">
        <ele>12.6</ele>
        <time>2015-05-05T20:27:51Z</time>
      </trkpt>
      <trkpt lat="59.33002" lon="18.023464">
        <ele>12.5</ele>
        <time>2015-05-05T20:27:52Z</time>
      </trkpt>
      <trkpt lat="59.329995" lon="18.023566">
        <ele>12.5</ele>
        <time>2015-05-05T20:27:53Z</time>
      </trkpt>
      <trkpt lat="59.329966" lon="18.023683">
        <ele>12.4</ele>
        <time>2015-05-05T20:27:54Z</time>
      </trkpt>
      <trkpt lat="59.329943" lon="18.023798">
        <ele>12.4</ele>
        <time>2015-05-05T20:27:55Z</time>
      </trkpt>
      <trkpt lat="59.329911" lon="18.023907">
        <ele>12.5</ele>
        <time>2015-05-05T20:27:56Z</time>
      </trkpt>
      <trkpt lat="59.329872" lon="18.024018">
        <ele>12.6</ele>
        <time>2015-05-05T20:27:57Z</time>
      </trkpt>
      <trkpt lat="59.329843" lon="18.024136">
        <ele>12.7</ele>
        <time>2015-05-05T20:27:58Z</time>
      </trkpt>
      <trkpt lat="59.329812" lon="18.024246">
        <ele>12.7</ele>
        <time>2015-05-05T20:27:59Z</time>
      </trkpt>
      <trkpt lat="59.329787" lon="18.024359">
        <ele>12.8</ele>
        <time>2015-05-05T20:28:00Z</time>
      </trkpt>
      <trkpt lat="59.329756" lon="18.024469">
        <ele>12.8</ele>
        <time>2015-05-05T20:28:01Z</time>
      </trkpt>
      <trkpt lat="59.329731" lon="18.024571">
        <ele>12.9</ele>
        <time>2015-05-05T20:28:02Z</time>
      </trkpt>
      <trkpt lat="59.32969" lon="18.024685">
        <ele>12.9</ele>
        <time>2015-05-05T20:28:03Z</time>
      </trkpt>
      <trkpt lat="59.329659" lon="18.024798">
        <ele>13</ele>
        <time>2015-05-05T20:28:04Z</time>
      </trkpt>
      <trkpt lat="59.329632" lon="18.024913">
        <ele>13.1</ele>
        <time>2015-05-05T20:28:05Z</time>
      </trkpt>
      <trkpt lat="59.3296" lon="18.025021">
        <ele>13.2</ele>
        <time>2015-05-05T20:28:06Z</time>
      </trkpt>
      <trkpt lat="59.329563" lon="18.025143">
        <ele>13.4</ele>
        <time>2015-05-05T20:28:07Z</time>
      </trkpt>
      <trkpt lat="59.329523" lon="18.025262">
        <ele>13.7</ele>
        <time>2015-05-05T20:28:08Z</time>
      </trkpt>
      <trkpt lat="59.329484" lon="18.025382">
        <ele>14.1</ele>
        <time>2015-05-05T20:28:09Z</time>
      </trkpt>
      <trkpt lat="59.32945" lon="18.025514">
        <ele>14.2</ele>
        <time>2015-05-05T20:28:10Z</time>
      </trkpt>
      <trkpt lat="59.329415" lon="18.025638">
        <ele>14.3</ele>
        <time>2015-05-05T20:28:11Z</time>
      </trkpt>
      <trkpt lat="59.32937" lon="18.025752">
        <ele>14.3</ele>
        <time>2015-05-05T20:28:12Z</time>
      </trkpt>
      <trkpt lat="59.329331" lon="18.025851">
        <ele>14.4</ele>
        <time>2015-05-05T20:28:13Z</time>
      </trkpt>
      <trkpt lat="59.329299" lon="18.026014">
        <ele>14.3</ele>
        <time>2015-05-05T20:28:14Z</time>
      </trkpt>
      <trkpt lat="59.329258" lon="18.026132">
        <ele>14.2</ele>
        <time>2015-05-05T20:28:15Z</time>
      </trkpt>
      <trkpt lat="59.329229" lon="18.026252">
        <ele>14.2</ele>
        <time>2015-05-05T20:28:16Z</time>
      </trkpt>
      <trkpt lat="59.329188" lon="18.026375">
        <ele>14.1</ele>
        <time>2015-05-05T20:28:17Z</time>
      </trkpt>
      <trkpt lat="59.329153" lon="18.026515">
        <ele>13.9</ele>
        <time>2015-05-05T20:28:18Z</time>
      </trkpt>
      <trkpt lat="59.329116" lon="18.02665">
        <ele>13.8</ele>
        <time>2015-05-05T20:28:19Z</time>
      </trkpt>
      <trkpt lat="59.329081" lon="18.026767">
        <ele>13.5</ele>
        <time>2015-05-05T20:28:20Z</time>
      </trkpt>
      <trkpt lat="59.329038" lon="18.02688">
        <ele>13.2</ele>
        <time>2015-05-05T20:28:21Z</time>
      </trkpt>
      <trkpt lat="59.328997" lon="18.026992">
        <ele>12.9</ele>
        <time>2015-05-05T20:28:22Z</time>
      </trkpt>
      <trkpt lat="59.32896" lon="18.027116">
        <ele>12.5</ele>
        <time>2015-05-05T20:28:23Z</time>
      </trkpt>
      <trkpt lat="59.328932" lon="18.027219">
        <ele>12.4</ele>
        <time>2015-05-05T20:28:24Z</time>
      </trkpt>
      <trkpt lat="59.328898" lon="18.027332">
        <ele>12.2</ele>
        <time>2015-05-05T20:28:25Z</time>
      </trkpt>
      <trkpt lat="59.328854" lon="18.027449">
        <ele>11.9</ele>
        <time>2015-05-05T20:28:26Z</time>
      </trkpt>
      <trkpt lat="59.328807" lon="18.027556">
        <ele>11.5</ele>
        <time>2015-05-05T20:28:27Z</time>
      </trkpt>
      <trkpt lat="59.328767" lon="18.027674">
        <ele>11.2</ele>
        <time>2015-05-05T20:28:28Z</time>
      </trkpt>
      <trkpt lat="59.32872" lon="18.027762">
        <ele>10.8</ele>
        <time>2015-05-05T20:28:29Z</time>
      </trkpt>
      <trkpt lat="59.328692" lon="18.027897">
        <ele>10.7</ele>
        <time>2015-05-05T20:28:30Z</time>
      </trkpt>
      <trkpt lat="59.328664" lon="18.028015">
        <ele>10.4</ele>
        <time>2015-05-05T20:28:31Z</time>
      </trkpt>
      <trkpt lat="59.328633" lon="18.028126">
        <ele>10.2</ele>
        <time>2015-05-05T20:28:32Z</time>
      </trkpt>
      <trkpt lat="59.328594" lon="18.028224">
        <ele>9.9</ele>
        <time>2015-05-05T20:28:33Z</time>
      </trkpt>
      <trkpt lat="59.328571" lon="18.028361">
        <ele>9.6</ele>
        <time>2015-05-05T20:28:34Z</time>
      </trkpt>
      <trkpt lat="59.328553" lon="18.028485">
        <ele>9.3</ele>
        <time>2015-05-05T20:28:35Z</time>
      </trkpt>
      <trkpt lat="59.328537" lon="18.028618">
        <ele>9.1</ele>
        <time>2015-05-05T20:28:36Z</time>
      </trkpt>
      <trkpt lat="59.328522" lon="18.028746">
        <ele>8.8</ele>
        <time>2015-05-05T20:28:37Z</time>
      </trkpt>
      <trkpt lat="59.328496" lon="18.028872">
        <ele>8.9</ele>
        <time>2015-05-05T20:28:38Z</time>
      </trkpt>
      <trkpt lat="59.328472" lon="18.029005">
        <ele>8.9</ele>
        <time>2015-05-05T20:28:39Z</time>
      </trkpt>
      <trkpt lat="59.328443" lon="18.029107">
        <ele>8.9</ele>
        <time>2015-05-05T20:28:40Z</time>
      </trkpt>
      <trkpt lat="59.32843" lon="18.029267">
        <ele>9.1</ele>
        <time>2015-05-05T20:28:41Z</time>
      </trkpt>
      <trkpt lat="59.328414" lon="18.029362">
        <ele>9.1</ele>
        <time>2015-05-05T20:28:42Z</time>
      </trkpt>
      <trkpt lat="59.328387" lon="18.029444">
        <ele>8.9</ele>
        <time>2015-05-05T20:28:43Z</time>
      </trkpt>
      <trkpt lat="59.328354" lon="18.029516">
        <ele>8.6</ele>
        <time>2015-05-05T20:28:44Z</time>
      </trkpt>
      <trkpt lat="59.32832" lon="18.029616">
        <ele>8.4</ele>
        <time>2015-05-05T20:28:45Z</time>
      </trkpt>
      <trkpt lat="59.328325" lon="18.029718">
        <ele>8.7</ele>
        <time>2015-05-05T20:28:46Z</time>
      </trkpt>
      <trkpt lat="59.328318" lon="18.029809">
        <ele>8.8</ele>
        <time>2015-05-05T20:28:47Z</time>
      </trkpt>
      <trkpt lat="59.328313" lon="18.029917">
        <ele>9</ele>
        <time>2015-05-05T20:28:48Z</time>
      </trkpt>
      <trkpt lat="59.328297" lon="18.030027">
        <ele>9</ele>
        <time>2015-05-05T20:28:49Z</time>
      </trkpt>
      <trkpt lat="59.328289" lon="18.030166">
        <ele>9.2</ele>
        <time>2015-05-05T20:28:50Z</time>
      </trkpt>
      <trkpt lat="59.328267" lon="18.030279">
        <ele>9</ele>
        <time>2015-05-05T20:28:51Z</time>
      </trkpt>
      <trkpt lat="59.328251" lon="18.030411">
        <ele>9</ele>
        <time>2015-05-05T20:28:52Z</time>
      </trkpt>
      <trkpt lat="59.328235" lon="18.03058">
        <ele>8.7</ele>
        <time>2015-05-05T20:28:53Z</time>
      </trkpt>
      <trkpt lat="59.328217" lon="18.030699">
        <ele>8.4</ele>
        <time>2015-05-05T20:28:54Z</time>
      </trkpt>
      <trkpt lat="59.328206" lon="18.030818">
        <ele>8.2</ele>
        <time>2015-05-05T20:28:55Z</time>
      </trkpt>
      <trkpt lat="59.328191" lon="18.030936">
        <ele>7.9</ele>
        <time>2015-05-05T20:28:56Z</time>
      </trkpt>
      <trkpt lat="59.328176" lon="18.031054">
        <ele>7.7</ele>
        <time>2015-05-05T20:28:57Z</time>
      </trkpt>
      <trkpt lat="59.328159" lon="18.031151">
        <ele>7.4</ele>
        <time>2015-05-05T20:28:58Z</time>
      </trkpt>
      <trkpt lat="59.328125" lon="18.031278">
        <ele>6.8</ele>
        <time>2015-05-05T20:28:59Z</time>
      </trkpt>
      <trkpt lat="59.328104" lon="18.031381">
        <ele>6.4</ele>
        <time>2015-05-05T20:29:00Z</time>
      </trkpt>
      <trkpt lat="59.328082" lon="18.031476">
        <ele>6</ele>
        <time>2015-05-05T20:29:01Z</time>
      </trkpt>
      <trkpt lat="59.328061" lon="18.031584">
        <ele>5.7</ele>
        <time>2015-05-05T20:29:02Z</time>
      </trkpt>
      <trkpt lat="59.328057" lon="18.031735">
        <ele>5.6</ele>
        <time>2015-05-05T20:29:03Z</time>
      </trkpt>
      <trkpt lat="59.328057" lon="18.031874">
        <ele>5.7</ele>
        <time>2015-05-05T20:29:04Z</time>
      </trkpt>
      <trkpt lat="59.328045" lon="18.032008">
        <ele>5.5</ele>
        <time>2015-05-05T20:29:05Z</time>
      </trkpt>
      <trkpt lat="59.32804" lon="18.032137">
        <ele>5.4</ele>
        <time>2015-05-05T20:29:06Z</time>
      </trkpt>
      <trkpt lat="59.328032" lon="18.03225">
        <ele>5.2</ele>
        <time>2015-05-05T20:29:07Z</time>
      </trkpt>
      <trkpt lat="59.328022" lon="18.032354">
        <ele>5</ele>
        <time>2015-05-05T20:29:08Z</time>
      </trkpt>
      <trkpt lat="59.328006" lon="18.032485">
        <ele>4.7</ele>
        <time>2015-05-05T20:29:09Z</time>
      </trkpt>
      <trkpt lat="59.327988" lon="18.032627">
        <ele>4.4</ele>
        <time>2015-05-05T20:29:10Z</time>
      </trkpt>
      <trkpt lat="59.327962" lon="18.03274">
        <ele>3.9</ele>
        <time>2015-05-05T20:29:11Z</time>
      </trkpt>
      <trkpt lat="59.327949" lon="18.032828">
        <ele>3.6</ele>
        <time>2015-05-05T20:29:12Z</time>
      </trkpt>
      <trkpt lat="59.327929" lon="18.032968">
        <ele>3.2</ele>
        <time>2015-05-05T20:29:13Z</time>
      </trkpt>
      <trkpt lat="59.327927" lon="18.033032">
        <ele>3.2</ele>
        <time>2015-05-05T20:29:14Z</time>
      </trkpt>
      <trkpt lat="59.327923" lon="18.033183">
        <ele>3.1</ele>
        <time>2015-05-05T20:29:15Z</time>
      </trkpt>
      <trkpt lat="59.327914" lon="18.033297">
        <ele>3</ele>
        <time>2015-05-05T20:29:16Z</time>
      </trkpt>
      <trkpt lat="59.327891" lon="18.03342">
        <ele>3</ele>
        <time>2015-05-05T20:29:17Z</time>
      </trkpt>
      <trkpt lat="59.327852" lon="18.033544">
        <ele>3</ele>
        <time>2015-05-05T20:29:18Z</time>
      </trkpt>
      <trkpt lat="59.327828" lon="18.033663">
        <ele>3</ele>
        <time>2015-05-05T20:29:19Z</time>
      </trkpt>
      <trkpt lat="59.327816" lon="18.033827">
        <ele>3</ele>
        <time>2015-05-05T20:29:20Z</time>
      </trkpt>
      <trkpt lat="59.327798" lon="18.033937">
        <ele>3</ele>
        <time>2015-05-05T20:29:21Z</time>
      </trkpt>
      <trkpt lat="59.327782" lon="18.03407">
        <ele>3</ele>
        <time>2015-05-05T20:29:22Z</time>
      </trkpt>
      <trkpt lat="59.327761" lon="18.034183">
        <ele>3</ele>
        <time>2015-05-05T20:29:23Z</time>
      </trkpt>
      <trkpt lat="59.327746" lon="18.034293">
        <ele>3</ele>
        <time>2015-05-05T20:29:24Z</time>
      </trkpt>
      <trkpt lat="59.327723" lon="18.0344">
        <ele>3</ele>
        <time>2015-05-05T20:29:25Z</time>
      </trkpt>
      <trkpt lat="59.327708" lon="18.03453">
        <ele>3</ele>
        <time>2015-05-05T20:29:26Z</time>
      </trkpt>
      <trkpt lat="59.327686" lon="18.034654">
        <ele>3</ele>
        <time>2015-05-05T20:29:27Z</time>
      </trkpt>
      <trkpt lat="59.327676" lon="18.034775">
        <ele>3</ele>
        <time>2015-05-05T20:29:28Z</time>
      </trkpt>
      <trkpt lat="59.327647" lon="18.034895">
        <ele>3</ele>
        <time>2015-05-05T20:29:29Z</time>
      </trkpt>
      <trkpt lat="59.327637" lon="18.035001">
        <ele>3</ele>
        <time>2015-05-05T20:29:30Z</time>
      </trkpt>
      <trkpt lat="59.327622" lon="18.035136">
        <ele>3</ele>
        <time>2015-05-05T20:29:31Z</time>
      </trkpt>
      <trkpt lat="59.327598" lon="18.035246">
        <ele>3</ele>
        <time>2015-05-05T20:29:32Z</time>
      </trkpt>
      <trkpt lat="59.32758" lon="18.035384">
        <ele>3</ele>
        <time>2015-05-05T20:29:33Z</time>
      </trkpt>
      <trkpt lat="59.327564" lon="18.035486">
        <ele>3</ele>
        <time>2015-05-05T20:29:34Z</time>
      </trkpt>
      <trkpt lat="59.327543" lon="18.035587">
        <ele>3</ele>
        <time>2015-05-05T20:29:35Z</time>
      </trkpt>
      <trkpt lat="59.32753" lon="18.035719">
        <ele>3</ele>
        <time>2015-05-05T20:29:36Z</time>
      </trkpt>
      <trkpt lat="59.327513" lon="18.035837">
        <ele>3</ele>
        <time>2015-05-05T20:29:37Z</time>
      </trkpt>
      <trkpt lat="59.327498" lon="18.035966">
        <ele>3</ele>
        <time>2015-05-05T20:29:38Z</time>
      </trkpt>
      <trkpt lat="59.327482" lon="18.036068">
        <ele>3</ele>
        <time>2015-05-05T20:29:39Z</time>
      </trkpt>
      <trkpt lat="59.327468" lon="18.036181">
        <ele>3</ele>
        <time>2015-05-05T20:29:40Z</time>
      </trkpt>
      <trkpt lat="59.327446" lon="18.036279">
        <ele>3</ele>
        <time>2015-05-05T20:29:41Z</time>
      </trkpt>
      <trkpt lat="59.327427" lon="18.036411">
        <ele>3</ele>
        <time>2015-05-05T20:29:42Z</time>
      </trkpt>
      <trkpt lat="59.32741" lon="18.036528">
        <ele>3</ele>
        <time>2015-05-05T20:29:43Z</time>
      </trkpt>
      <trkpt lat="59.327395" lon="18.036622">
        <ele>3</ele>
        <time>2015-05-05T20:29:44Z</time>
      </trkpt>
      <trkpt lat="59.32737" lon="18.036737">
        <ele>3</ele>
        <time>2015-05-05T20:29:45Z</time>
      </trkpt>
      <trkpt lat="59.32735" lon="18.036856">
        <ele>3</ele>
        <time>2015-05-05T20:29:46Z</time>
      </trkpt>
      <trkpt lat="59.327331" lon="18.036985">
        <ele>3</ele>
        <time>2015-05-05T20:29:47Z</time>
      </trkpt>
      <trkpt lat="59.327316" lon="18.037095">
        <ele>3.1</ele>
        <time>2015-05-05T20:29:48Z</time>
      </trkpt>
      <trkpt lat="59.32728" lon="18.037161">
        <ele>3.4</ele>
        <time>2015-05-05T20:29:49Z</time>
      </trkpt>
      <trkpt lat="59.327248" lon="18.037238">
        <ele>3.7</ele>
        <time>2015-05-05T20:29:50Z</time>
      </trkpt>
      <trkpt lat="59.327212" lon="18.037286">
        <ele>3.9</ele>
        <time>2015-05-05T20:29:52Z</time>
      </trkpt>
      <trkpt lat="59.327201" lon="18.037427">
        <ele>4.5</ele>
        <time>2015-05-05T20:29:53Z</time>
      </trkpt>
      <trkpt lat="59.32718" lon="18.037521">
        <ele>4.9</ele>
        <time>2015-05-05T20:29:54Z</time>
      </trkpt>
      <trkpt lat="59.327161" lon="18.037625">
        <ele>5.3</ele>
        <time>2015-05-05T20:29:55Z</time>
      </trkpt>
      <trkpt lat="59.327146" lon="18.037714">
        <ele>5.6</ele>
        <time>2015-05-05T20:29:56Z</time>
      </trkpt>
      <trkpt lat="59.32715" lon="18.037861">
        <ele>6.2</ele>
        <time>2015-05-05T20:29:57Z</time>
      </trkpt>
      <trkpt lat="59.327149" lon="18.038131">
        <ele>7.3</ele>
        <time>2015-05-05T20:29:58Z</time>
      </trkpt>
      <trkpt lat="59.327137" lon="18.038296">
        <ele>7.8</ele>
        <time>2015-05-05T20:29:59Z</time>
      </trkpt>
      <trkpt lat="59.32713" lon="18.038452">
        <ele>8.4</ele>
        <time>2015-05-05T20:30:00Z</time>
      </trkpt>
      <trkpt lat="59.327102" lon="18.038575">
        <ele>8.6</ele>
        <time>2015-05-05T20:30:01Z</time>
      </trkpt>
      <trkpt lat="59.327067" lon="18.038664">
        <ele>8.6</ele>
        <time>2015-05-05T20:30:02Z</time>
      </trkpt>
      <trkpt lat="59.327043" lon="18.038721">
        <ele>8.6</ele>
        <time>2015-05-05T20:30:03Z</time>
      </trkpt>
      <trkpt lat="59.327025" lon="18.038843">
        <ele>8.6</ele>
        <time>2015-05-05T20:30:04Z</time>
      </trkpt>
      <trkpt lat="59.32701" lon="18.039028">
        <ele>8.5</ele>
        <time>2015-05-05T20:30:05Z</time>
      </trkpt>
      <trkpt lat="59.326999" lon="18.039166">
        <ele>8.4</ele>
        <time>2015-05-05T20:30:06Z</time>
      </trkpt>
      <trkpt lat="59.326973" lon="18.039311">
        <ele>8.2</ele>
        <time>2015-05-05T20:30:07Z</time>
      </trkpt>
      <trkpt lat="59.326961" lon="18.039449">
        <ele>8.1</ele>
        <time>2015-05-05T20:30:08Z</time>
      </trkpt>
      <trkpt lat="59.326938" lon="18.039571">
        <ele>8</ele>
        <time>2015-05-05T20:30:09Z</time>
      </trkpt>
      <trkpt lat="59.326915" lon="18.039674">
        <ele>7.7</ele>
        <time>2015-05-05T20:30:10Z</time>
      </trkpt>
      <trkpt lat="59.326895" lon="18.039797">
        <ele>7.4</ele>
        <time>2015-05-05T20:30:11Z</time>
      </trkpt>
      <trkpt lat="59.326878" lon="18.039909">
        <ele>7.2</ele>
        <time>2015-05-05T20:30:12Z</time>
      </trkpt>
      <trkpt lat="59.326858" lon="18.040017">
        <ele>7</ele>
        <time>2015-05-05T20:30:13Z</time>
      </trkpt>
      <trkpt lat="59.326845" lon="18.040141">
        <ele>6.8</ele>
        <time>2015-05-05T20:30:14Z</time>
      </trkpt>
      <trkpt lat="59.326823" lon="18.040244">
        <ele>6.6</ele>
        <time>2015-05-05T20:30:15Z</time>
      </trkpt>
      <trkpt lat="59.326801" lon="18.04035">
        <ele>6.4</ele>
        <time>2015-05-05T20:30:16Z</time>
      </trkpt>
      <trkpt lat="59.32678" lon="18.04045">
        <ele>6.2</ele>
        <time>2015-05-05T20:30:17Z</time>
      </trkpt>
      <trkpt lat="59.326737" lon="18.040537">
        <ele>6.1</ele>
        <time>2015-05-05T20:30:18Z</time>
      </trkpt>
      <trkpt lat="59.326721" lon="18.04065">
        <ele>6.1</ele>
        <time>2015-05-05T20:30:19Z</time>
      </trkpt>
      <trkpt lat="59.326698" lon="18.040757">
        <ele>6.1</ele>
        <time>2015-05-05T20:30:20Z</time>
      </trkpt>
      <trkpt lat="59.326689" lon="18.040853">
        <ele>6.2</ele>
        <time>2015-05-05T20:30:21Z</time>
      </trkpt>
      <trkpt lat="59.326671" lon="18.040975">
        <ele>6.2</ele>
        <time>2015-05-05T20:30:22Z</time>
      </trkpt>
      <trkpt lat="59.326661" lon="18.041062">
        <ele>6.2</ele>
        <time>2015-05-05T20:30:23Z</time>
      </trkpt>
      <trkpt lat="59.326632" lon="18.041157">
        <ele>6.1</ele>
        <time>2015-05-05T20:30:24Z</time>
      </trkpt>
      <trkpt lat="59.326595" lon="18.041248">
        <ele>5.9</ele>
        <time>2015-05-05T20:30:25Z</time>
      </trkpt>
      <trkpt lat="59.326587" lon="18.04139">
        <ele>6</ele>
        <time>2015-05-05T20:30:26Z</time>
      </trkpt>
      <trkpt lat="59.326577" lon="18.041496">
        <ele>6.1</ele>
        <time>2015-05-05T20:30:27Z</time>
      </trkpt>
      <trkpt lat="59.326567" lon="18.041611">
        <ele>6.2</ele>
        <time>2015-05-05T20:30:28Z</time>
      </trkpt>
      <trkpt lat="59.326579" lon="18.041719">
        <ele>6.4</ele>
        <time>2015-05-05T20:30:29Z</time>
      </trkpt>
      <trkpt lat="59.326605" lon="18.041818">
        <ele>6.9</ele>
        <time>2015-05-05T20:30:30Z</time>
      </trkpt>
      <trkpt lat="59.326633" lon="18.041905">
        <ele>7.3</ele>
        <time>2015-05-05T20:30:31Z</time>
      </trkpt>
      <trkpt lat="59.326661" lon="18.042004">
        <ele>7.8</ele>
        <time>2015-05-05T20:30:32Z</time>
      </trkpt>
      <trkpt lat="59.326685" lon="18.042093">
        <ele>8.2</ele>
        <time>2015-05-05T20:30:33Z</time>
      </trkpt>
      <trkpt lat="59.326696" lon="18.042211">
        <ele>8.4</ele>
        <time>2015-05-05T20:30:34Z</time>
      </trkpt>
      <trkpt lat="59.326696" lon="18.042284">
        <ele>8.5</ele>
        <time>2015-05-05T20:30:35Z</time>
      </trkpt>
      <trkpt lat="59.326711" lon="18.042379">
        <ele>8.7</ele>
        <time>2015-05-05T20:30:36Z</time>
      </trkpt>
      <trkpt lat="59.326716" lon="18.04249">
        <ele>8.8</ele>
        <time>2015-05-05T20:30:37Z</time>
      </trkpt>
      <trkpt lat="59.32672" lon="18.04259">
        <ele>8.9</ele>
        <time>2015-05-05T20:30:38Z</time>
      </trkpt>
      <trkpt lat="59.326725" lon="18.042705">
        <ele>9</ele>
        <time>2015-05-05T20:30:39Z</time>
      </trkpt>
      <trkpt lat="59.326726" lon="18.042816">
        <ele>9.1</ele>
        <time>2015-05-05T20:30:40Z</time>
      </trkpt>
      <trkpt lat="59.326731" lon="18.042951">
        <ele>9.2</ele>
        <time>2015-05-05T20:30:41Z</time>
      </trkpt>
      <trkpt lat="59.326736" lon="18.043074">
        <ele>9.3</ele>
        <time>2015-05-05T20:30:42Z</time>
      </trkpt>
      <trkpt lat="59.32673" lon="18.043177">
        <ele>9.3</ele>
        <time>2015-05-05T20:30:43Z</time>
      </trkpt>
      <trkpt lat="59.326726" lon="18.043277">
        <ele>9.3</ele>
        <time>2015-05-05T20:30:44Z</time>
      </trkpt>
      <trkpt lat="59.326724" lon="18.043402">
        <ele>9.4</ele>
        <time>2015-05-05T20:30:45Z</time>
      </trkpt>
      <trkpt lat="59.326716" lon="18.043514">
        <ele>9.3</ele>
        <time>2015-05-05T20:30:46Z</time>
      </trkpt>
      <trkpt lat="59.326719" lon="18.043625">
        <ele>9.4</ele>
        <time>2015-05-05T20:30:47Z</time>
      </trkpt>
      <trkpt lat="59.326726" lon="18.043749">
        <ele>9.6</ele>
        <time>2015-05-05T20:30:48Z</time>
      </trkpt>
      <trkpt lat="59.326739" lon="18.043854">
        <ele>9.7</ele>
        <time>2015-05-05T20:30:49Z</time>
      </trkpt>
      <trkpt lat="59.326735" lon="18.043964">
        <ele>9.7</ele>
        <time>2015-05-05T20:30:50Z</time>
      </trkpt>
      <trkpt lat="59.326738" lon="18.044108">
        <ele>9.7</ele>
        <time>2015-05-05T20:30:51Z</time>
      </trkpt>
      <trkpt lat="59.326742" lon="18.044199">
        <ele>9.7</ele>
        <time>2015-05-05T20:30:52Z</time>
      </trkpt>
      <trkpt lat="59.326746" lon="18.04428">
        <ele>9.8</ele>
        <time>2015-05-05T20:30:53Z</time>
      </trkpt>
      <trkpt lat="59.326746" lon="18.044382">
        <ele>9.8</ele>
        <time>2015-05-05T20:30:54Z</time>
      </trkpt>
      <trkpt lat="59.32673" lon="18.044482">
        <ele>9.6</ele>
        <time>2015-05-05T20:30:55Z</time>
      </trkpt>
      <trkpt lat="59.326722" lon="18.044603">
        <ele>9.5</ele>
        <time>2015-05-05T20:30:56Z</time>
      </trkpt>
      <trkpt lat="59.326717" lon="18.044678">
        <ele>9.5</ele>
        <time>2015-05-05T20:30:57Z</time>
      </trkpt>
      <trkpt lat="59.326707" lon="18.044753">
        <ele>9.4</ele>
        <time>2015-05-05T20:30:58Z</time>
      </trkpt>
      <trkpt lat="59.326724" lon="18.04488">
        <ele>9.6</ele>
        <time>2015-05-05T20:30:59Z</time>
      </trkpt>
      <trkpt lat="59.326719" lon="18.044977">
        <ele>9.5</ele>
        <time>2015-05-05T20:31:00Z</time>
      </trkpt>
      <trkpt lat="59.32672" lon="18.045088">
        <ele>9.5</ele>
        <time>2015-05-05T20:31:01Z</time>
      </trkpt>
      <trkpt lat="59.326724" lon="18.045221">
        <ele>9.6</ele>
        <time>2015-05-05T20:31:02Z</time>
      </trkpt>
      <trkpt lat="59.326725" lon="18.045316">
        <ele>9.6</ele>
        <time>2015-05-05T20:31:03Z</time>
      </trkpt>
      <trkpt lat="59.326736" lon="18.045453">
        <ele>9.7</ele>
        <time>2015-05-05T20:31:04Z</time>
      </trkpt>
      <trkpt lat="59.326733" lon="18.04558">
        <ele>9.7</ele>
        <time>2015-05-05T20:31:05Z</time>
      </trkpt>
      <trkpt lat="59.326735" lon="18.045691">
        <ele>9.7</ele>
        <time>2015-05-05T20:31:06Z</time>
      </trkpt>
      <trkpt lat="59.326734" lon="18.045818">
        <ele>9.7</ele>
        <time>2015-05-05T20:31:07Z</time>
      </trkpt>
      <trkpt lat="59.326722" lon="18.04591">
        <ele>9.6</ele>
        <time>2015-05-05T20:31:08Z</time>
      </trkpt>
      <trkpt lat="59.326719" lon="18.046024">
        <ele>9.6</ele>
        <time>2015-05-05T20:31:09Z</time>
      </trkpt>
      <trkpt lat="59.326723" lon="18.04613">
        <ele>9.7</ele>
        <time>2015-05-05T20:31:10Z</time>
      </trkpt>
      <trkpt lat="59.326737" lon="18.046226">
        <ele>9.8</ele>
        <time>2015-05-05T20:31:11Z</time>
      </trkpt>
      <trkpt lat="59.326749" lon="18.046351">
        <ele>10</ele>
        <time>2015-05-05T20:31:12Z</time>
      </trkpt>
      <trkpt lat="59.326744" lon="18.046446">
        <ele>10</ele>
        <time>2015-05-05T20:31:13Z</time>
      </trkpt>
      <trkpt lat="59.326737" lon="18.046515">
        <ele>9.9</ele>
        <time>2015-05-05T20:31:14Z</time>
      </trkpt>
      <trkpt lat="59.326755" lon="18.046624">
        <ele>10.2</ele>
        <time>2015-05-05T20:31:15Z</time>
      </trkpt>
      <trkpt lat="59.326757" lon="18.046708">
        <ele>10.2</ele>
        <time>2015-05-05T20:31:16Z</time>
      </trkpt>
      <trkpt lat="59.326761" lon="18.046802">
        <ele>10.3</ele>
        <time>2015-05-05T20:31:17Z</time>
      </trkpt>
      <trkpt lat="59.32676" lon="18.046916">
        <ele>10.3</ele>
        <time>2015-05-05T20:31:18Z</time>
      </trkpt>
      <trkpt lat="59.326769" lon="18.047033">
        <ele>10.5</ele>
        <time>2015-05-05T20:31:19Z</time>
      </trkpt>
      <trkpt lat="59.326792" lon="18.047191">
        <ele>10.8</ele>
        <time>2015-05-05T20:31:20Z</time>
      </trkpt>
      <trkpt lat="59.326797" lon="18.047314">
        <ele>10.9</ele>
        <time>2015-05-05T20:31:21Z</time>
      </trkpt>
      <trkpt lat="59.326803" lon="18.047458">
        <ele>11</ele>
        <time>2015-05-05T20:31:22Z</time>
      </trkpt>
      <trkpt lat="59.326805" lon="18.04758">
        <ele>11</ele>
        <time>2015-05-05T20:31:23Z</time>
      </trkpt>
      <trkpt lat="59.326812" lon="18.047721">
        <ele>11.1</ele>
        <time>2015-05-05T20:31:24Z</time>
      </trkpt>
      <trkpt lat="59.326814" lon="18.047835">
        <ele>11.1</ele>
        <time>2015-05-05T20:31:25Z</time>
      </trkpt>
      <trkpt lat="59.326806" lon="18.047927">
        <ele>11</ele>
        <time>2015-05-05T20:31:26Z</time>
      </trkpt>
      <trkpt lat="59.326813" lon="18.048053">
        <ele>11.2</ele>
        <time>2015-05-05T20:31:27Z</time>
      </trkpt>
      <trkpt lat="59.326817" lon="18.048144">
        <ele>11.4</ele>
        <time>2015-05-05T20:31:28Z</time>
      </trkpt>
      <trkpt lat="59.32681" lon="18.048256">
        <ele>11.3</ele>
        <time>2015-05-05T20:31:29Z</time>
      </trkpt>
      <trkpt lat="59.326806" lon="18.048373">
        <ele>11.4</ele>
        <time>2015-05-05T20:31:30Z</time>
      </trkpt>
      <trkpt lat="59.326815" lon="18.048508">
        <ele>11.6</ele>
        <time>2015-05-05T20:31:31Z</time>
      </trkpt>
      <trkpt lat="59.326822" lon="18.048626">
        <ele>11.8</ele>
        <time>2015-05-05T20:31:32Z</time>
      </trkpt>
      <trkpt lat="59.326823" lon="18.048734">
        <ele>11.9</ele>
        <time>2015-05-05T20:31:33Z</time>
      </trkpt>
      <trkpt lat="59.326822" lon="18.048846">
        <ele>11.7</ele>
        <time>2015-05-05T20:31:34Z</time>
      </trkpt>
      <trkpt lat="59.326825" lon="18.048948">
        <ele>11.5</ele>
        <time>2015-05-05T20:31:35Z</time>
      </trkpt>
      <trkpt lat="59.326828" lon="18.049046">
        <ele>11.3</ele>
        <time>2015-05-05T20:31:36Z</time>
      </trkpt>
      <trkpt lat="59.326832" lon="18.049169">
        <ele>11</ele>
        <time>2015-05-05T20:31:37Z</time>
      </trkpt>
      <trkpt lat="59.326838" lon="18.049281">
        <ele>10.8</ele>
        <time>2015-05-05T20:31:38Z</time>
      </trkpt>
      <trkpt lat="59.326839" lon="18.049402">
        <ele>10.5</ele>
        <time>2015-05-05T20:31:39Z</time>
      </trkpt>
      <trkpt lat="59.326836" lon="18.049519">
        <ele>10.2</ele>
        <time>2015-05-05T20:31:40Z</time>
      </trkpt>
      <trkpt lat="59.326828" lon="18.049633">
        <ele>9.8</ele>
        <time>2015-05-05T20:31:41Z</time>
      </trkpt>
      <trkpt lat="59.326831" lon="18.049757">
        <ele>9.4</ele>
        <time>2015-05-05T20:31:42Z</time>
      </trkpt>
      <trkpt lat="59.326833" lon="18.049868">
        <ele>9</ele>
        <time>2015-05-05T20:31:43Z</time>
      </trkpt>
      <trkpt lat="59.326836" lon="18.049984">
        <ele>8.7</ele>
        <time>2015-05-05T20:31:44Z</time>
      </trkpt>
      <trkpt lat="59.32682" lon="18.050102">
        <ele>8.1</ele>
        <time>2015-05-05T20:31:45Z</time>
      </trkpt>
      <trkpt lat="59.326806" lon="18.050216">
        <ele>7.6</ele>
        <time>2015-05-05T20:31:46Z</time>
      </trkpt>
      <trkpt lat="59.326785" lon="18.050316">
        <ele>7.2</ele>
        <time>2015-05-05T20:31:47Z</time>
      </trkpt>
      <trkpt lat="59.32677" lon="18.050409">
        <ele>6.8</ele>
        <time>2015-05-05T20:31:48Z</time>
      </trkpt>
      <trkpt lat="59.326764" lon="18.050531">
        <ele>6.7</ele>
        <time>2015-05-05T20:31:49Z</time>
      </trkpt>
      <trkpt lat="59.326766" lon="18.050639">
        <ele>6.7</ele>
        <time>2015-05-05T20:31:50Z</time>
      </trkpt>
      <trkpt lat="59.326784" lon="18.050716">
        <ele>6.8</ele>
        <time>2015-05-05T20:31:51Z</time>
      </trkpt>
      <trkpt lat="59.326795" lon="18.050814">
        <ele>6.9</ele>
        <time>2015-05-05T20:31:52Z</time>
      </trkpt>
      <trkpt lat="59.3268" lon="18.050932">
        <ele>7</ele>
        <time>2015-05-05T20:31:53Z</time>
      </trkpt>
      <trkpt lat="59.326804" lon="18.051031">
        <ele>7</ele>
        <time>2015-05-05T20:31:54Z</time>
      </trkpt>
      <trkpt lat="59.326826" lon="18.051168">
        <ele>7.1</ele>
        <time>2015-05-05T20:31:55Z</time>
      </trkpt>
      <trkpt lat="59.326829" lon="18.051264">
        <ele>7.2</ele>
        <time>2015-05-05T20:31:56Z</time>
      </trkpt>
      <trkpt lat="59.326838" lon="18.051375">
        <ele>7.1</ele>
        <time>2015-05-05T20:31:57Z</time>
      </trkpt>
      <trkpt lat="59.326849" lon="18.051487">
        <ele>7.1</ele>
        <time>2015-05-05T20:31:58Z</time>
      </trkpt>
      <trkpt lat="59.326857" lon="18.051586">
        <ele>7.1</ele>
        <time>2015-05-05T20:31:59Z</time>
      </trkpt>
      <trkpt lat="59.326871" lon="18.051701">
        <ele>7.1</ele>
        <time>2015-05-05T20:32:00Z</time>
      </trkpt>
      <trkpt lat="59.326885" lon="18.051808">
        <ele>7.1</ele>
        <time>2015-05-05T20:32:01Z</time>
      </trkpt>
      <trkpt lat="59.326891" lon="18.051919">
        <ele>7</ele>
        <time>2015-05-05T20:32:02Z</time>
      </trkpt>
      <trkpt lat="59.326902" lon="18.052044">
        <ele>6.9</ele>
        <time>2015-05-05T20:32:03Z</time>
      </trkpt>
      <trkpt lat="59.326908" lon="18.052157">
        <ele>6.9</ele>
        <time>2015-05-05T20:32:04Z</time>
      </trkpt>
      <trkpt lat="59.326919" lon="18.052248">
        <ele>7</ele>
        <time>2015-05-05T20:32:05Z</time>
      </trkpt>
      <trkpt lat="59.326924" lon="18.05233">
        <ele>7</ele>
        <time>2015-05-05T20:32:06Z</time>
      </trkpt>
      <trkpt lat="59.326934" lon="18.05246">
        <ele>7.1</ele>
        <time>2015-05-05T20:32:07Z</time>
      </trkpt>
      <trkpt lat="59.326949" lon="18.052568">
        <ele>7.2</ele>
        <time>2015-05-05T20:32:08Z</time>
      </trkpt>
      <trkpt lat="59.32696" lon="18.052672">
        <ele>7.3</ele>
        <time>2015-05-05T20:32:09Z</time>
      </trkpt>
      <trkpt lat="59.326973" lon="18.052781">
        <ele>7.3</ele>
        <time>2015-05-05T20:32:10Z</time>
      </trkpt>
      <trkpt lat="59.326974" lon="18.052885">
        <ele>7.3</ele>
        <time>2015-05-05T20:32:11Z</time>
      </trkpt>
      <trkpt lat="59.326978" lon="18.052988">
        <ele>7.4</ele>
        <time>2015-05-05T20:32:12Z</time>
      </trkpt>
      <trkpt lat="59.326989" lon="18.053094">
        <ele>7.6</ele>
        <time>2015-05-05T20:32:13Z</time>
      </trkpt>
      <trkpt lat="59.327004" lon="18.053188">
        <ele>7.8</ele>
        <time>2015-05-05T20:32:14Z</time>
      </trkpt>
      <trkpt lat="59.327038" lon="18.053275">
        <ele>8.1</ele>
        <time>2015-05-05T20:32:15Z</time>
      </trkpt>
      <trkpt lat="59.327077" lon="18.053325">
        <ele>8.4</ele>
        <time>2015-05-05T20:32:16Z</time>
      </trkpt>
      <trkpt lat="59.327115" lon="18.053295">
        <ele>8.7</ele>
        <time>2015-05-05T20:32:17Z</time>
      </trkpt>
      <trkpt lat="59.327156" lon="18.053276">
        <ele>9</ele>
        <time>2015-05-05T20:32:18Z</time>
      </trkpt>
      <trkpt lat="59.327186" lon="18.0533">
        <ele>9.3</ele>
        <time>2015-05-05T20:32:19Z</time>
      </trkpt>
      <trkpt lat="59.327226" lon="18.053279">
        <ele>9.6</ele>
        <time>2015-05-05T20:32:20Z</time>
      </trkpt>
      <trkpt lat="59.327273" lon="18.053265">
        <ele>10</ele>
        <time>2015-05-05T20:32:21Z</time>
      </trkpt>
      <trkpt lat="59.327328" lon="18.053235">
        <ele>10.4</ele>
        <time>2015-05-05T20:32:22Z</time>
      </trkpt>
      <trkpt lat="59.32736" lon="18.05323">
        <ele>10.6</ele>
        <time>2015-05-05T20:32:23Z</time>
      </trkpt>
      <trkpt lat="59.327401" lon="18.053245">
        <ele>11</ele>
        <time>2015-05-05T20:32:24Z</time>
      </trkpt>
      <trkpt lat="59.327438" lon="18.053219">
        <ele>11.2</ele>
        <time>2015-05-05T20:32:25Z</time>
      </trkpt>
      <trkpt lat="59.327508" lon="18.053169">
        <ele>11.7</ele>
        <time>2015-05-05T20:32:26Z</time>
      </trkpt>
      <trkpt lat="59.327565" lon="18.053144">
        <ele>12.1</ele>
        <time>2015-05-05T20:32:27Z</time>
      </trkpt>
      <trkpt lat="59.327594" lon="18.053132">
        <ele>12.3</ele>
        <time>2015-05-05T20:32:28Z</time>
      </trkpt>
      <trkpt lat="59.327659" lon="18.053173">
        <ele>12.9</ele>
        <time>2015-05-05T20:32:29Z</time>
      </trkpt>
      <trkpt lat="59.327728" lon="18.053207">
        <ele>13.5</ele>
        <time>2015-05-05T20:32:30Z</time>
      </trkpt>
      <trkpt lat="59.327731" lon="18.053334">
        <ele>13.9</ele>
        <time>2015-05-05T20:32:31Z</time>
      </trkpt>
      <trkpt lat="59.327754" lon="18.053448">
        <ele>14.5</ele>
        <time>2015-05-05T20:32:32Z</time>
      </trkpt>
      <trkpt lat="59.32776" lon="18.053539">
        <ele>14.8</ele>
        <time>2015-05-05T20:32:33Z</time>
      </trkpt>
      <trkpt lat="59.327767" lon="18.053633">
        <ele>15.2</ele>
        <time>2015-05-05T20:32:34Z</time>
      </trkpt>
      <trkpt lat="59.327781" lon="18.053776">
        <ele>15.8</ele>
        <time>2015-05-05T20:32:35Z</time>
      </trkpt>
      <trkpt lat="59.327796" lon="18.053864">
        <ele>16.1</ele>
        <time>2015-05-05T20:32:36Z</time>
      </trkpt>
      <trkpt lat="59.327809" lon="18.053981">
        <ele>16.6</ele>
        <time>2015-05-05T20:32:37Z</time>
      </trkpt>
      <trkpt lat="59.32782" lon="18.054076">
        <ele>17</ele>
        <time>2015-05-05T20:32:38Z</time>
      </trkpt>
      <trkpt lat="59.327838" lon="18.05419">
        <ele>17.5</ele>
        <time>2015-05-05T20:32:39Z</time>
      </trkpt>
      <trkpt lat="59.327847" lon="18.054283">
        <ele>17.9</ele>
        <time>2015-05-05T20:32:40Z</time>
      </trkpt>
      <trkpt lat="59.327867" lon="18.054393">
        <ele>18.6</ele>
        <time>2015-05-05T20:32:41Z</time>
      </trkpt>
      <trkpt lat="59.32787" lon="18.054481">
        <ele>18.9</ele>
        <time>2015-05-05T20:32:42Z</time>
      </trkpt>
      <trkpt lat="59.327883" lon="18.054607">
        <ele>19.5</ele>
        <time>2015-05-05T20:32:43Z</time>
      </trkpt>
      <trkpt lat="59.327886" lon="18.054689">
        <ele>19.8</ele>
        <time>2015-05-05T20:32:44Z</time>
      </trkpt>
      <trkpt lat="59.327896" lon="18.054806">
        <ele>20.4</ele>
        <time>2015-05-05T20:32:45Z</time>
      </trkpt>
      <trkpt lat="59.327895" lon="18.0549">
        <ele>20.7</ele>
        <time>2015-05-05T20:32:46Z</time>
      </trkpt>
      <trkpt lat="59.327887" lon="18.054986">
        <ele>20.8</ele>
        <time>2015-05-05T20:32:47Z</time>
      </trkpt>
      <trkpt lat="59.327889" lon="18.055092">
        <ele>21.2</ele>
        <time>2015-05-05T20:32:48Z</time>
      </trkpt>
      <trkpt lat="59.327893" lon="18.055187">
        <ele>21.7</ele>
        <time>2015-05-05T20:32:49Z</time>
      </trkpt>
      <trkpt lat="59.327921" lon="18.055283">
        <ele>22.5</ele>
        <time>2015-05-05T20:32:50Z</time>
      </trkpt>
      <trkpt lat="59.327923" lon="18.055385">
        <ele>22.8</ele>
        <time>2015-05-05T20:32:51Z</time>
      </trkpt>
      <trkpt lat="59.327936" lon="18.055442">
        <ele>22.7</ele>
        <time>2015-05-05T20:32:52Z</time>
      </trkpt>
      <trkpt lat="59.327957" lon="18.055523">
        <ele>22.3</ele>
        <time>2015-05-05T20:32:53Z</time>
      </trkpt>
      <trkpt lat="59.327971" lon="18.055582">
        <ele>22</ele>
        <time>2015-05-05T20:32:54Z</time>
      </trkpt>
      <trkpt lat="59.327994" lon="18.055677">
        <ele>21.5</ele>
        <time>2015-05-05T20:32:55Z</time>
      </trkpt>
      <trkpt lat="59.328013" lon="18.05579">
        <ele>21.1</ele>
        <time>2015-05-05T20:32:56Z</time>
      </trkpt>
      <trkpt lat="59.32803" lon="18.055893">
        <ele>20.7</ele>
        <time>2015-05-05T20:32:57Z</time>
      </trkpt>
      <trkpt lat="59.328052" lon="18.056014">
        <ele>20.2</ele>
        <time>2015-05-05T20:32:58Z</time>
      </trkpt>
      <trkpt lat="59.328079" lon="18.056106">
        <ele>19.7</ele>
        <time>2015-05-05T20:32:59Z</time>
      </trkpt>
      <trkpt lat="59.32809" lon="18.056198">
        <ele>19.4</ele>
        <time>2015-05-05T20:33:00Z</time>
      </trkpt>
      <trkpt lat="59.328088" lon="18.056301">
        <ele>19.2</ele>
        <time>2015-05-05T20:33:01Z</time>
      </trkpt>
      <trkpt lat="59.328105" lon="18.056389">
        <ele>18.8</ele>
        <time>2015-05-05T20:33:02Z</time>
      </trkpt>
      <trkpt lat="59.32811" lon="18.056488">
        <ele>18.6</ele>
        <time>2015-05-05T20:33:03Z</time>
      </trkpt>
      <trkpt lat="59.328117" lon="18.056576">
        <ele>18.3</ele>
        <time>2015-05-05T20:33:04Z</time>
      </trkpt>
      <trkpt lat="59.328129" lon="18.056671">
        <ele>17.9</ele>
        <time>2015-05-05T20:33:05Z</time>
      </trkpt>
      <trkpt lat="59.328136" lon="18.056765">
        <ele>17.6</ele>
        <time>2015-05-05T20:33:06Z</time>
      </trkpt>
      <trkpt lat="59.328147" lon="18.05685">
        <ele>17.3</ele>
        <time>2015-05-05T20:33:07Z</time>
      </trkpt>
      <trkpt lat="59.328162" lon="18.05693">
        <ele>16.9</ele>
        <time>2015-05-05T20:33:08Z</time>
      </trkpt>
      <trkpt lat="59.328163" lon="18.057007">
        <ele>16.7</ele>
        <time>2015-05-05T20:33:09Z</time>
      </trkpt>
      <trkpt lat="59.328172" lon="18.057099">
        <ele>16.3</ele>
        <time>2015-05-05T20:33:10Z</time>
      </trkpt>
      <trkpt lat="59.328179" lon="18.057185">
        <ele>15.8</ele>
        <time>2015-05-05T20:33:11Z</time>
      </trkpt>
      <trkpt lat="59.328187" lon="18.057303">
        <ele>15.2</ele>
        <time>2015-05-05T20:33:12Z</time>
      </trkpt>
      <trkpt lat="59.328196" lon="18.057398">
        <ele>14.6</ele>
        <time>2015-05-05T20:33:13Z</time>
      </trkpt>
      <trkpt lat="59.328199" lon="18.057491">
        <ele>14.1</ele>
        <time>2015-05-05T20:33:14Z</time>
      </trkpt>
      <trkpt lat="59.328197" lon="18.057604">
        <ele>13.7</ele>
        <time>2015-05-05T20:33:15Z</time>
      </trkpt>
      <trkpt lat="59.328192" lon="18.057717">
        <ele>13.2</ele>
        <time>2015-05-05T20:33:16Z</time>
      </trkpt>
      <trkpt lat="59.328182" lon="18.057842">
        <ele>12.8</ele>
        <time>2015-05-05T20:33:17Z</time>
      </trkpt>
      <trkpt lat="59.32816" lon="18.05794">
        <ele>12.6</ele>
        <time>2015-05-05T20:33:18Z</time>
      </trkpt>
      <trkpt lat="59.328131" lon="18.058052">
        <ele>12.3</ele>
        <time>2015-05-05T20:33:19Z</time>
      </trkpt>
      <trkpt lat="59.328108" lon="18.058153">
        <ele>11.9</ele>
        <time>2015-05-05T20:33:20Z</time>
      </trkpt>
      <trkpt lat="59.328084" lon="18.058264">
        <ele>11.5</ele>
        <time>2015-05-05T20:33:21Z</time>
      </trkpt>
      <trkpt lat="59.328065" lon="18.058369">
        <ele>11</ele>
        <time>2015-05-05T20:33:22Z</time>
      </trkpt>
      <trkpt lat="59.328044" lon="18.058473">
        <ele>10.5</ele>
        <time>2015-05-05T20:33:23Z</time>
      </trkpt>
      <trkpt lat="59.32803" lon="18.058569">
        <ele>10</ele>
        <time>2015-05-05T20:33:24Z</time>
      </trkpt>
      <trkpt lat="59.328005" lon="18.058672">
        <ele>9.4</ele>
        <time>2015-05-05T20:33:25Z</time>
      </trkpt>
      <trkpt lat="59.327991" lon="18.058795">
        <ele>8.9</ele>
        <time>2015-05-05T20:33:26Z</time>
      </trkpt>
      <trkpt lat="59.327979" lon="18.058915">
        <ele>8.7</ele>
        <time>2015-05-05T20:33:27Z</time>
      </trkpt>
      <trkpt lat="59.327975" lon="18.059025">
        <ele>8.6</ele>
        <time>2015-05-05T20:33:28Z</time>
      </trkpt>
      <trkpt lat="59.327981" lon="18.059153">
        <ele>8.5</ele>
        <time>2015-05-05T20:33:29Z</time>
      </trkpt>
      <trkpt lat="59.327992" lon="18.05925">
        <ele>8.4</ele>
        <time>2015-05-05T20:33:30Z</time>
      </trkpt>
      <trkpt lat="59.328006" lon="18.059373">
        <ele>8.2</ele>
        <time>2015-05-05T20:33:31Z</time>
      </trkpt>
      <trkpt lat="59.32802" lon="18.059458">
        <ele>8.1</ele>
        <time>2015-05-05T20:33:32Z</time>
      </trkpt>
      <trkpt lat="59.328032" lon="18.059575">
        <ele>8</ele>
        <time>2015-05-05T20:33:33Z</time>
      </trkpt>
      <trkpt lat="59.328034" lon="18.059675">
        <ele>7.8</ele>
        <time>2015-05-05T20:33:34Z</time>
      </trkpt>
      <trkpt lat="59.328044" lon="18.05977">
        <ele>7.6</ele>
        <time>2015-05-05T20:33:35Z</time>
      </trkpt>
      <trkpt lat="59.328047" lon="18.059839">
        <ele>7.4</ele>
        <time>2015-05-05T20:33:36Z</time>
      </trkpt>
      <trkpt lat="59.328062" lon="18.059905">
        <ele>7.3</ele>
        <time>2015-05-05T20:33:38Z</time>
      </trkpt>
      <trkpt lat="59.328105" lon="18.059967">
        <ele>7.2</ele>
        <time>2015-05-05T20:33:39Z</time>
      </trkpt>
      <trkpt lat="59.328174" lon="18.059924">
        <ele>7.3</ele>
        <time>2015-05-05T20:33:41Z</time>
      </trkpt>
      <trkpt lat="59.328202" lon="18.059937">
        <ele>7.3</ele>
        <time>2015-05-05T20:33:42Z</time>
      </trkpt>
      <trkpt lat="59.328101" lon="18.060595">
        <ele>6.1</ele>
        <time>2015-05-05T20:33:44Z</time>
      </trkpt>
      <trkpt lat="59.328155" lon="18.060665">
        <ele>6.2</ele>
        <time>2015-05-05T20:33:45Z</time>
      </trkpt>
      <trkpt lat="59.328179" lon="18.060751">
        <ele>6.2</ele>
        <time>2015-05-05T20:33:46Z</time>
      </trkpt>
      <trkpt lat="59.328195" lon="18.060862">
        <ele>6.2</ele>
        <time>2015-05-05T20:33:47Z</time>
      </trkpt>
      <trkpt lat="59.328205" lon="18.060993">
        <ele>6.1</ele>
        <time>2015-05-05T20:33:48Z</time>
      </trkpt>
      <trkpt lat="59.328212" lon="18.061112">
        <ele>6.1</ele>
        <time>2015-05-05T20:33:49Z</time>
      </trkpt>
      <trkpt lat="59.32824" lon="18.061188">
        <ele>6.2</ele>
        <time>2015-05-05T20:33:51Z</time>
      </trkpt>
      <trkpt lat="59.328244" lon="18.06127">
        <ele>6.2</ele>
        <time>2015-05-05T20:33:53Z</time>
      </trkpt>
      <trkpt lat="59.328246" lon="18.061328">
        <ele>6.1</ele>
        <time>2015-05-05T20:33:54Z</time>
      </trkpt>
      <trkpt lat="59.328271" lon="18.061368">
        <ele>6.2</ele>
        <time>2015-05-05T20:33:56Z</time>
      </trkpt>
      <trkpt lat="59.32827" lon="18.061421">
        <ele>6.1</ele>
        <time>2015-05-05T20:34:03Z</time>
      </trkpt>
      <trkpt lat="59.328304" lon="18.061395">
        <ele>6.3</ele>
        <time>2015-05-05T20:34:41Z</time>
      </trkpt>
      <trkpt lat="59.328332" lon="18.061327">
        <ele>6.4</ele>
        <time>2015-05-05T20:34:43Z</time>
      </trkpt>
      <trkpt lat="59.328366" lon="18.061241">
        <ele>6.6</ele>
        <time>2015-05-05T20:34:45Z</time>
      </trkpt>
      <trkpt lat="59.328388" lon="18.061188">
        <ele>6.7</ele>
        <time>2015-05-05T20:34:46Z</time>
      </trkpt>
      <trkpt lat="59.328411" lon="18.061134">
        <ele>6.8</ele>
        <time>2015-05-05T20:34:47Z</time>
      </trkpt>
      <trkpt lat="59.328429" lon="18.061086">
        <ele>6.8</ele>
        <time>2015-05-05T20:34:48Z</time>
      </trkpt>
      <trkpt lat="59.328455" lon="18.06102">
        <ele>6.9</ele>
        <time>2015-05-05T20:34:49Z</time>
      </trkpt>
      <trkpt lat="59.328484" lon="18.060969">
        <ele>6.9</ele>
        <time>2015-05-05T20:34:50Z</time>
      </trkpt>
      <trkpt lat="59.328519" lon="18.060935">
        <ele>7</ele>
        <time>2015-05-05T20:34:51Z</time>
      </trkpt>
      <trkpt lat="59.328551" lon="18.060933">
        <ele>7.1</ele>
        <time>2015-05-05T20:34:52Z</time>
      </trkpt>
      <trkpt lat="59.328569" lon="18.060975">
        <ele>7.2</ele>
        <time>2015-05-05T20:34:56Z</time>
      </trkpt>
      <trkpt lat="59.328592" lon="18.061031">
        <ele>7.3</ele>
        <time>2015-05-05T20:34:58Z</time>
      </trkpt>
      <trkpt lat="59.328629" lon="18.061098">
        <ele>7.4</ele>
        <time>2015-05-05T20:35:00Z</time>
      </trkpt>
      <trkpt lat="59.328676" lon="18.061128">
        <ele>7.6</ele>
        <time>2015-05-05T20:35:02Z</time>
      </trkpt>
      <trkpt lat="59.328716" lon="18.061102">
        <ele>7.7</ele>
        <time>2015-05-05T20:35:03Z</time>
      </trkpt>
      <trkpt lat="59.328744" lon="18.06109">
        <ele>7.8</ele>
        <time>2015-05-05T20:35:04Z</time>
      </trkpt>
      <trkpt lat="59.328835" lon="18.061026">
        <ele>8.4</ele>
        <time>2015-05-05T20:35:05Z</time>
      </trkpt>
      <trkpt lat="59.32889" lon="18.060972">
        <ele>8.7</ele>
        <time>2015-05-05T20:35:06Z</time>
      </trkpt>
      <trkpt lat="59.328947" lon="18.060935">
        <ele>9.1</ele>
        <time>2015-05-05T20:35:07Z</time>
      </trkpt>
      <trkpt lat="59.32901" lon="18.060895">
        <ele>9.5</ele>
        <time>2015-05-05T20:35:08Z</time>
      </trkpt>
      <trkpt lat="59.329069" lon="18.060846">
        <ele>9.8</ele>
        <time>2015-05-05T20:35:09Z</time>
      </trkpt>
      <trkpt lat="59.329128" lon="18.060794">
        <ele>10.1</ele>
        <time>2015-05-05T20:35:10Z</time>
      </trkpt>
      <trkpt lat="59.32919" lon="18.060772">
        <ele>10.5</ele>
        <time>2015-05-05T20:35:11Z</time>
      </trkpt>
      <trkpt lat="59.329236" lon="18.060717">
        <ele>10.7</ele>
        <time>2015-05-05T20:35:12Z</time>
      </trkpt>
      <trkpt lat="59.329284" lon="18.060687">
        <ele>10.9</ele>
        <time>2015-05-05T20:35:13Z</time>
      </trkpt>
      <trkpt lat="59.329333" lon="18.060616">
        <ele>11.1</ele>
        <time>2015-05-05T20:35:14Z</time>
      </trkpt>
      <trkpt lat="59.329396" lon="18.060559">
        <ele>11.3</ele>
        <time>2015-05-05T20:35:15Z</time>
      </trkpt>
      <trkpt lat="59.329467" lon="18.060559">
        <ele>11.8</ele>
        <time>2015-05-05T20:35:16Z</time>
      </trkpt>
      <trkpt lat="59.329522" lon="18.060514">
        <ele>12</ele>
        <time>2015-05-05T20:35:17Z</time>
      </trkpt>
      <trkpt lat="59.329516" lon="18.060455">
        <ele>11.7</ele>
        <time>2015-05-05T20:35:18Z</time>
      </trkpt>
      <trkpt lat="59.329616" lon="18.06035">
        <ele>12.3</ele>
        <time>2015-05-05T20:35:19Z</time>
      </trkpt>
      <trkpt lat="59.32969" lon="18.060292">
        <ele>13.1</ele>
        <time>2015-05-05T20:35:20Z</time>
      </trkpt>
      <trkpt lat="59.329729" lon="18.060224">
        <ele>13.5</ele>
        <time>2015-05-05T20:35:21Z</time>
      </trkpt>
      <trkpt lat="59.329794" lon="18.060194">
        <ele>14.1</ele>
        <time>2015-05-05T20:35:22Z</time>
      </trkpt>
      <trkpt lat="59.329857" lon="18.060126">
        <ele>14.6</ele>
        <time>2015-05-05T20:35:23Z</time>
      </trkpt>
      <trkpt lat="59.329947" lon="18.060023">
        <ele>15.3</ele>
        <time>2015-05-05T20:35:24Z</time>
      </trkpt>
      <trkpt lat="59.330018" lon="18.059971">
        <ele>15.9</ele>
        <time>2015-05-05T20:35:25Z</time>
      </trkpt>
      <trkpt lat="59.33008" lon="18.059898">
        <ele>16.3</ele>
        <time>2015-05-05T20:35:26Z</time>
      </trkpt>
      <trkpt lat="59.330154" lon="18.059853">
        <ele>16.8</ele>
        <time>2015-05-05T20:35:27Z</time>
      </trkpt>
      <trkpt lat="59.330244" lon="18.059773">
        <ele>17.3</ele>
        <time>2015-05-05T20:35:28Z</time>
      </trkpt>
      <trkpt lat="59.330315" lon="18.059684">
        <ele>17.6</ele>
        <time>2015-05-05T20:35:29Z</time>
      </trkpt>
      <trkpt lat="59.330399" lon="18.059639">
        <ele>18.1</ele>
        <time>2015-05-05T20:35:30Z</time>
      </trkpt>
      <trkpt lat="59.33046" lon="18.059546">
        <ele>18.1</ele>
        <time>2015-05-05T20:35:31Z</time>
      </trkpt>
      <trkpt lat="59.330533" lon="18.05944">
        <ele>18.1</ele>
        <time>2015-05-05T20:35:32Z</time>
      </trkpt>
      <trkpt lat="59.330596" lon="18.059323">
        <ele>18</ele>
        <time>2015-05-05T20:35:33Z</time>
      </trkpt>
      <trkpt lat="59.330652" lon="18.059219">
        <ele>17.8</ele>
        <time>2015-05-05T20:35:34Z</time>
      </trkpt>
      <trkpt lat="59.330737" lon="18.059207">
        <ele>18.1</ele>
        <time>2015-05-05T20:35:35Z</time>
      </trkpt>
      <trkpt lat="59.330794" lon="18.059168">
        <ele>18.1</ele>
        <time>2015-05-05T20:35:36Z</time>
      </trkpt>
      <trkpt lat="59.330849" lon="18.059125">
        <ele>18.2</ele>
        <time>2015-05-05T20:35:37Z</time>
      </trkpt>
      <trkpt lat="59.330902" lon="18.059073">
        <ele>18.2</ele>
        <time>2015-05-05T20:35:38Z</time>
      </trkpt>
      <trkpt lat="59.330942" lon="18.059">
        <ele>18</ele>
        <time>2015-05-05T20:35:39Z</time>
      </trkpt>
      <trkpt lat="59.330968" lon="18.05892">
        <ele>17.9</ele>
        <time>2015-05-05T20:35:40Z</time>
      </trkpt>
      <trkpt lat="59.330956" lon="18.058828">
        <ele>17.5</ele>
        <time>2015-05-05T20:35:41Z</time>
      </trkpt>
      <trkpt lat="59.331038" lon="18.058723">
        <ele>17.5</ele>
        <time>2015-05-05T20:35:42Z</time>
      </trkpt>
      <trkpt lat="59.331126" lon="18.058619">
        <ele>17.9</ele>
        <time>2015-05-05T20:35:43Z</time>
      </trkpt>
      <trkpt lat="59.331234" lon="18.058572">
        <ele>18.2</ele>
        <time>2015-05-05T20:35:44Z</time>
      </trkpt>
      <trkpt lat="59.331323" lon="18.058501">
        <ele>19</ele>
        <time>2015-05-05T20:35:45Z</time>
      </trkpt>
      <trkpt lat="59.331405" lon="18.058401">
        <ele>19.9</ele>
        <time>2015-05-05T20:35:46Z</time>
      </trkpt>
      <trkpt lat="59.331466" lon="18.058642">
        <ele>20</ele>
        <time>2015-05-05T20:35:47Z</time>
      </trkpt>
      <trkpt lat="59.331489" lon="18.058605">
        <ele>20.3</ele>
        <time>2015-05-05T20:35:48Z</time>
      </trkpt>
      <trkpt lat="59.331534" lon="18.058504">
        <ele>20.9</ele>
        <time>2015-05-05T20:35:50Z</time>
      </trkpt>
      <trkpt lat="59.331582" lon="18.058445">
        <ele>21.4</ele>
        <time>2015-05-05T20:35:51Z</time>
      </trkpt>
      <trkpt lat="59.331606" lon="18.058411">
        <ele>21.7</ele>
        <time>2015-05-05T20:35:52Z</time>
      </trkpt>
      <trkpt lat="59.331622" lon="18.058343">
        <ele>22</ele>
        <time>2015-05-05T20:35:54Z</time>
      </trkpt>
      <trkpt lat="59.331646" lon="18.058297">
        <ele>22.4</ele>
        <time>2015-05-05T20:35:57Z</time>
      </trkpt>
      <trkpt lat="59.331646" lon="18.05824">
        <ele>22.5</ele>
        <time>2015-05-05T20:36:03Z</time>
      </trkpt>
      <trkpt lat="59.331678" lon="18.058189">
        <ele>23</ele>
        <time>2015-05-05T20:36:32Z</time>
      </trkpt>
      <trkpt lat="59.331703" lon="18.058166">
        <ele>23.3</ele>
        <time>2015-05-05T20:36:33Z</time>
      </trkpt>
      <trkpt lat="59.331729" lon="18.058143">
        <ele>23.6</ele>
        <time>2015-05-05T20:36:34Z</time>
      </trkpt>
      <trkpt lat="59.33176" lon="18.058126">
        <ele>23.9</ele>
        <time>2015-05-05T20:36:35Z</time>
      </trkpt>
      <trkpt lat="59.331794" lon="18.058105">
        <ele>24.4</ele>
        <time>2015-05-05T20:36:36Z</time>
      </trkpt>
      <trkpt lat="59.331837" lon="18.058071">
        <ele>24.9</ele>
        <time>2015-05-05T20:36:37Z</time>
      </trkpt>
      <trkpt lat="59.331893" lon="18.058045">
        <ele>25.6</ele>
        <time>2015-05-05T20:36:38Z</time>
      </trkpt>
      <trkpt lat="59.331943" lon="18.058007">
        <ele>26.2</ele>
        <time>2015-05-05T20:36:39Z</time>
      </trkpt>
      <trkpt lat="59.331988" lon="18.057958">
        <ele>26.8</ele>
        <time>2015-05-05T20:36:40Z</time>
      </trkpt>
      <trkpt lat="59.332034" lon="18.057898">
        <ele>27.5</ele>
        <time>2015-05-05T20:36:41Z</time>
      </trkpt>
      <trkpt lat="59.332076" lon="18.057825">
        <ele>28.1</ele>
        <time>2015-05-05T20:36:42Z</time>
      </trkpt>
      <trkpt lat="59.332123" lon="18.057776">
        <ele>28.2</ele>
        <time>2015-05-05T20:36:43Z</time>
      </trkpt>
      <trkpt lat="59.332164" lon="18.057722">
        <ele>28.2</ele>
        <time>2015-05-05T20:36:44Z</time>
      </trkpt>
      <trkpt lat="59.332213" lon="18.057677">
        <ele>28.2</ele>
        <time>2015-05-05T20:36:45Z</time>
      </trkpt>
      <trkpt lat="59.332252" lon="18.057625">
        <ele>28.2</ele>
        <time>2015-05-05T20:36:46Z</time>
      </trkpt>
      <trkpt lat="59.33229" lon="18.057576">
        <ele>28.1</ele>
        <time>2015-05-05T20:36:47Z</time>
      </trkpt>
      <trkpt lat="59.332331" lon="18.057536">
        <ele>28</ele>
        <time>2015-05-05T20:36:48Z</time>
      </trkpt>
      <trkpt lat="59.332375" lon="18.057482">
        <ele>28</ele>
        <time>2015-05-05T20:36:49Z</time>
      </trkpt>
      <trkpt lat="59.332416" lon="18.057434">
        <ele>27.9</ele>
        <time>2015-05-05T20:36:50Z</time>
      </trkpt>
      <trkpt lat="59.332448" lon="18.057389">
        <ele>27.8</ele>
        <time>2015-05-05T20:36:51Z</time>
      </trkpt>
      <trkpt lat="59.332476" lon="18.057334">
        <ele>27.8</ele>
        <time>2015-05-05T20:36:52Z</time>
      </trkpt>
      <trkpt lat="59.332513" lon="18.057315">
        <ele>27.7</ele>
        <time>2015-05-05T20:36:53Z</time>
      </trkpt>
      <trkpt lat="59.332545" lon="18.057319">
        <ele>27.5</ele>
        <time>2015-05-05T20:36:54Z</time>
      </trkpt>
      <trkpt lat="59.332576" lon="18.057286">
        <ele>27.4</ele>
        <time>2015-05-05T20:36:55Z</time>
      </trkpt>
      <trkpt lat="59.332607" lon="18.057261">
        <ele>27.3</ele>
        <time>2015-05-05T20:36:56Z</time>
      </trkpt>
      <trkpt lat="59.332629" lon="18.05722">
        <ele>27.3</ele>
        <time>2015-05-05T20:36:57Z</time>
      </trkpt>
      <trkpt lat="59.332656" lon="18.05719">
        <ele>27.2</ele>
        <time>2015-05-05T20:36:58Z</time>
      </trkpt>
      <trkpt lat="59.33268" lon="18.057162">
        <ele>27.1</ele>
        <time>2015-05-05T20:36:59Z</time>
      </trkpt>
      <trkpt lat="59.332721" lon="18.057118">
        <ele>26.9</ele>
        <time>2015-05-05T20:37:01Z</time>
      </trkpt>
      <trkpt lat="59.332764" lon="18.057076">
        <ele>26.7</ele>
        <time>2015-05-05T20:37:03Z</time>
      </trkpt>
      <trkpt lat="59.332809" lon="18.057036">
        <ele>26.5</ele>
        <time>2015-05-05T20:37:05Z</time>
      </trkpt>
      <trkpt lat="59.332856" lon="18.056981">
        <ele>26.4</ele>
        <time>2015-05-05T20:37:07Z</time>
      </trkpt>
      <trkpt lat="59.332877" lon="18.056945">
        <ele>26.3</ele>
        <time>2015-05-05T20:37:08Z</time>
      </trkpt>
      <trkpt lat="59.332916" lon="18.056874">
        <ele>26.3</ele>
        <time>2015-05-05T20:37:10Z</time>
      </trkpt>
      <trkpt lat="59.332959" lon="18.056818">
        <ele>26.2</ele>
        <time>2015-05-05T20:37:12Z</time>
      </trkpt>
      <trkpt lat="59.333007" lon="18.056756">
        <ele>26.1</ele>
        <time>2015-05-05T20:37:14Z</time>
      </trkpt>
      <trkpt lat="59.333044" lon="18.056693">
        <ele>26</ele>
        <time>2015-05-05T20:37:16Z</time>
      </trkpt>
      <trkpt lat="59.333087" lon="18.056684">
        <ele>25.9</ele>
        <time>2015-05-05T20:37:18Z</time>
      </trkpt>
      <trkpt lat="59.333115" lon="18.056731">
        <ele>25.7</ele>
        <time>2015-05-05T20:37:19Z</time>
      </trkpt>
      <trkpt lat="59.33314" lon="18.056813">
        <ele>25.6</ele>
        <time>2015-05-05T20:37:20Z</time>
      </trkpt>
      <trkpt lat="59.333163" lon="18.056906">
        <ele>25.5</ele>
        <time>2015-05-05T20:37:21Z</time>
      </trkpt>
      <trkpt lat="59.333187" lon="18.057027">
        <ele>25.4</ele>
        <time>2015-05-05T20:37:22Z</time>
      </trkpt>
      <trkpt lat="59.333216" lon="18.057154">
        <ele>25.3</ele>
        <time>2015-05-05T20:37:23Z</time>
      </trkpt>
      <trkpt lat="59.33329" lon="18.057442">
        <ele>25.1</ele>
        <time>2015-05-05T20:37:24Z</time>
      </trkpt>
      <trkpt lat="59.333301" lon="18.057548">
        <ele>25.1</ele>
        <time>2015-05-05T20:37:25Z</time>
      </trkpt>
      <trkpt lat="59.333324" lon="18.057659">
        <ele>25</ele>
        <time>2015-05-05T20:37:26Z</time>
      </trkpt>
      <trkpt lat="59.333351" lon="18.057762">
        <ele>25</ele>
        <time>2015-05-05T20:37:27Z</time>
      </trkpt>
      <trkpt lat="59.333366" lon="18.057844">
        <ele>24.9</ele>
        <time>2015-05-05T20:37:28Z</time>
      </trkpt>
      <trkpt lat="59.33341" lon="18.057949">
        <ele>24.8</ele>
        <time>2015-05-05T20:37:29Z</time>
      </trkpt>
      <trkpt lat="59.333434" lon="18.058073">
        <ele>24.7</ele>
        <time>2015-05-05T20:37:30Z</time>
      </trkpt>
      <trkpt lat="59.333461" lon="18.05822">
        <ele>24.6</ele>
        <time>2015-05-05T20:37:31Z</time>
      </trkpt>
      <trkpt lat="59.333512" lon="18.058314">
        <ele>24.4</ele>
        <time>2015-05-05T20:37:32Z</time>
      </trkpt>
      <trkpt lat="59.333543" lon="18.058422">
        <ele>24.2</ele>
        <time>2015-05-05T20:37:33Z</time>
      </trkpt>
      <trkpt lat="59.333592" lon="18.058507">
        <ele>23.9</ele>
        <time>2015-05-05T20:37:34Z</time>
      </trkpt>
      <trkpt lat="59.33362" lon="18.05865">
        <ele>23.7</ele>
        <time>2015-05-05T20:37:35Z</time>
      </trkpt>
      <trkpt lat="59.333657" lon="18.058752">
        <ele>23.4</ele>
        <time>2015-05-05T20:37:36Z</time>
      </trkpt>
      <trkpt lat="59.333696" lon="18.058874">
        <ele>23</ele>
        <time>2015-05-05T20:37:37Z</time>
      </trkpt>
      <trkpt lat="59.333709" lon="18.058974">
        <ele>22.7</ele>
        <time>2015-05-05T20:37:38Z</time>
      </trkpt>
      <trkpt lat="59.333729" lon="18.059096">
        <ele>22.3</ele>
        <time>2015-05-05T20:37:39Z</time>
      </trkpt>
      <trkpt lat="59.333768" lon="18.059228">
        <ele>21.9</ele>
        <time>2015-05-05T20:37:40Z</time>
      </trkpt>
      <trkpt lat="59.3338" lon="18.059334">
        <ele>21.7</ele>
        <time>2015-05-05T20:37:41Z</time>
      </trkpt>
      <trkpt lat="59.33383" lon="18.059445">
        <ele>21.6</ele>
        <time>2015-05-05T20:37:42Z</time>
      </trkpt>
      <trkpt lat="59.333869" lon="18.059559">
        <ele>21.5</ele>
        <time>2015-05-05T20:37:43Z</time>
      </trkpt>
      <trkpt lat="59.333897" lon="18.059638">
        <ele>21.4</ele>
        <time>2015-05-05T20:37:44Z</time>
      </trkpt>
      <trkpt lat="59.333936" lon="18.059739">
        <ele>21.4</ele>
        <time>2015-05-05T20:37:45Z</time>
      </trkpt>
      <trkpt lat="59.333952" lon="18.059803">
        <ele>21.4</ele>
        <time>2015-05-05T20:37:46Z</time>
      </trkpt>
      <trkpt lat="59.333974" lon="18.059867">
        <ele>21.4</ele>
        <time>2015-05-05T20:37:47Z</time>
      </trkpt>
      <trkpt lat="59.333998" lon="18.059957">
        <ele>21.4</ele>
        <time>2015-05-05T20:37:48Z</time>
      </trkpt>
      <trkpt lat="59.333995" lon="18.060028">
        <ele>21.3</ele>
        <time>2015-05-05T20:37:49Z</time>
      </trkpt>
      <trkpt lat="59.334009" lon="18.060117">
        <ele>21.2</ele>
        <time>2015-05-05T20:37:50Z</time>
      </trkpt>
      <trkpt lat="59.334027" lon="18.060186">
        <ele>21.3</ele>
        <time>2015-05-05T20:37:51Z</time>
      </trkpt>
      <trkpt lat="59.334059" lon="18.060275">
        <ele>21.4</ele>
        <time>2015-05-05T20:37:52Z</time>
      </trkpt>
      <trkpt lat="59.334084" lon="18.060362">
        <ele>21.5</ele>
        <time>2015-05-05T20:37:53Z</time>
      </trkpt>
      <trkpt lat="59.334116" lon="18.060456">
        <ele>21.8</ele>
        <time>2015-05-05T20:37:54Z</time>
      </trkpt>
      <trkpt lat="59.334135" lon="18.060548">
        <ele>22.3</ele>
        <time>2015-05-05T20:37:55Z</time>
      </trkpt>
      <trkpt lat="59.334156" lon="18.060599">
        <ele>22.6</ele>
        <time>2015-05-05T20:37:56Z</time>
      </trkpt>
      <trkpt lat="59.334204" lon="18.060691">
        <ele>23.2</ele>
        <time>2015-05-05T20:37:57Z</time>
      </trkpt>
      <trkpt lat="59.334217" lon="18.060742">
        <ele>23.5</ele>
        <time>2015-05-05T20:37:58Z</time>
      </trkpt>
      <trkpt lat="59.334247" lon="18.060822">
        <ele>23.9</ele>
        <time>2015-05-05T20:37:59Z</time>
      </trkpt>
      <trkpt lat="59.334264" lon="18.060896">
        <ele>24.3</ele>
        <time>2015-05-05T20:38:00Z</time>
      </trkpt>
      <trkpt lat="59.334275" lon="18.060972">
        <ele>24.6</ele>
        <time>2015-05-05T20:38:01Z</time>
      </trkpt>
      <trkpt lat="59.334292" lon="18.061029">
        <ele>24.9</ele>
        <time>2015-05-05T20:38:02Z</time>
      </trkpt>
      <trkpt lat="59.334309" lon="18.0611">
        <ele>25.2</ele>
        <time>2015-05-05T20:38:03Z</time>
      </trkpt>
      <trkpt lat="59.334327" lon="18.061167">
        <ele>25.5</ele>
        <time>2015-05-05T20:38:04Z</time>
      </trkpt>
      <trkpt lat="59.334342" lon="18.061225">
        <ele>25.8</ele>
        <time>2015-05-05T20:38:05Z</time>
      </trkpt>
      <trkpt lat="59.334354" lon="18.061274">
        <ele>26</ele>
        <time>2015-05-05T20:38:06Z</time>
      </trkpt>
    </trkseg>
  </trk>
</gpx>